GFSFLT2_prec_pwat_000.txt.gz
Precipitable_Water
1.12 1.12 1.09 1.08 1.01 0.93 0.80 0.74 0.71 0.71 0.73 0.78 0.82 0.78 0.78 0.79 0.78 0.78 0.76 0.76 0.77 0.76 0.76 0.75 0.75 0.74 0.73 0.73 0.68 0.60 0.55 0.59
1.04 1.02 0.97 0.89 0.85 0.79 0.74 0.75 0.74 0.78 0.82 0.89 0.87 0.88 0.87 0.88 0.85 0.83 0.84 0.83 0.85 0.86 0.86 0.83 0.81 0.79 0.77 0.75 0.74 0.69 0.63 0.58
0.88 0.82 0.82 0.80 0.79 0.77 0.78 0.76 0.78 0.82 0.87 0.92 0.91 0.92 0.90 0.89 0.90 0.89 0.87 0.89 0.90 0.92 0.93 0.92 0.90 0.88 0.86 0.85 0.82 0.73 0.67 0.63
0.80 0.79 0.73 0.77 0.78 0.78 0.79 0.82 0.85 0.91 0.96 0.98 0.97 0.96 0.97 0.95 0.91 0.90 0.91 0.93 0.97 0.97 0.95 0.94 0.95 0.93 0.91 0.89 0.86 0.82 0.78 0.75
0.74 0.76 0.77 0.75 0.76 0.83 0.84 0.90 0.93 1.01 0.99 1.01 1.03 1.02 1.00 0.94 0.89 0.89 0.90 0.92 0.92 0.91 0.89 0.87 0.87 0.89 0.85 0.82 0.81 0.80 0.81 0.79
0.79 0.79 0.82 0.87 0.89 0.91 0.93 0.98 1.03 1.04 1.06 0.99 0.98 0.99 0.95 0.92 0.89 0.85 0.86 0.87 0.85 0.84 0.81 0.80 0.80 0.80 0.80 0.76 0.76 0.74 0.75 0.77
0.94 0.88 0.85 0.94 0.98 1.04 1.07 1.10 1.15 1.17 1.17 1.13 1.07 1.04 0.98 0.94 0.90 0.90 0.92 0.90 0.85 0.80 0.76 0.75 0.75 0.73 0.69 0.68 0.66 0.65 0.64 0.64
1.06 1.06 0.99 1.00 1.08 1.12 1.19 1.28 1.29 1.29 1.30 1.24 1.18 1.07 1.03 0.97 0.92 0.90 0.87 0.86 0.83 0.78 0.73 0.69 0.68 0.67 0.62 0.62 0.60 0.59 0.57 0.60
1.06 1.11 1.11 1.10 1.14 1.22 1.36 1.40 1.37 1.32 1.33 1.27 1.19 1.10 1.00 0.95 0.90 0.89 0.87 0.83 0.78 0.72 0.66 0.61 0.58 0.55 0.51 0.52 0.50 0.50 0.49 0.53
1.12 1.19 1.23 1.20 1.32 1.35 1.34 1.27 1.31 1.25 1.18 1.08 1.03 0.98 0.95 0.92 0.88 0.85 0.79 0.71 0.66 0.60 0.58 0.53 0.53 0.48 0.45 0.45 0.45 0.45 0.43 0.50
1.15 1.21 1.24 1.26 1.29 1.35 1.27 1.11 1.10 1.07 1.07 1.01 0.97 0.92 0.88 0.81 0.76 0.74 0.71 0.64 0.58 0.54 0.51 0.48 0.44 0.42 0.41 0.44 0.43 0.41 0.43 0.49
1.21 1.26 1.31 1.32 1.27 1.21 1.04 0.99 0.99 1.02 0.97 0.89 0.85 0.79 0.77 0.77 0.73 0.64 0.58 0.55 0.53 0.51 0.47 0.46 0.44 0.44 0.41 0.40 0.39 0.42 0.48 0.50
1.22 1.22 1.23 1.07 0.98 0.93 0.90 0.90 0.97 0.89 0.83 0.79 0.74 0.72 0.68 0.62 0.59 0.57 0.56 0.53 0.51 0.50 0.47 0.44 0.42 0.46 0.40 0.38 0.39 0.46 0.46 0.47
1.04 0.96 0.93 0.92 0.89 0.91 0.89 0.79 0.73 0.71 0.69 0.69 0.67 0.63 0.60 0.56 0.55 0.54 0.52 0.49 0.48 0.47 0.44 0.41 0.43 0.46 0.39 0.37 0.30 0.31 0.37 0.36
0.70 0.70 0.70 0.71 0.72 0.71 0.69 0.68 0.69 0.66 0.65 0.62 0.61 0.59 0.58 0.57 0.56 0.55 0.54 0.53 0.50 0.50 0.46 0.41 0.37 0.40 0.40 0.33 0.25 0.22 0.27 0.28
0.68 0.68 0.68 0.70 0.72 0.70 0.68 0.65 0.60 0.62 0.60 0.59 0.60 0.61 0.60 0.60 0.59 0.56 0.54 0.54 0.51 0.47 0.44 0.37 0.36 0.30 0.33 0.33 0.34 0.34 0.26 0.22
0.68 0.69 0.69 0.69 0.67 0.66 0.64 0.60 0.60 0.60 0.58 0.58 0.58 0.59 0.58 0.55 0.53 0.51 0.47 0.47 0.42 0.41 0.38 0.37 0.35 0.29 0.27 0.27 0.27 0.28 0.31 0.28
0.70 0.70 0.68 0.66 0.64 0.64 0.63 0.60 0.58 0.56 0.55 0.53 0.55 0.52 0.51 0.48 0.47 0.46 0.44 0.43 0.41 0.40 0.37 0.33 0.28 0.27 0.26 0.25 0.23 0.22 0.21 0.22
0.70 0.69 0.65 0.65 0.65 0.64 0.61 0.59 0.57 0.54 0.53 0.52 0.49 0.45 0.41 0.39 0.42 0.43 0.43 0.39 0.40 0.41 0.35 0.35 0.30 0.28 0.25 0.24 0.25 0.22 0.23 0.21
0.71 0.69 0.67 0.67 0.63 0.60 0.58 0.56 0.53 0.50 0.47 0.43 0.40 0.36 0.35 0.38 0.41 0.41 0.40 0.41 0.42 0.38 0.37 0.33 0.31 0.28 0.25 0.24 0.24 0.23 0.23 0.20

GFSFLT2_prec_pwat_003.txt.gz
Precipitable_Water
1.47 1.35 1.20 1.21 1.18 1.06 0.93 0.81 0.76 0.77 0.80 0.82 0.77 0.78 0.80 0.82 0.83 0.82 0.82 0.82 0.84 0.84 0.83 0.82 0.81 0.81 0.80 0.79 0.78 0.73 0.67 0.64
1.14 1.15 1.16 1.08 1.01 0.96 0.88 0.86 0.80 0.84 0.82 0.85 0.83 0.84 0.85 0.84 0.84 0.85 0.87 0.87 0.88 0.89 0.88 0.87 0.87 0.87 0.84 0.83 0.82 0.78 0.75 0.71
1.05 1.01 0.99 0.98 0.97 0.98 0.94 0.88 0.84 0.86 0.86 0.91 0.91 0.92 0.92 0.93 0.92 0.92 0.92 0.91 0.90 0.90 0.92 0.94 0.93 0.89 0.87 0.85 0.82 0.80 0.77 0.78
0.97 0.97 0.94 1.00 1.02 0.98 0.93 0.88 0.90 0.92 0.96 0.96 0.97 1.00 0.99 1.02 1.01 0.98 0.97 0.94 0.92 0.92 0.93 0.93 0.93 0.91 0.87 0.81 0.78 0.76 0.76 0.74
0.89 0.89 0.93 0.95 0.94 0.95 0.92 0.88 0.96 1.00 1.03 1.03 1.05 1.06 1.08 1.04 1.00 0.97 0.96 0.94 0.93 0.89 0.87 0.88 0.86 0.82 0.78 0.76 0.72 0.67 0.68 0.68
0.89 0.92 0.88 0.89 0.92 0.96 0.99 1.02 1.11 1.14 1.10 1.12 1.14 1.12 1.05 0.99 0.96 0.93 0.91 0.91 0.87 0.84 0.83 0.83 0.80 0.75 0.71 0.68 0.62 0.57 0.54 0.57
0.89 0.93 0.96 0.98 1.01 1.08 1.13 1.18 1.25 1.33 1.39 1.37 1.29 1.23 1.12 1.04 1.03 0.96 0.91 0.89 0.87 0.83 0.79 0.75 0.70 0.65 0.65 0.60 0.55 0.51 0.49 0.50
0.99 0.93 0.96 1.01 1.05 1.09 1.12 1.17 1.25 1.36 1.44 1.45 1.42 1.32 1.19 1.06 0.97 0.93 0.94 0.92 0.88 0.81 0.72 0.65 0.59 0.56 0.53 0.53 0.49 0.48 0.48 0.51
1.07 1.04 1.08 1.11 1.13 1.13 1.10 1.13 1.15 1.18 1.25 1.35 1.33 1.19 1.06 1.00 0.99 0.96 0.91 0.84 0.73 0.67 0.62 0.57 0.51 0.48 0.46 0.45 0.45 0.46 0.45 0.50
1.12 1.15 1.14 1.17 1.20 1.24 1.22 1.11 1.10 1.13 1.21 1.19 1.12 1.05 1.03 0.97 0.87 0.79 0.73 0.68 0.66 0.61 0.52 0.49 0.48 0.46 0.43 0.44 0.44 0.44 0.50 0.53
1.15 1.20 1.17 1.15 1.24 1.15 1.08 1.05 1.01 1.00 0.99 0.95 0.91 0.89 0.85 0.79 0.74 0.70 0.68 0.62 0.55 0.53 0.50 0.47 0.45 0.43 0.41 0.43 0.41 0.41 0.48 0.51
1.16 1.20 1.21 1.18 1.14 1.05 1.01 0.87 0.87 0.88 0.83 0.79 0.77 0.76 0.73 0.69 0.65 0.60 0.58 0.54 0.52 0.51 0.47 0.47 0.46 0.44 0.40 0.40 0.41 0.41 0.49 0.49
1.18 1.15 1.12 0.98 0.90 0.82 0.78 0.77 0.78 0.73 0.65 0.65 0.63 0.63 0.62 0.61 0.59 0.57 0.56 0.53 0.53 0.51 0.48 0.45 0.45 0.47 0.42 0.38 0.36 0.40 0.43 0.44
1.05 0.91 0.81 0.78 0.77 0.78 0.79 0.71 0.63 0.62 0.63 0.64 0.63 0.62 0.61 0.59 0.59 0.58 0.59 0.57 0.56 0.53 0.48 0.42 0.43 0.42 0.32 0.28 0.22 0.24 0.31 0.35
0.80 0.76 0.74 0.73 0.69 0.66 0.65 0.66 0.66 0.61 0.61 0.60 0.60 0.60 0.59 0.59 0.59 0.57 0.57 0.56 0.51 0.47 0.43 0.39 0.34 0.38 0.35 0.27 0.22 0.21 0.28 0.29
0.71 0.70 0.67 0.68 0.70 0.64 0.61 0.60 0.58 0.61 0.59 0.61 0.62 0.61 0.58 0.57 0.56 0.54 0.52 0.50 0.46 0.42 0.40 0.37 0.34 0.29 0.31 0.33 0.30 0.30 0.22 0.19
0.72 0.70 0.71 0.69 0.68 0.65 0.62 0.61 0.61 0.59 0.60 0.60 0.59 0.58 0.56 0.52 0.50 0.46 0.42 0.41 0.40 0.37 0.34 0.31 0.33 0.30 0.30 0.27 0.27 0.27 0.27 0.24
0.68 0.68 0.69 0.71 0.71 0.70 0.67 0.62 0.58 0.56 0.55 0.52 0.49 0.48 0.45 0.42 0.39 0.37 0.39 0.41 0.41 0.41 0.38 0.38 0.31 0.29 0.28 0.26 0.23 0.23 0.23 0.24
0.67 0.68 0.69 0.71 0.70 0.67 0.62 0.56 0.52 0.45 0.37 0.33 0.30 0.28 0.27 0.29 0.36 0.39 0.44 0.43 0.43 0.43 0.41 0.34 0.32 0.28 0.27 0.26 0.26 0.25 0.25 0.24
0.68 0.69 0.69 0.65 0.59 0.53 0.47 0.43 0.38 0.32 0.29 0.25 0.22 0.21 0.22 0.26 0.32 0.40 0.43 0.43 0.42 0.46 0.39 0.37 0.31 0.28 0.27 0.28 0.26 0.26 0.27 0.25

GFSFLT2_prec_pwat_006.txt.gz
Precipitable_Water
1.78 1.68 1.57 1.39 1.30 1.21 1.09 0.94 0.84 0.81 0.83 0.81 0.74 0.79 0.83 0.82 0.81 0.83 0.82 0.85 0.88 0.89 0.89 0.91 0.89 0.87 0.85 0.82 0.79 0.77 0.79 0.76
1.58 1.45 1.34 1.34 1.18 1.04 0.96 0.91 0.86 0.89 0.87 0.85 0.85 0.87 0.85 0.84 0.85 0.86 0.88 0.90 0.91 0.92 0.90 0.89 0.89 0.87 0.85 0.81 0.75 0.85 0.80 0.79
1.27 1.26 1.25 1.20 1.15 1.01 0.97 0.91 0.88 0.87 0.92 0.93 0.95 1.01 1.00 0.97 0.90 0.89 0.92 0.94 0.95 0.95 0.93 0.92 0.90 0.96 0.88 0.77 0.78 0.75 0.73 0.75
1.08 1.07 1.14 1.11 1.10 1.03 0.94 0.93 0.99 1.01 1.06 1.06 1.06 1.08 1.07 1.00 0.98 0.92 0.93 0.94 0.94 0.89 0.88 0.91 0.97 0.93 0.86 0.78 0.71 0.71 0.68 0.67
1.04 1.00 0.94 0.98 0.95 0.92 0.91 0.92 0.98 1.03 1.09 1.12 1.14 1.14 1.18 1.15 1.08 1.08 1.07 0.97 0.98 0.92 0.92 0.91 0.87 0.82 0.77 0.73 0.67 0.62 0.59 0.58
0.90 0.91 0.93 0.94 0.92 0.90 0.92 0.96 1.07 1.05 1.11 1.19 1.19 1.20 1.19 1.17 1.13 1.11 1.09 1.03 0.96 0.94 0.91 0.89 0.84 0.76 0.71 0.66 0.61 0.56 0.53 0.51
0.90 0.93 0.91 0.91 0.99 1.05 1.12 1.17 1.20 1.24 1.31 1.35 1.27 1.20 1.20 1.28 1.20 1.13 1.06 1.01 0.97 0.94 0.88 0.79 0.71 0.67 0.65 0.59 0.54 0.53 0.50 0.51
0.91 0.94 1.02 1.13 1.15 1.19 1.16 1.15 1.17 1.26 1.36 1.37 1.33 1.22 1.17 1.22 1.16 1.08 1.05 1.02 0.96 0.87 0.74 0.66 0.64 0.59 0.53 0.53 0.51 0.50 0.48 0.52
0.94 1.00 1.10 1.09 1.10 1.15 1.19 1.16 1.22 1.21 1.19 1.26 1.30 1.27 1.20 1.14 1.07 1.06 0.98 0.90 0.81 0.74 0.68 0.63 0.56 0.54 0.52 0.50 0.50 0.50 0.49 0.57
1.08 1.12 1.17 1.16 1.16 1.16 1.16 1.10 1.11 1.15 1.12 1.14 1.14 1.09 1.07 1.04 0.95 0.86 0.79 0.72 0.66 0.62 0.57 0.54 0.54 0.54 0.51 0.49 0.50 0.48 0.48 0.58
1.11 1.13 1.10 1.14 1.23 1.01 1.05 1.08 1.07 1.04 0.97 0.91 0.89 0.85 0.83 0.80 0.75 0.71 0.68 0.64 0.62 0.59 0.57 0.56 0.52 0.51 0.47 0.44 0.46 0.48 0.47 0.49
1.17 1.17 1.17 1.17 1.07 1.00 0.95 0.88 0.86 0.80 0.76 0.70 0.69 0.71 0.71 0.68 0.67 0.65 0.63 0.61 0.59 0.58 0.56 0.55 0.54 0.52 0.48 0.43 0.47 0.43 0.42 0.46
1.12 1.16 1.08 1.00 0.88 0.81 0.76 0.72 0.73 0.70 0.67 0.65 0.65 0.66 0.66 0.65 0.62 0.62 0.62 0.60 0.60 0.59 0.56 0.52 0.50 0.51 0.41 0.34 0.33 0.32 0.40 0.45
1.12 0.97 0.96 0.88 0.82 0.77 0.77 0.76 0.69 0.64 0.68 0.68 0.68 0.67 0.65 0.64 0.65 0.62 0.61 0.58 0.57 0.59 0.53 0.45 0.39 0.45 0.39 0.32 0.24 0.25 0.27 0.40
0.94 0.91 0.83 0.79 0.77 0.70 0.68 0.70 0.69 0.68 0.67 0.65 0.67 0.68 0.66 0.63 0.61 0.58 0.56 0.55 0.51 0.50 0.44 0.39 0.34 0.36 0.40 0.33 0.23 0.20 0.24 0.27
0.86 0.79 0.76 0.70 0.68 0.69 0.68 0.66 0.65 0.68 0.66 0.67 0.68 0.67 0.63 0.58 0.55 0.54 0.50 0.45 0.42 0.43 0.41 0.38 0.36 0.28 0.31 0.31 0.32 0.29 0.24 0.22
0.73 0.71 0.68 0.69 0.71 0.71 0.69 0.68 0.67 0.66 0.65 0.62 0.57 0.53 0.52 0.49 0.48 0.45 0.41 0.40 0.43 0.43 0.42 0.38 0.37 0.34 0.33 0.31 0.30 0.28 0.26 0.23
0.71 0.68 0.69 0.71 0.72 0.74 0.71 0.65 0.59 0.54 0.48 0.39 0.35 0.32 0.29 0.29 0.31 0.40 0.44 0.44 0.46 0.43 0.41 0.43 0.40 0.39 0.34 0.29 0.26 0.26 0.25 0.24
0.69 0.69 0.69 0.72 0.73 0.68 0.62 0.55 0.51 0.44 0.36 0.32 0.29 0.27 0.26 0.26 0.28 0.32 0.42 0.47 0.45 0.46 0.46 0.44 0.38 0.36 0.31 0.27 0.28 0.27 0.28 0.27
0.69 0.70 0.70 0.68 0.62 0.58 0.60 0.52 0.45 0.40 0.36 0.33 0.30 0.29 0.30 0.33 0.36 0.41 0.45 0.46 0.46 0.50 0.50 0.40 0.36 0.31 0.30 0.30 0.30 0.30 0.28 0.26

GFSFLT2_prec_pwat_009.txt.gz
Precipitable_Water
1.78 1.73 1.78 1.69 1.56 1.39 1.22 1.06 0.79 0.75 0.74 0.70 0.73 0.82 0.81 0.80 0.78 0.81 0.85 0.87 0.88 0.90 0.91 0.91 0.90 0.86 0.82 0.74 0.76 0.83 0.84 0.80
1.65 1.76 1.65 1.48 1.34 1.25 1.07 0.87 0.74 0.74 0.78 0.78 0.83 0.81 0.80 0.79 0.86 0.83 0.87 0.91 0.93 0.94 0.94 0.92 0.89 0.95 0.98 0.83 0.75 0.79 0.73 0.77
1.56 1.47 1.42 1.38 1.42 1.03 0.80 0.74 0.70 0.73 0.86 0.86 0.96 1.13 1.06 1.05 0.92 0.85 0.88 0.90 0.91 0.91 0.88 0.87 0.93 1.05 1.02 0.83 0.77 0.72 0.68 0.68
1.31 1.28 1.25 1.27 1.17 0.89 0.92 0.83 0.94 1.01 1.10 1.03 1.12 1.09 1.05 0.91 0.99 0.87 0.92 0.94 0.93 0.96 0.93 0.98 1.03 0.91 0.88 0.83 0.75 0.69 0.63 0.61
1.06 1.06 1.07 1.06 0.97 0.92 0.87 0.88 0.95 1.04 1.07 1.09 1.16 1.10 1.18 1.14 1.11 1.18 1.22 1.20 1.14 1.06 1.03 1.03 0.99 0.90 0.83 0.77 0.72 0.64 0.59 0.58
0.87 0.92 0.95 0.97 0.87 0.91 0.92 1.05 1.08 1.10 1.16 1.14 1.17 1.14 1.10 1.10 1.14 1.19 1.20 1.20 1.11 1.08 1.04 1.00 0.91 0.82 0.74 0.70 0.64 0.59 0.56 0.55
0.90 0.94 0.92 0.97 0.99 1.06 1.13 1.21 1.26 1.27 1.32 1.35 1.34 1.24 1.14 1.12 1.14 1.08 1.15 1.15 1.11 1.08 1.01 0.89 0.78 0.71 0.68 0.63 0.59 0.57 0.56 0.54
0.95 0.92 0.99 1.11 1.15 1.16 1.13 1.13 1.15 1.18 1.26 1.35 1.33 1.28 1.21 1.15 1.12 1.13 1.12 1.13 1.08 0.98 0.85 0.76 0.69 0.65 0.60 0.60 0.59 0.59 0.58 0.57
0.93 1.04 1.13 1.13 1.15 1.14 1.12 1.10 1.09 1.13 1.20 1.33 1.38 1.34 1.27 1.21 1.13 1.05 1.06 0.97 0.85 0.74 0.70 0.66 0.63 0.63 0.61 0.59 0.57 0.52 0.54 0.53
1.01 1.12 1.13 1.14 1.14 1.15 1.15 1.06 1.00 1.06 1.06 1.09 1.09 1.07 1.03 0.93 0.90 0.90 0.80 0.70 0.68 0.66 0.63 0.62 0.61 0.59 0.57 0.54 0.51 0.49 0.51 0.55
1.08 1.13 1.12 1.17 1.21 1.18 1.04 0.98 0.97 0.95 0.91 0.87 0.78 0.75 0.74 0.72 0.70 0.70 0.70 0.66 0.66 0.64 0.61 0.60 0.56 0.55 0.52 0.53 0.52 0.45 0.51 0.49
1.17 1.17 1.18 1.22 1.19 1.00 0.89 0.87 0.83 0.77 0.73 0.70 0.67 0.68 0.68 0.69 0.70 0.71 0.70 0.66 0.65 0.66 0.62 0.60 0.56 0.54 0.50 0.51 0.44 0.41 0.38 0.39
1.18 1.16 1.20 1.16 0.96 0.87 0.78 0.75 0.71 0.68 0.68 0.69 0.69 0.70 0.70 0.70 0.70 0.71 0.70 0.65 0.64 0.62 0.60 0.57 0.51 0.44 0.41 0.44 0.42 0.40 0.37 0.35
1.19 1.21 1.12 0.95 0.87 0.84 0.84 0.78 0.72 0.67 0.70 0.73 0.73 0.73 0.72 0.70 0.70 0.67 0.65 0.60 0.55 0.56 0.56 0.52 0.45 0.40 0.36 0.38 0.30 0.29 0.30 0.34
1.15 1.03 0.93 0.84 0.84 0.78 0.70 0.69 0.71 0.71 0.71 0.70 0.74 0.75 0.73 0.67 0.62 0.59 0.57 0.55 0.48 0.46 0.47 0.49 0.40 0.38 0.36 0.33 0.27 0.25 0.29 0.31
0.99 0.91 0.83 0.79 0.72 0.71 0.71 0.69 0.67 0.71 0.70 0.71 0.70 0.68 0.60 0.53 0.48 0.47 0.49 0.49 0.45 0.44 0.47 0.49 0.42 0.35 0.37 0.37 0.35 0.33 0.26 0.22
0.91 0.82 0.73 0.72 0.72 0.73 0.70 0.68 0.70 0.70 0.64 0.58 0.52 0.43 0.37 0.33 0.32 0.33 0.36 0.42 0.46 0.47 0.50 0.47 0.43 0.39 0.37 0.34 0.31 0.31 0.29 0.24
0.79 0.72 0.70 0.72 0.73 0.74 0.72 0.67 0.60 0.60 0.55 0.50 0.43 0.37 0.34 0.33 0.34 0.35 0.35 0.38 0.47 0.49 0.50 0.45 0.46 0.44 0.41 0.35 0.28 0.25 0.23 0.24
0.72 0.69 0.68 0.72 0.72 0.68 0.61 0.59 0.62 0.57 0.52 0.42 0.37 0.35 0.33 0.33 0.36 0.39 0.40 0.43 0.48 0.46 0.43 0.46 0.50 0.45 0.39 0.32 0.29 0.29 0.29 0.28
0.69 0.68 0.68 0.69 0.64 0.60 0.61 0.63 0.67 0.59 0.46 0.42 0.36 0.33 0.32 0.35 0.39 0.43 0.45 0.47 0.44 0.46 0.51 0.50 0.49 0.42 0.35 0.33 0.33 0.30 0.31 0.30

GFSFLT2_prec_pwat_012.txt.gz
Precipitable_Water
1.67 1.73 1.70 1.75 1.59 1.46 1.26 1.04 0.74 0.65 0.62 0.64 0.73 0.78 0.79 0.76 0.76 0.78 0.84 0.88 0.89 0.90 0.89 0.87 0.86 0.99 0.96 0.81 0.78 0.72 0.68 0.88
1.80 1.69 1.88 1.60 1.49 1.27 1.08 0.86 0.65 0.65 0.63 0.73 0.77 0.79 0.76 0.85 0.88 0.78 0.82 0.87 0.90 0.90 0.87 0.83 0.94 1.02 0.99 0.88 0.82 0.73 0.65 0.73
1.76 1.61 1.55 1.46 1.33 1.10 0.86 0.66 0.59 0.67 0.76 0.94 1.02 1.04 1.05 1.07 0.97 0.78 0.82 0.85 0.87 0.94 0.95 0.97 1.01 1.02 1.00 0.93 0.87 0.75 0.65 0.65
1.45 1.46 1.39 1.29 1.20 0.93 0.67 0.74 0.84 0.96 0.93 1.05 1.11 1.11 1.03 0.98 1.04 0.91 1.02 1.07 1.07 1.15 1.08 1.07 1.06 0.99 0.91 0.87 0.80 0.72 0.64 0.63
1.15 1.12 1.14 1.16 0.98 0.83 0.80 0.90 0.93 1.02 1.00 1.15 1.15 1.10 1.15 1.13 1.14 1.26 1.20 1.19 1.23 1.16 1.12 1.12 1.03 0.93 0.84 0.78 0.72 0.66 0.63 0.59
1.05 1.07 1.02 0.97 0.88 0.88 0.93 0.99 1.07 1.07 1.09 1.12 1.17 1.17 1.14 1.13 1.16 1.17 1.15 1.15 1.12 1.14 1.10 1.03 0.93 0.86 0.77 0.71 0.68 0.63 0.62 0.61
0.85 0.89 0.86 0.90 0.93 1.06 1.11 1.12 1.19 1.23 1.30 1.36 1.36 1.28 1.16 1.12 1.11 1.13 1.14 1.13 1.10 1.06 0.99 0.93 0.84 0.74 0.66 0.63 0.64 0.64 0.62 0.61
0.89 0.85 0.91 1.02 1.10 1.10 1.11 1.16 1.15 1.15 1.16 1.21 1.26 1.25 1.23 1.20 1.14 1.06 1.04 0.96 0.93 0.92 0.84 0.73 0.67 0.65 0.61 0.63 0.63 0.60 0.57 0.58
0.82 0.89 1.09 1.08 1.10 1.10 1.12 1.06 1.07 1.10 1.12 1.16 1.24 1.23 1.18 1.09 0.95 0.89 0.81 0.74 0.78 0.70 0.65 0.62 0.61 0.60 0.57 0.57 0.56 0.54 0.52 0.51
0.95 1.06 1.11 1.14 1.13 1.13 1.15 1.11 1.00 1.00 1.00 0.98 0.94 0.90 0.86 0.81 0.71 0.67 0.68 0.66 0.65 0.67 0.65 0.62 0.59 0.58 0.57 0.53 0.55 0.55 0.51 0.44
1.12 1.16 1.13 1.09 1.11 1.18 1.15 1.00 0.94 0.90 0.84 0.76 0.72 0.70 0.68 0.66 0.69 0.71 0.69 0.68 0.67 0.67 0.67 0.63 0.56 0.53 0.53 0.50 0.51 0.50 0.45 0.41
1.15 1.15 1.15 1.12 1.23 1.08 0.97 0.87 0.83 0.75 0.70 0.69 0.69 0.67 0.68 0.67 0.72 0.69 0.71 0.69 0.67 0.66 0.61 0.60 0.58 0.56 0.48 0.39 0.44 0.46 0.40 0.40
1.12 1.14 1.14 1.16 1.17 0.89 0.79 0.73 0.71 0.67 0.67 0.67 0.68 0.70 0.70 0.70 0.70 0.70 0.68 0.62 0.59 0.54 0.52 0.52 0.50 0.49 0.40 0.37 0.37 0.38 0.36 0.36
1.16 1.14 1.15 1.17 1.00 0.91 0.88 0.81 0.70 0.67 0.69 0.70 0.73 0.72 0.71 0.70 0.68 0.62 0.58 0.54 0.50 0.49 0.46 0.42 0.45 0.48 0.37 0.34 0.28 0.32 0.35 0.36
1.16 1.21 1.15 0.96 0.87 0.82 0.80 0.72 0.68 0.71 0.71 0.72 0.73 0.73 0.72 0.68 0.57 0.50 0.48 0.46 0.45 0.45 0.43 0.44 0.44 0.45 0.42 0.34 0.28 0.25 0.30 0.32
1.17 1.16 0.98 0.87 0.82 0.73 0.69 0.68 0.65 0.69 0.69 0.70 0.65 0.61 0.55 0.44 0.37 0.36 0.34 0.35 0.39 0.43 0.46 0.46 0.45 0.38 0.38 0.38 0.36 0.33 0.26 0.22
1.11 0.98 0.85 0.79 0.76 0.75 0.70 0.66 0.67 0.65 0.61 0.59 0.56 0.53 0.46 0.39 0.38 0.37 0.35 0.35 0.34 0.40 0.47 0.48 0.46 0.40 0.37 0.34 0.32 0.32 0.30 0.25
0.93 0.84 0.76 0.76 0.76 0.72 0.67 0.62 0.58 0.55 0.55 0.56 0.56 0.46 0.40 0.37 0.39 0.38 0.39 0.40 0.42 0.47 0.48 0.46 0.45 0.43 0.39 0.39 0.34 0.29 0.28 0.26
0.82 0.76 0.71 0.75 0.71 0.65 0.62 0.60 0.57 0.58 0.59 0.55 0.50 0.44 0.37 0.36 0.36 0.38 0.39 0.45 0.47 0.45 0.44 0.44 0.41 0.42 0.41 0.37 0.34 0.31 0.29 0.26
0.75 0.70 0.70 0.71 0.64 0.60 0.61 0.62 0.63 0.61 0.60 0.54 0.48 0.43 0.37 0.35 0.37 0.37 0.43 0.48 0.44 0.41 0.43 0.45 0.45 0.43 0.41 0.39 0.35 0.30 0.31 0.28

GFSFLT2_prec_pwat_015.txt.gz
Precipitable_Water
1.87 1.90 1.72 1.65 1.60 1.46 1.19 0.95 0.70 0.55 0.56 0.67 0.70 0.72 0.72 0.73 0.77 0.78 0.80 0.82 0.84 0.84 0.83 0.91 0.97 0.99 0.91 0.88 0.83 0.76 0.79 0.77
1.71 1.73 1.81 1.55 1.56 1.35 1.04 0.81 0.59 0.54 0.63 0.71 0.74 0.76 0.79 0.82 0.76 0.74 0.78 0.80 0.83 0.87 0.92 1.00 1.04 1.02 1.03 0.94 0.86 0.77 0.72 0.70
1.40 1.34 1.57 1.56 1.35 1.15 0.87 0.63 0.55 0.63 0.79 0.86 0.93 0.95 1.02 1.00 0.85 0.79 0.82 0.93 0.94 1.02 1.05 1.08 1.07 1.02 0.96 0.90 0.82 0.73 0.67 0.67
1.15 1.28 1.44 1.35 1.18 0.90 0.65 0.63 0.66 0.80 0.97 1.02 1.06 1.09 1.07 1.05 1.06 1.04 1.09 1.17 1.14 1.13 1.14 1.12 1.06 0.98 0.91 0.86 0.78 0.71 0.66 0.65
1.28 1.31 1.21 1.11 0.90 0.69 0.75 0.82 0.92 0.98 1.03 1.12 1.18 1.17 1.15 1.12 1.11 1.15 1.17 1.18 1.14 1.14 1.06 0.99 0.95 0.91 0.84 0.80 0.72 0.67 0.63 0.64
1.17 1.17 1.12 0.98 0.90 0.88 0.88 0.92 0.97 0.98 1.15 1.21 1.16 1.09 1.13 1.09 1.11 1.15 1.12 1.07 1.01 0.99 0.96 0.95 0.91 0.87 0.77 0.68 0.63 0.61 0.62 0.61
1.06 1.06 1.02 1.00 1.00 1.03 1.06 1.08 1.14 1.23 1.22 1.27 1.28 1.18 1.09 1.08 1.08 1.05 1.00 1.00 0.95 0.90 0.87 0.86 0.81 0.70 0.61 0.60 0.58 0.57 0.54 0.53
0.91 0.93 0.98 1.04 1.04 1.03 1.05 1.14 1.20 1.15 1.11 1.10 1.13 1.13 1.11 1.06 1.03 1.00 0.92 0.83 0.76 0.71 0.68 0.63 0.58 0.59 0.57 0.56 0.54 0.53 0.50 0.49
0.81 0.89 0.98 0.99 1.00 1.01 1.03 1.07 1.04 1.00 1.03 1.06 1.08 1.08 1.03 0.94 0.89 0.80 0.68 0.63 0.60 0.60 0.62 0.62 0.60 0.58 0.55 0.54 0.53 0.54 0.52 0.50
0.84 0.99 1.00 1.02 1.02 1.06 1.05 1.09 1.01 0.97 0.94 0.89 0.87 0.84 0.81 0.72 0.64 0.61 0.61 0.62 0.64 0.64 0.63 0.60 0.59 0.57 0.51 0.50 0.49 0.48 0.47 0.47
1.00 1.08 1.07 1.06 1.03 1.07 1.09 0.97 0.86 0.83 0.82 0.72 0.67 0.64 0.64 0.65 0.66 0.66 0.67 0.67 0.66 0.64 0.61 0.59 0.52 0.51 0.50 0.47 0.43 0.42 0.41 0.39
1.08 1.07 1.03 1.05 1.09 1.12 1.01 0.84 0.81 0.79 0.69 0.64 0.64 0.64 0.65 0.70 0.71 0.71 0.71 0.66 0.62 0.58 0.52 0.49 0.46 0.46 0.44 0.40 0.37 0.38 0.38 0.36
1.05 1.03 1.02 1.04 1.02 0.93 0.80 0.72 0.67 0.65 0.65 0.64 0.66 0.68 0.70 0.68 0.69 0.69 0.65 0.55 0.52 0.49 0.44 0.41 0.40 0.43 0.37 0.36 0.35 0.34 0.32 0.33
1.06 1.06 1.06 1.07 1.07 0.95 0.80 0.71 0.71 0.66 0.66 0.68 0.70 0.71 0.70 0.68 0.66 0.62 0.53 0.47 0.43 0.43 0.42 0.38 0.39 0.42 0.35 0.33 0.26 0.27 0.30 0.32
1.09 1.11 1.06 1.13 1.13 0.94 0.85 0.79 0.74 0.66 0.66 0.69 0.70 0.67 0.63 0.58 0.56 0.46 0.37 0.35 0.36 0.39 0.41 0.39 0.37 0.41 0.40 0.33 0.26 0.23 0.26 0.30
1.14 1.12 1.10 1.10 1.00 0.89 0.80 0.73 0.65 0.65 0.65 0.61 0.60 0.58 0.55 0.53 0.48 0.41 0.36 0.34 0.31 0.32 0.39 0.41 0.40 0.35 0.39 0.39 0.36 0.33 0.24 0.21
1.19 1.12 1.01 0.97 0.89 0.81 0.76 0.71 0.65 0.61 0.62 0.60 0.54 0.56 0.53 0.51 0.50 0.43 0.38 0.38 0.40 0.41 0.44 0.44 0.44 0.41 0.39 0.38 0.37 0.33 0.29 0.25
1.09 1.01 0.96 0.92 0.81 0.76 0.70 0.64 0.61 0.61 0.59 0.56 0.57 0.57 0.54 0.50 0.43 0.41 0.38 0.41 0.44 0.46 0.47 0.45 0.43 0.42 0.40 0.37 0.32 0.28 0.27 0.25
0.97 0.95 0.91 0.84 0.78 0.72 0.67 0.64 0.62 0.58 0.58 0.59 0.59 0.57 0.49 0.41 0.41 0.39 0.38 0.44 0.46 0.46 0.42 0.38 0.39 0.38 0.37 0.35 0.35 0.34 0.33 0.29
0.88 0.87 0.79 0.80 0.73 0.67 0.66 0.63 0.60 0.61 0.62 0.62 0.59 0.51 0.46 0.43 0.43 0.39 0.39 0.46 0.49 0.46 0.41 0.38 0.39 0.40 0.38 0.35 0.36 0.37 0.34 0.31

GFSFLT2_prec_pwat_018.txt.gz
Precipitable_Water
1.78 1.76 1.68 1.59 1.55 1.37 1.16 0.93 0.68 0.55 0.62 0.70 0.74 0.76 0.77 0.77 0.78 0.81 0.83 0.81 0.78 0.85 0.91 0.98 0.97 0.99 0.96 0.91 0.84 0.84 0.75 0.72
1.60 1.55 1.48 1.46 1.42 1.31 0.99 0.76 0.55 0.56 0.70 0.75 0.76 0.75 0.76 0.77 0.76 0.80 0.82 0.82 0.90 0.94 0.97 1.01 1.00 0.98 0.97 0.91 0.83 0.80 0.73 0.70
1.54 1.49 1.49 1.54 1.42 1.14 0.91 0.72 0.65 0.71 0.79 0.79 0.90 0.95 0.95 0.86 0.83 0.90 0.95 0.95 1.00 1.03 1.07 1.07 0.99 0.97 0.94 0.89 0.83 0.77 0.72 0.68
1.42 1.37 1.26 1.36 1.21 0.99 0.75 0.65 0.71 0.85 0.95 0.96 1.00 1.05 1.06 1.02 0.97 1.00 1.03 1.07 1.11 1.07 1.07 0.97 0.91 0.88 0.87 0.85 0.80 0.70 0.64 0.65
1.26 1.31 1.30 1.22 0.96 0.71 0.67 0.75 0.92 1.01 1.04 1.10 1.09 1.06 1.09 1.07 1.09 1.07 1.10 1.04 0.99 0.96 0.94 0.88 0.81 0.77 0.79 0.76 0.67 0.60 0.58 0.56
1.12 1.17 1.11 0.99 0.80 0.72 0.82 0.87 1.04 1.08 1.15 1.16 1.12 1.08 1.10 1.06 1.06 1.04 0.99 0.98 0.95 0.93 0.85 0.80 0.77 0.77 0.72 0.61 0.56 0.54 0.50 0.51
0.98 1.04 1.01 0.91 0.83 0.88 0.96 1.09 1.13 1.17 1.16 1.18 1.16 1.08 1.05 0.99 0.94 0.92 0.93 0.93 0.88 0.76 0.68 0.67 0.65 0.61 0.58 0.57 0.54 0.51 0.50 0.49
1.05 1.04 1.02 0.98 0.98 1.00 1.09 1.20 1.22 1.20 1.16 1.09 1.06 1.01 0.96 0.90 0.92 0.92 0.84 0.75 0.67 0.60 0.58 0.57 0.57 0.58 0.56 0.55 0.48 0.47 0.49 0.49
1.00 1.00 1.03 1.00 1.00 1.08 1.17 1.27 1.23 1.07 1.03 1.04 0.98 0.99 0.92 0.90 0.83 0.72 0.64 0.59 0.60 0.61 0.61 0.60 0.57 0.55 0.53 0.52 0.47 0.47 0.45 0.43
0.95 0.99 1.01 1.05 1.05 1.10 1.17 1.16 1.06 1.01 1.02 0.96 0.88 0.83 0.79 0.70 0.63 0.57 0.61 0.64 0.64 0.62 0.59 0.55 0.56 0.56 0.49 0.45 0.46 0.44 0.41 0.38
0.92 0.97 0.98 1.03 1.08 1.11 1.05 1.06 0.96 0.88 0.82 0.76 0.72 0.67 0.64 0.62 0.61 0.63 0.67 0.65 0.64 0.60 0.57 0.56 0.50 0.45 0.43 0.43 0.45 0.40 0.38 0.37
0.98 0.99 1.02 1.04 1.05 1.02 0.98 0.89 0.79 0.75 0.71 0.65 0.60 0.59 0.64 0.64 0.63 0.64 0.66 0.65 0.60 0.54 0.49 0.45 0.40 0.40 0.39 0.38 0.38 0.39 0.37 0.35
0.98 1.02 1.05 1.05 0.98 0.90 0.88 0.77 0.71 0.71 0.67 0.62 0.60 0.60 0.62 0.63 0.64 0.65 0.65 0.59 0.50 0.46 0.42 0.39 0.37 0.38 0.36 0.37 0.38 0.38 0.35 0.34
1.03 1.05 1.06 1.05 0.99 0.93 0.90 0.77 0.74 0.67 0.65 0.61 0.62 0.63 0.66 0.66 0.63 0.59 0.58 0.55 0.47 0.45 0.43 0.39 0.39 0.41 0.36 0.35 0.29 0.31 0.32 0.33
1.05 1.07 1.07 1.07 1.02 0.97 0.90 0.78 0.73 0.66 0.63 0.62 0.63 0.63 0.64 0.62 0.58 0.53 0.49 0.46 0.39 0.37 0.39 0.39 0.36 0.40 0.41 0.36 0.29 0.25 0.29 0.33
1.10 1.13 1.08 1.07 1.04 0.96 0.89 0.72 0.65 0.66 0.65 0.63 0.62 0.63 0.61 0.60 0.58 0.53 0.46 0.41 0.39 0.41 0.41 0.39 0.41 0.39 0.42 0.41 0.39 0.35 0.26 0.24
1.10 1.11 1.10 1.07 1.07 1.00 0.89 0.76 0.74 0.72 0.66 0.59 0.61 0.61 0.59 0.58 0.57 0.53 0.47 0.45 0.45 0.45 0.44 0.44 0.46 0.43 0.40 0.37 0.36 0.34 0.33 0.28
1.16 1.07 1.10 1.10 1.09 1.02 0.87 0.78 0.74 0.68 0.64 0.62 0.62 0.61 0.61 0.59 0.57 0.52 0.51 0.53 0.51 0.48 0.47 0.46 0.42 0.41 0.39 0.38 0.34 0.32 0.30 0.29
1.05 1.02 1.02 1.04 0.96 0.93 0.88 0.81 0.75 0.70 0.67 0.65 0.61 0.59 0.58 0.57 0.54 0.51 0.51 0.58 0.50 0.52 0.50 0.48 0.44 0.41 0.41 0.38 0.39 0.37 0.35 0.33
1.01 0.97 0.95 0.94 0.92 0.90 0.87 0.80 0.73 0.70 0.68 0.65 0.61 0.59 0.57 0.55 0.60 0.61 0.51 0.52 0.52 0.53 0.49 0.47 0.45 0.43 0.40 0.39 0.40 0.38 0.39 0.36

GFSFLT2_prec_pwat_021.txt.gz
Precipitable_Water
1.75 1.80 1.79 1.63 1.39 1.23 1.10 1.07 0.92 0.79 0.82 0.83 0.79 0.81 0.79 0.79 0.80 0.81 0.79 0.82 0.87 0.91 0.92 0.99 1.02 0.95 0.91 0.88 0.81 0.78 0.73 0.74
1.57 1.65 1.64 1.52 1.38 1.25 1.12 0.89 0.69 0.72 0.78 0.77 0.78 0.80 0.81 0.81 0.83 0.84 0.89 0.91 0.91 0.93 0.99 0.99 1.00 0.91 0.89 0.88 0.87 0.82 0.73 0.69
1.56 1.53 1.48 1.45 1.38 1.28 0.97 0.71 0.64 0.74 0.80 0.79 0.84 0.84 0.83 0.85 0.86 0.88 0.88 0.92 0.97 1.02 1.00 0.96 0.92 0.87 0.83 0.80 0.80 0.75 0.68 0.64
1.40 1.34 1.31 1.34 1.29 1.11 0.91 0.75 0.79 0.81 0.89 0.96 0.99 0.96 0.91 0.89 0.93 0.95 0.98 1.01 1.03 0.98 0.94 0.89 0.78 0.73 0.71 0.71 0.66 0.60 0.58 0.59
1.18 1.23 1.28 1.27 1.11 0.88 0.68 0.70 0.87 0.92 0.96 1.02 1.03 1.04 1.04 1.02 0.99 1.02 1.02 0.96 0.92 0.91 0.87 0.76 0.70 0.70 0.69 0.64 0.59 0.53 0.52 0.53
1.11 1.17 1.21 1.10 0.91 0.75 0.76 0.84 0.93 0.99 1.05 1.09 1.07 1.02 1.00 1.02 1.01 0.97 0.95 0.92 0.87 0.82 0.77 0.71 0.70 0.69 0.66 0.58 0.55 0.51 0.46 0.47
1.01 1.04 1.06 1.01 0.78 0.76 0.84 0.97 1.10 1.16 1.12 1.12 1.11 1.03 0.99 0.97 0.93 0.89 0.88 0.86 0.80 0.72 0.66 0.63 0.61 0.60 0.59 0.56 0.51 0.46 0.43 0.45
0.96 0.97 0.99 0.92 0.83 0.92 0.97 1.13 1.19 1.16 1.17 1.13 1.09 0.98 0.92 0.86 0.83 0.82 0.82 0.75 0.67 0.61 0.60 0.60 0.60 0.59 0.55 0.52 0.48 0.43 0.41 0.41
0.90 0.93 0.95 0.90 0.91 0.98 1.11 1.17 1.21 1.19 1.14 1.13 1.06 0.96 0.89 0.86 0.82 0.76 0.69 0.63 0.62 0.64 0.64 0.63 0.59 0.57 0.53 0.50 0.44 0.41 0.39 0.37
0.97 1.02 1.05 1.06 1.04 1.09 1.18 1.23 1.24 1.16 1.07 1.05 0.99 0.94 0.88 0.77 0.66 0.61 0.62 0.65 0.64 0.62 0.60 0.56 0.54 0.51 0.44 0.44 0.44 0.41 0.38 0.37
0.96 0.99 1.03 1.03 1.07 1.17 1.22 1.28 1.16 1.04 1.00 0.94 0.90 0.82 0.71 0.62 0.59 0.62 0.63 0.62 0.61 0.60 0.56 0.51 0.44 0.41 0.41 0.41 0.40 0.38 0.37 0.38
1.01 1.01 1.02 1.05 1.09 1.12 1.15 1.06 0.97 0.94 0.87 0.82 0.76 0.67 0.61 0.60 0.61 0.62 0.64 0.61 0.59 0.58 0.52 0.47 0.44 0.42 0.39 0.38 0.38 0.39 0.39 0.37
0.93 0.95 1.00 1.03 1.03 1.00 0.96 0.89 0.88 0.81 0.77 0.72 0.65 0.62 0.61 0.61 0.61 0.64 0.62 0.56 0.52 0.51 0.48 0.44 0.41 0.41 0.35 0.37 0.39 0.39 0.38 0.36
0.92 0.97 1.02 1.06 1.05 1.01 0.98 0.91 0.88 0.79 0.75 0.69 0.64 0.62 0.62 0.63 0.61 0.58 0.57 0.56 0.52 0.47 0.43 0.41 0.43 0.44 0.36 0.35 0.31 0.35 0.38 0.37
0.87 0.95 1.01 1.07 1.06 1.02 0.97 0.94 0.87 0.75 0.69 0.66 0.64 0.64 0.63 0.62 0.59 0.58 0.56 0.54 0.49 0.45 0.47 0.44 0.41 0.42 0.43 0.39 0.32 0.30 0.35 0.39
0.98 0.99 1.05 1.11 1.08 1.00 0.92 0.88 0.86 0.69 0.68 0.64 0.61 0.63 0.64 0.62 0.60 0.58 0.57 0.57 0.53 0.49 0.49 0.52 0.47 0.44 0.47 0.47 0.45 0.42 0.35 0.31
1.04 1.08 1.15 1.16 1.08 1.02 0.93 0.90 0.94 0.78 0.73 0.65 0.64 0.64 0.64 0.62 0.61 0.59 0.55 0.55 0.55 0.58 0.59 0.55 0.51 0.45 0.43 0.40 0.39 0.39 0.38 0.32
1.13 1.17 1.17 1.18 1.07 1.02 0.95 0.94 0.90 0.86 0.76 0.71 0.68 0.67 0.65 0.63 0.62 0.58 0.59 0.61 0.69 0.66 0.57 0.50 0.49 0.48 0.44 0.40 0.38 0.36 0.34 0.33
1.12 1.13 1.11 1.13 1.05 0.99 1.01 0.97 0.96 0.89 0.81 0.77 0.72 0.67 0.64 0.64 0.59 0.55 0.62 0.79 0.66 0.57 0.53 0.53 0.50 0.46 0.44 0.42 0.41 0.39 0.39 0.36
1.09 1.07 1.12 1.09 1.09 1.04 1.02 1.04 0.97 0.92 0.85 0.79 0.73 0.68 0.64 0.62 0.57 0.70 0.75 0.63 0.56 0.58 0.52 0.52 0.53 0.50 0.48 0.45 0.41 0.40 0.37 0.36

GFSFLT2_prec_pwat_024.txt.gz
Precipitable_Water
1.72 1.77 1.74 1.55 1.30 1.08 1.01 0.88 0.99 1.00 1.01 0.97 0.91 0.89 0.86 0.85 0.85 0.84 0.86 0.89 0.91 0.95 0.99 0.97 0.94 0.93 0.88 0.83 0.82 0.80 0.74 0.75
1.62 1.62 1.61 1.49 1.33 1.22 1.06 1.00 0.99 1.04 0.90 0.83 0.83 0.86 0.88 0.87 0.86 0.87 0.87 0.90 0.92 0.95 1.01 0.96 0.91 0.85 0.80 0.79 0.77 0.74 0.68 0.67
1.55 1.54 1.48 1.41 1.34 1.16 1.08 1.08 1.00 0.82 0.82 0.83 0.84 0.86 0.87 0.88 0.90 0.91 0.93 0.95 0.98 0.99 0.97 0.92 0.84 0.74 0.71 0.70 0.67 0.63 0.58 0.59
1.42 1.46 1.44 1.38 1.35 1.33 1.15 0.91 0.74 0.81 0.82 0.82 0.84 0.87 0.87 0.90 0.93 0.96 0.98 1.01 1.02 0.96 0.88 0.82 0.68 0.64 0.64 0.64 0.61 0.57 0.55 0.58
1.50 1.44 1.46 1.38 1.32 1.15 0.83 0.77 0.84 0.86 0.91 0.95 0.94 0.89 0.88 0.92 0.99 0.96 0.99 0.96 0.90 0.87 0.80 0.73 0.66 0.64 0.62 0.59 0.54 0.51 0.50 0.52
1.07 1.09 1.13 1.14 1.16 0.97 0.74 0.73 0.80 0.90 0.96 1.02 1.03 1.00 0.97 0.95 0.97 0.97 0.91 0.87 0.83 0.79 0.71 0.69 0.68 0.64 0.58 0.54 0.52 0.49 0.45 0.43
0.98 1.01 0.99 0.97 0.87 0.74 0.67 0.76 0.86 0.96 1.05 1.10 1.07 1.02 1.00 0.96 0.91 0.87 0.84 0.84 0.79 0.69 0.65 0.62 0.60 0.58 0.57 0.54 0.49 0.45 0.40 0.42
0.95 0.97 1.00 1.02 0.84 0.74 0.77 0.95 1.06 1.12 1.17 1.15 1.11 1.02 0.93 0.89 0.84 0.82 0.80 0.78 0.68 0.64 0.60 0.60 0.59 0.56 0.51 0.48 0.43 0.39 0.38 0.38
0.92 0.95 1.10 1.00 0.85 0.84 1.00 1.11 1.21 1.17 1.18 1.14 1.07 0.96 0.90 0.84 0.79 0.76 0.74 0.69 0.63 0.63 0.62 0.61 0.56 0.52 0.48 0.42 0.40 0.40 0.38 0.36
0.97 1.04 1.02 0.97 0.92 0.95 1.04 1.17 1.19 1.21 1.15 1.09 1.00 0.94 0.88 0.82 0.76 0.70 0.68 0.63 0.62 0.62 0.61 0.59 0.55 0.50 0.44 0.43 0.41 0.39 0.38 0.38
0.96 0.98 0.92 0.91 0.97 1.02 1.13 1.19 1.19 1.17 1.10 1.04 0.95 0.91 0.85 0.77 0.69 0.64 0.64 0.63 0.63 0.62 0.57 0.52 0.44 0.44 0.43 0.42 0.42 0.39 0.38 0.38
0.96 0.99 1.02 1.04 1.05 1.08 1.12 1.17 1.15 1.15 1.05 0.99 0.97 0.88 0.79 0.69 0.62 0.63 0.64 0.63 0.62 0.56 0.50 0.47 0.44 0.43 0.42 0.41 0.42 0.42 0.39 0.38
0.93 0.96 0.99 1.04 1.01 1.01 1.09 1.09 1.14 1.05 0.98 0.95 0.91 0.82 0.72 0.64 0.63 0.63 0.63 0.59 0.57 0.56 0.52 0.48 0.48 0.50 0.44 0.44 0.44 0.44 0.44 0.42
0.89 0.95 0.97 1.04 1.05 1.05 1.10 1.08 1.02 0.98 0.93 0.85 0.83 0.73 0.67 0.65 0.63 0.61 0.60 0.56 0.54 0.53 0.54 0.53 0.54 0.56 0.52 0.47 0.39 0.41 0.44 0.43
0.84 0.91 0.99 1.03 1.04 1.04 1.03 1.02 0.98 0.93 0.88 0.77 0.73 0.68 0.67 0.65 0.62 0.59 0.56 0.53 0.51 0.53 0.57 0.59 0.58 0.56 0.56 0.47 0.38 0.35 0.40 0.45
0.96 0.96 0.99 1.04 1.07 1.02 0.97 0.92 0.87 0.90 0.91 0.79 0.72 0.70 0.66 0.64 0.64 0.61 0.60 0.59 0.57 0.59 0.65 0.71 0.65 0.56 0.52 0.48 0.46 0.44 0.37 0.34
1.02 1.05 1.06 1.08 1.08 1.07 1.02 0.94 0.95 0.94 0.93 0.83 0.73 0.71 0.69 0.69 0.66 0.62 0.62 0.61 0.61 0.69 0.76 0.75 0.66 0.50 0.47 0.44 0.46 0.43 0.40 0.35
1.06 1.11 1.09 1.11 1.15 1.15 1.03 0.95 0.93 0.91 0.89 0.87 0.79 0.77 0.76 0.74 0.72 0.69 0.67 0.66 0.73 0.74 0.73 0.61 0.55 0.51 0.45 0.45 0.46 0.38 0.37 0.34
1.05 1.11 1.10 1.09 1.21 1.17 1.10 0.98 0.94 0.95 0.91 0.92 0.85 0.81 0.78 0.75 0.72 0.68 0.69 0.75 0.72 0.73 0.66 0.62 0.52 0.45 0.52 0.49 0.43 0.40 0.39 0.35
1.04 1.06 1.07 1.09 1.22 1.23 1.13 1.07 1.03 0.97 0.99 0.95 0.93 0.83 0.78 0.75 0.72 0.74 0.73 0.72 0.70 0.69 0.62 0.52 0.57 0.58 0.49 0.46 0.44 0.42 0.41 0.40

GFSFLT2_prec_pwat_027.txt.gz
Precipitable_Water
1.69 1.68 1.68 1.58 1.37 1.18 1.07 1.06 1.08 0.97 0.95 0.99 0.99 0.96 0.91 0.90 0.91 0.96 0.94 0.94 0.94 0.93 0.96 1.01 0.98 0.85 0.77 0.75 0.75 0.72 0.70 0.71
1.63 1.64 1.60 1.45 1.35 1.22 1.12 1.11 1.03 0.97 1.01 1.02 0.94 0.93 0.92 0.89 0.86 0.89 0.92 0.94 0.98 0.98 0.98 0.96 0.91 0.77 0.73 0.71 0.67 0.64 0.61 0.59
1.60 1.60 1.45 1.36 1.29 1.14 1.11 1.08 1.04 1.12 1.03 0.90 0.90 0.98 0.95 0.90 0.90 0.92 0.96 0.95 1.02 1.00 0.93 0.88 0.75 0.68 0.66 0.64 0.60 0.60 0.59 0.59
1.50 1.43 1.39 1.32 1.22 1.12 1.07 1.18 1.09 1.02 0.90 0.89 0.92 0.95 0.93 0.95 0.97 0.97 0.97 1.00 1.00 0.95 0.88 0.76 0.66 0.64 0.61 0.59 0.57 0.56 0.57 0.56
1.42 1.41 1.38 1.31 1.23 1.15 1.19 1.12 0.98 0.91 0.87 0.87 0.90 0.93 0.92 0.91 0.93 0.96 1.00 0.98 0.91 0.87 0.76 0.69 0.66 0.64 0.61 0.56 0.53 0.51 0.49 0.47
1.36 1.38 1.32 1.31 1.28 1.28 1.05 0.94 0.92 0.89 0.88 0.91 0.90 0.86 0.87 0.94 0.92 0.94 0.93 0.89 0.85 0.77 0.69 0.68 0.64 0.59 0.56 0.53 0.51 0.47 0.44 0.44
1.18 1.24 1.20 1.20 1.24 1.09 0.92 0.85 0.80 0.87 0.97 1.03 1.06 0.98 0.93 0.96 0.94 0.89 0.85 0.85 0.78 0.68 0.64 0.60 0.58 0.56 0.55 0.52 0.49 0.44 0.42 0.45
1.01 1.10 1.16 1.17 1.08 0.90 0.70 0.72 0.82 0.99 1.07 1.13 1.10 1.06 0.96 0.91 0.86 0.83 0.81 0.77 0.69 0.64 0.59 0.60 0.59 0.57 0.53 0.50 0.45 0.42 0.41 0.43
0.90 0.91 0.97 0.99 0.88 0.76 0.71 0.88 1.01 1.07 1.15 1.18 1.16 1.02 0.94 0.89 0.85 0.77 0.73 0.73 0.65 0.62 0.63 0.61 0.55 0.53 0.48 0.43 0.43 0.42 0.41 0.43
0.96 0.98 1.01 1.08 1.00 0.81 0.83 1.00 1.12 1.20 1.20 1.14 1.07 0.98 0.91 0.85 0.78 0.74 0.74 0.66 0.63 0.64 0.62 0.57 0.54 0.48 0.45 0.44 0.43 0.44 0.44 0.44
0.97 1.01 1.01 1.01 0.94 0.85 0.99 1.11 1.21 1.23 1.20 1.09 1.02 0.94 0.90 0.84 0.78 0.71 0.67 0.63 0.64 0.63 0.61 0.58 0.49 0.48 0.48 0.49 0.48 0.48 0.49 0.46
0.97 0.98 1.01 0.99 0.92 0.94 1.01 1.10 1.14 1.21 1.16 1.08 1.01 0.96 0.90 0.83 0.74 0.67 0.63 0.63 0.63 0.61 0.56 0.54 0.54 0.54 0.53 0.54 0.55 0.53 0.48 0.45
0.94 0.96 0.98 0.98 0.93 0.91 0.98 0.99 1.07 1.16 1.16 1.12 1.02 0.96 0.89 0.80 0.71 0.64 0.66 0.65 0.62 0.60 0.55 0.53 0.55 0.62 0.61 0.59 0.59 0.55 0.50 0.46
0.94 0.95 0.98 1.01 1.02 1.03 1.08 1.09 1.15 1.21 1.16 1.08 1.00 0.93 0.85 0.78 0.69 0.68 0.68 0.64 0.61 0.60 0.58 0.56 0.61 0.67 0.64 0.62 0.52 0.52 0.51 0.48
0.86 0.92 0.98 1.00 1.05 1.06 1.05 1.12 1.18 1.10 1.05 1.02 0.97 0.91 0.85 0.79 0.75 0.73 0.67 0.62 0.56 0.56 0.58 0.63 0.65 0.72 0.72 0.61 0.46 0.40 0.41 0.46
0.90 0.92 0.98 1.07 1.07 1.06 1.00 0.97 0.97 1.00 1.00 1.00 0.98 0.89 0.80 0.74 0.71 0.68 0.64 0.60 0.57 0.59 0.69 0.74 0.73 0.66 0.66 0.59 0.51 0.46 0.38 0.38
0.98 0.97 0.98 1.06 1.08 1.08 1.04 1.01 1.04 1.04 1.03 0.95 0.92 0.93 0.83 0.73 0.71 0.68 0.66 0.67 0.69 0.73 0.77 0.80 0.73 0.69 0.56 0.50 0.47 0.45 0.46 0.40
1.09 1.06 1.07 1.10 1.07 1.09 1.09 1.06 1.03 0.96 0.94 0.91 0.91 0.90 0.91 0.80 0.78 0.76 0.75 0.71 0.76 0.80 0.79 0.70 0.70 0.63 0.50 0.48 0.48 0.45 0.40 0.35
1.09 1.10 1.06 1.16 1.15 1.06 1.12 1.12 1.10 1.07 1.02 0.94 0.94 0.91 0.95 0.90 0.87 0.83 0.77 0.76 0.83 0.78 0.69 0.70 0.63 0.50 0.54 0.55 0.51 0.44 0.40 0.36
1.08 1.07 1.08 1.11 1.13 1.15 1.17 1.14 1.14 1.12 1.09 1.05 1.01 0.98 0.98 0.95 0.91 0.82 0.74 0.79 0.83 0.79 0.73 0.69 0.55 0.59 0.58 0.51 0.46 0.44 0.44 0.42

GFSFLT2_prec_pwat_030.txt.gz
Precipitable_Water
1.73 1.67 1.64 1.59 1.34 1.25 1.12 1.10 1.05 1.08 1.09 1.10 1.05 1.03 1.01 0.96 0.97 0.96 0.92 0.90 0.92 0.99 1.02 0.99 0.88 0.75 0.73 0.70 0.67 0.64 0.67 0.69
1.65 1.62 1.56 1.42 1.37 1.19 1.13 1.05 1.14 1.11 1.08 1.04 1.04 1.00 0.97 0.99 0.99 0.98 0.98 0.93 0.97 1.03 0.99 0.91 0.76 0.71 0.68 0.64 0.62 0.62 0.62 0.63
1.62 1.59 1.59 1.37 1.30 1.28 1.26 1.19 1.12 1.12 1.04 1.02 1.02 0.97 0.95 1.01 1.03 0.98 1.00 0.99 1.00 1.00 0.94 0.85 0.70 0.67 0.63 0.60 0.60 0.61 0.61 0.60
1.51 1.51 1.47 1.45 1.39 1.38 1.23 1.22 1.16 1.08 1.07 1.10 1.10 1.06 1.05 1.02 1.01 0.99 0.99 1.00 1.00 0.93 0.86 0.69 0.69 0.66 0.63 0.59 0.58 0.57 0.55 0.55
1.49 1.46 1.47 1.41 1.28 1.24 1.27 1.17 1.08 1.11 1.12 1.02 1.10 1.02 1.00 1.05 1.02 1.01 1.00 1.03 0.93 0.87 0.73 0.69 0.68 0.64 0.60 0.58 0.57 0.53 0.49 0.50
1.35 1.37 1.26 1.15 1.10 1.11 1.12 1.12 1.17 1.10 0.98 1.01 1.03 0.96 0.96 0.95 0.97 0.99 1.02 0.99 0.91 0.81 0.73 0.70 0.64 0.62 0.61 0.58 0.55 0.50 0.46 0.50
1.25 1.21 1.14 1.17 1.19 1.15 1.16 1.15 1.01 0.90 0.96 1.03 0.97 0.90 0.90 0.95 0.99 1.00 0.95 0.90 0.83 0.73 0.68 0.63 0.63 0.60 0.57 0.53 0.48 0.46 0.46 0.48
1.25 1.23 1.20 1.19 1.16 1.14 1.02 0.99 0.94 0.95 1.02 1.03 1.01 0.97 0.99 0.99 0.98 0.92 0.87 0.83 0.76 0.68 0.65 0.63 0.58 0.55 0.51 0.49 0.45 0.45 0.47 0.48
1.07 1.13 1.16 1.07 1.11 1.05 0.85 0.91 0.93 0.96 1.09 1.15 1.15 1.10 1.05 0.96 0.89 0.86 0.82 0.78 0.71 0.67 0.66 0.62 0.59 0.53 0.50 0.50 0.50 0.50 0.52 0.54
1.05 1.13 1.19 1.18 1.11 0.96 0.80 0.86 0.93 1.05 1.13 1.22 1.20 1.12 1.01 0.95 0.88 0.82 0.78 0.74 0.66 0.65 0.64 0.61 0.58 0.54 0.54 0.53 0.54 0.56 0.57 0.57
0.91 0.95 0.99 1.08 1.06 0.92 0.83 0.91 1.03 1.16 1.27 1.24 1.16 1.06 0.98 0.92 0.84 0.80 0.77 0.70 0.65 0.65 0.63 0.61 0.57 0.56 0.58 0.59 0.61 0.61 0.61 0.55
0.97 1.00 1.03 1.06 1.04 0.91 0.85 0.95 1.16 1.27 1.25 1.18 1.10 1.00 0.97 0.92 0.85 0.82 0.75 0.67 0.65 0.66 0.61 0.61 0.60 0.59 0.57 0.61 0.65 0.64 0.61 0.60
0.98 0.99 1.03 1.06 0.98 0.83 0.82 0.96 1.08 1.17 1.21 1.19 1.11 1.01 0.97 0.92 0.84 0.81 0.74 0.68 0.69 0.68 0.64 0.61 0.59 0.65 0.66 0.66 0.65 0.67 0.63 0.55
0.97 0.98 1.03 1.05 0.99 0.88 0.92 0.98 1.07 1.14 1.21 1.20 1.14 1.04 0.98 0.92 0.86 0.83 0.79 0.75 0.71 0.67 0.62 0.59 0.62 0.70 0.68 0.69 0.63 0.61 0.57 0.56
0.91 0.97 1.02 1.04 1.01 0.96 1.03 1.10 1.10 1.13 1.17 1.19 1.23 1.12 1.01 0.95 0.91 0.84 0.78 0.75 0.69 0.66 0.63 0.61 0.66 0.73 0.78 0.74 0.58 0.46 0.49 0.51
0.87 0.92 0.98 1.05 1.08 1.03 0.98 0.94 0.95 1.08 1.18 1.22 1.17 1.13 1.08 0.97 0.92 0.86 0.76 0.70 0.66 0.65 0.69 0.74 0.76 0.73 0.70 0.69 0.63 0.53 0.42 0.39
0.92 0.96 0.99 1.03 1.07 1.05 1.03 1.03 1.09 1.12 1.11 1.12 1.11 1.09 1.08 1.05 0.99 0.87 0.75 0.70 0.69 0.71 0.74 0.78 0.85 0.71 0.66 0.62 0.56 0.53 0.50 0.44
1.00 0.99 1.00 1.04 1.08 1.08 1.05 1.08 1.13 1.11 1.06 1.02 1.02 1.04 1.06 1.03 0.99 0.96 0.82 0.77 0.78 0.80 0.79 0.87 0.83 0.78 0.69 0.57 0.51 0.49 0.47 0.43
1.06 1.08 1.06 1.12 1.14 1.13 1.15 1.14 1.17 1.14 1.10 1.10 1.09 1.08 1.05 1.04 0.99 0.98 0.91 0.88 0.89 0.83 0.80 0.92 0.81 0.74 0.63 0.57 0.60 0.54 0.49 0.44
1.07 1.07 1.10 1.15 1.15 1.16 1.20 1.17 1.16 1.16 1.12 1.14 1.16 1.11 1.08 1.07 1.02 1.05 0.94 0.92 0.87 0.80 0.93 0.86 0.78 0.66 0.64 0.65 0.58 0.54 0.52 0.48

GFSFLT2_prec_pwat_033.txt.gz
Precipitable_Water
1.66 1.63 1.63 1.51 1.38 1.22 1.12 1.18 1.13 1.11 1.19 1.13 1.11 1.04 1.00 0.99 0.93 0.93 0.96 0.99 1.04 1.02 0.97 0.85 0.75 0.70 0.64 0.60 0.59 0.63 0.70 0.74
1.67 1.66 1.65 1.53 1.42 1.33 1.26 1.10 1.18 1.16 1.22 1.14 1.08 1.02 0.97 0.98 0.94 0.94 0.96 0.99 1.03 1.02 0.95 0.80 0.70 0.66 0.62 0.61 0.63 0.65 0.63 0.69
1.60 1.59 1.59 1.50 1.35 1.26 1.14 1.16 1.18 1.21 1.19 1.10 1.05 1.04 1.07 1.11 1.08 0.98 0.95 1.01 1.05 1.00 0.90 0.71 0.65 0.63 0.59 0.59 0.63 0.60 0.59 0.64
1.57 1.55 1.49 1.38 1.30 1.24 1.21 1.11 1.11 1.26 1.16 1.11 1.12 1.08 1.13 1.12 1.07 1.01 0.98 1.02 1.04 0.93 0.77 0.70 0.73 0.68 0.63 0.62 0.59 0.56 0.53 0.60
1.46 1.48 1.40 1.36 1.22 1.21 1.25 1.27 1.35 1.25 1.24 1.19 1.22 1.12 1.16 1.09 1.04 0.98 1.00 1.01 0.93 0.86 0.72 0.76 0.71 0.66 0.65 0.59 0.55 0.53 0.51 0.60
1.42 1.45 1.37 1.27 1.34 1.35 1.35 1.39 1.30 1.18 1.15 1.20 1.09 1.11 1.13 1.12 1.06 1.03 1.05 1.03 0.93 0.87 0.75 0.72 0.66 0.63 0.58 0.55 0.51 0.47 0.47 0.61
1.37 1.37 1.37 1.35 1.37 1.39 1.30 1.18 1.06 1.07 1.10 1.12 1.04 1.11 1.11 1.10 1.07 1.06 1.05 1.02 0.93 0.76 0.71 0.67 0.65 0.61 0.57 0.55 0.51 0.52 0.52 0.53
1.30 1.31 1.32 1.32 1.23 1.16 1.12 1.11 1.05 1.09 1.07 1.01 1.09 1.08 1.07 1.05 1.05 1.03 1.00 0.93 0.85 0.76 0.69 0.66 0.63 0.60 0.58 0.56 0.55 0.57 0.57 0.56
1.22 1.22 1.17 1.10 1.04 1.07 1.04 1.05 1.08 1.04 0.99 1.06 1.10 1.04 1.06 1.08 1.05 0.97 0.92 0.88 0.81 0.72 0.68 0.67 0.63 0.59 0.57 0.60 0.62 0.61 0.61 0.61
0.98 0.95 1.04 1.01 0.99 1.12 1.17 1.09 1.07 0.98 1.11 1.16 1.14 1.17 1.15 1.07 0.98 0.93 0.90 0.83 0.77 0.68 0.68 0.66 0.63 0.60 0.60 0.60 0.62 0.64 0.65 0.64
1.04 1.10 1.01 1.08 1.10 1.10 0.98 0.88 0.91 1.00 1.13 1.22 1.26 1.23 1.13 1.03 0.95 0.92 0.86 0.79 0.74 0.70 0.69 0.66 0.62 0.61 0.62 0.63 0.65 0.65 0.66 0.59
1.06 1.18 1.19 1.17 1.16 1.03 0.90 0.84 0.90 1.09 1.27 1.26 1.29 1.20 1.06 1.01 0.97 0.87 0.86 0.79 0.72 0.70 0.70 0.66 0.66 0.63 0.57 0.59 0.67 0.69 0.69 0.67
0.86 0.87 1.00 1.09 1.11 0.94 0.83 0.79 0.92 1.17 1.28 1.32 1.23 1.11 1.04 1.00 0.95 0.91 0.87 0.76 0.76 0.79 0.72 0.68 0.64 0.64 0.65 0.70 0.71 0.72 0.70 0.65
0.94 0.94 0.99 1.03 0.99 0.99 0.87 0.86 0.95 1.11 1.23 1.27 1.21 1.16 1.05 1.00 0.99 0.91 0.89 0.83 0.81 0.77 0.70 0.67 0.67 0.70 0.70 0.72 0.67 0.66 0.65 0.63
0.97 1.00 1.03 1.07 1.09 1.04 0.88 0.87 0.99 1.04 1.09 1.17 1.21 1.21 1.18 1.09 1.02 0.98 0.93 0.86 0.80 0.75 0.73 0.68 0.64 0.73 0.82 0.75 0.61 0.56 0.57 0.60
0.94 0.98 1.00 1.05 1.07 0.99 0.90 0.91 0.91 1.04 1.11 1.19 1.23 1.30 1.26 1.19 1.16 1.06 0.97 0.91 0.83 0.80 0.75 0.70 0.70 0.72 0.85 0.83 0.79 0.71 0.52 0.47
0.86 0.94 0.97 1.02 1.05 1.01 0.97 1.00 1.03 1.09 1.13 1.15 1.19 1.24 1.26 1.22 1.16 1.14 1.11 1.07 0.91 0.80 0.72 0.74 0.75 0.83 0.84 0.83 0.76 0.67 0.62 0.53
0.86 0.90 0.93 1.00 1.06 1.08 1.04 1.06 1.04 1.09 1.19 1.19 1.17 1.17 1.17 1.19 1.16 1.18 1.16 1.06 0.96 0.90 0.83 0.79 0.82 0.91 0.90 0.83 0.70 0.59 0.57 0.57
0.95 0.94 0.91 0.99 1.04 1.09 1.10 1.09 1.12 1.11 1.16 1.16 1.13 1.09 1.10 1.14 1.19 1.15 1.13 1.08 1.01 1.01 0.94 0.93 0.95 0.92 0.91 0.79 0.66 0.68 0.66 0.57
1.05 1.02 1.03 1.07 1.13 1.12 1.19 1.19 1.20 1.22 1.19 1.17 1.13 1.13 1.15 1.27 1.15 1.15 1.11 1.05 1.03 1.02 0.93 0.95 0.93 0.94 0.85 0.73 0.73 0.69 0.63 0.57

GFSFLT2_prec_pwat_036.txt.gz
Precipitable_Water
1.81 1.81 1.80 1.73 1.57 1.40 1.21 1.07 1.06 1.14 1.18 1.15 1.11 1.07 1.08 1.08 1.07 1.05 1.04 1.03 1.03 0.98 0.86 0.75 0.67 0.61 0.60 0.62 0.65 0.69 0.76 0.81
1.65 1.71 1.68 1.60 1.50 1.35 1.21 1.11 1.12 1.15 1.17 1.12 1.10 1.07 1.01 1.01 1.06 1.05 1.03 1.04 1.05 0.96 0.80 0.70 0.65 0.59 0.60 0.61 0.62 0.63 0.71 0.72
1.62 1.61 1.63 1.54 1.45 1.34 1.27 1.26 1.27 1.18 1.11 1.10 1.09 1.07 1.00 1.04 1.06 1.05 1.05 1.09 1.04 0.93 0.75 0.68 0.66 0.60 0.58 0.61 0.61 0.59 0.66 0.70
1.57 1.60 1.55 1.47 1.44 1.26 1.24 1.38 1.22 1.13 1.08 1.12 1.17 1.17 1.14 1.11 1.06 1.05 1.06 1.08 1.02 0.88 0.72 0.71 0.72 0.67 0.64 0.61 0.53 0.53 0.59 0.61
1.48 1.50 1.46 1.35 1.28 1.34 1.40 1.25 1.20 1.16 1.19 1.19 1.22 1.21 1.17 1.11 1.08 1.03 1.03 1.05 0.99 0.80 0.74 0.78 0.75 0.69 0.59 0.53 0.52 0.50 0.58 0.60
1.46 1.40 1.37 1.34 1.34 1.35 1.20 1.16 1.21 1.17 1.26 1.26 1.20 1.20 1.11 1.05 1.03 1.01 1.02 1.05 0.94 0.80 0.81 0.76 0.65 0.61 0.55 0.50 0.48 0.49 0.63 0.64
1.33 1.36 1.34 1.26 1.25 1.23 1.09 1.15 1.21 1.23 1.20 1.25 1.22 1.12 1.10 1.08 1.11 1.06 1.08 1.07 0.98 0.86 0.76 0.69 0.65 0.59 0.58 0.55 0.54 0.55 0.58 0.71
1.33 1.32 1.33 1.28 1.27 1.17 1.23 1.30 1.29 1.28 1.13 1.13 1.12 1.20 1.11 1.10 1.18 1.10 1.10 1.06 0.99 0.81 0.74 0.68 0.67 0.61 0.56 0.54 0.58 0.62 0.60 0.69
1.27 1.28 1.30 1.35 1.36 1.36 1.35 1.31 1.16 1.10 1.10 1.10 1.18 1.08 1.07 1.10 1.04 1.05 1.08 1.00 0.93 0.77 0.71 0.70 0.63 0.60 0.57 0.60 0.64 0.64 0.65 0.65
1.19 1.23 1.25 1.27 1.25 1.21 1.19 1.17 1.08 1.08 1.07 1.10 1.01 1.00 1.05 1.04 1.06 1.05 1.01 0.94 0.87 0.75 0.68 0.65 0.62 0.60 0.60 0.62 0.63 0.64 0.67 0.68
1.03 1.06 1.03 1.03 1.00 0.97 0.98 0.97 1.04 1.09 1.02 1.10 1.08 1.08 1.09 1.09 1.10 1.02 0.97 0.90 0.82 0.73 0.69 0.67 0.63 0.63 0.65 0.65 0.64 0.67 0.70 0.68
0.84 0.87 0.85 0.87 0.91 0.94 0.96 0.95 0.99 1.02 0.99 1.14 1.17 1.15 1.21 1.12 1.09 1.01 0.94 0.87 0.80 0.72 0.69 0.69 0.69 0.67 0.66 0.62 0.68 0.75 0.75 0.71
0.86 0.87 0.94 0.97 1.01 0.92 0.97 0.81 0.85 0.86 1.03 1.24 1.22 1.27 1.20 1.09 1.08 1.00 0.95 0.87 0.80 0.79 0.73 0.67 0.66 0.69 0.65 0.66 0.74 0.78 0.78 0.74
0.90 0.95 0.97 1.02 1.03 0.96 0.90 0.80 0.77 0.81 1.07 1.24 1.27 1.39 1.12 1.08 1.05 0.98 0.95 0.92 0.88 0.82 0.77 0.69 0.68 0.70 0.66 0.72 0.68 0.75 0.78 0.77
0.85 0.89 0.92 0.98 1.03 0.94 0.96 0.89 0.83 0.81 1.01 1.04 1.14 1.34 1.19 1.10 1.10 1.08 1.02 0.99 0.89 0.84 0.80 0.72 0.67 0.72 0.75 0.72 0.66 0.67 0.71 0.73
0.86 0.86 0.85 0.91 0.99 0.97 0.97 0.83 0.74 0.87 1.02 1.11 1.11 1.20 1.25 1.23 1.24 1.23 1.18 1.13 1.04 0.96 0.94 0.82 0.75 0.71 0.79 0.82 0.81 0.83 0.73 0.61
0.87 0.92 0.94 0.98 0.98 1.02 1.05 0.91 0.87 0.92 1.08 1.15 1.19 1.22 1.23 1.24 1.27 1.25 1.22 1.16 1.11 1.03 1.03 0.98 0.89 0.82 0.83 0.82 0.88 0.91 0.82 0.66
0.86 0.86 0.91 0.96 1.02 1.01 1.04 0.99 0.95 1.01 1.10 1.10 1.16 1.20 1.22 1.28 1.29 1.25 1.22 1.19 1.17 1.14 1.12 1.02 0.98 0.90 0.87 0.89 0.89 0.84 0.73 0.65
0.85 0.86 0.87 0.96 1.00 1.03 1.06 1.07 1.06 1.04 1.09 1.14 1.17 1.24 1.19 1.18 1.15 1.15 1.16 1.22 1.21 1.17 1.09 1.04 0.99 0.90 0.89 0.93 0.95 0.84 0.74 0.69
0.90 0.91 0.88 0.93 0.99 1.03 1.07 1.09 1.08 1.21 1.20 1.23 1.20 1.20 1.11 1.08 1.15 1.16 1.15 1.14 1.13 1.11 1.01 0.99 0.94 0.95 0.97 0.95 0.90 0.80 0.73 0.70

GFSFLT2_prec_pwat_042.txt.gz
Precipitable_Water
1.59 1.58 1.42 1.72 1.68 1.41 1.20 1.12 1.16 1.20 1.20 1.18 1.18 1.14 1.14 1.09 1.04 1.02 0.96 0.91 0.86 0.72 0.70 0.80 0.78 0.75 0.84 0.83 0.78 0.73 0.66 0.64
1.55 1.68 1.70 1.65 1.56 1.49 1.32 1.27 1.22 1.25 1.18 1.17 1.16 1.15 1.11 1.06 1.07 1.02 0.97 0.96 0.83 0.71 0.69 0.72 0.74 0.73 0.77 0.78 0.76 0.72 0.66 0.66
1.52 1.70 1.67 1.64 1.61 1.46 1.35 1.30 1.25 1.20 1.17 1.19 1.17 1.15 1.10 1.07 1.08 1.07 1.04 0.94 0.80 0.74 0.71 0.67 0.67 0.69 0.75 0.75 0.72 0.68 0.68 0.64
1.43 1.39 1.58 1.66 1.63 1.54 1.38 1.27 1.22 1.16 1.22 1.18 1.13 1.09 1.08 1.06 1.06 1.06 1.06 1.00 0.87 0.78 0.73 0.69 0.66 0.62 0.65 0.69 0.66 0.65 0.66 0.72
1.41 1.44 1.48 1.48 1.47 1.39 1.21 1.16 1.14 1.18 1.13 1.12 1.07 1.07 1.08 1.02 1.02 1.06 1.06 1.01 0.91 0.82 0.78 0.75 0.68 0.61 0.55 0.59 0.62 0.66 0.72 0.74
1.45 1.47 1.46 1.45 1.43 1.34 1.24 1.19 1.12 1.04 1.06 1.03 1.03 1.02 0.99 0.98 0.98 1.02 1.05 1.02 0.94 0.83 0.78 0.72 0.68 0.60 0.56 0.57 0.62 0.67 0.73 0.73
1.41 1.45 1.45 1.45 1.36 1.37 1.20 1.19 1.17 1.06 1.05 1.06 1.02 0.98 0.97 0.99 0.99 1.00 0.98 1.00 0.99 0.84 0.76 0.72 0.64 0.57 0.54 0.56 0.60 0.63 0.68 0.69
1.35 1.41 1.42 1.47 1.35 1.23 1.22 1.28 1.16 1.15 1.12 1.08 1.08 1.02 1.00 0.98 0.99 0.97 0.94 1.00 1.00 0.90 0.75 0.68 0.63 0.57 0.54 0.55 0.59 0.65 0.67 0.69
1.28 1.28 1.36 1.28 1.22 1.24 1.28 1.26 1.24 1.22 1.16 1.15 1.10 1.08 1.03 1.02 1.04 0.97 0.97 1.04 1.04 0.96 0.75 0.71 0.66 0.60 0.54 0.55 0.60 0.68 0.69 0.71
1.32 1.34 1.37 1.25 1.23 1.24 1.26 1.20 1.16 1.14 1.13 1.14 1.15 1.13 1.11 1.11 1.06 1.12 1.02 1.05 1.02 0.91 0.78 0.68 0.64 0.60 0.55 0.56 0.60 0.66 0.69 0.73
1.27 1.33 1.31 1.24 1.26 1.24 1.19 1.14 1.08 1.04 1.03 1.01 1.09 1.11 1.17 1.10 1.09 1.06 1.02 1.02 0.96 0.90 0.82 0.68 0.60 0.57 0.57 0.60 0.62 0.63 0.66 0.74
1.14 1.16 1.18 1.19 1.22 1.20 1.14 1.06 1.01 0.98 0.98 0.99 1.02 1.10 1.11 1.06 0.98 0.93 0.96 0.94 0.90 0.84 0.76 0.73 0.67 0.62 0.61 0.60 0.62 0.66 0.68 0.71
1.00 1.02 1.05 1.04 1.03 1.00 1.00 0.92 0.89 0.88 0.91 0.91 0.97 1.03 1.05 1.01 0.91 0.88 0.92 0.89 0.86 0.83 0.82 0.78 0.72 0.68 0.61 0.61 0.63 0.68 0.69 0.72
0.88 0.90 0.92 0.93 0.92 0.93 0.92 0.87 0.86 0.88 0.90 0.90 0.96 1.04 1.03 1.09 1.02 0.91 0.94 0.92 0.90 0.88 0.86 0.79 0.76 0.75 0.65 0.64 0.56 0.61 0.68 0.76
0.78 0.80 0.81 0.82 0.86 0.87 0.86 0.87 0.85 0.83 0.81 0.83 0.93 1.02 1.08 1.12 1.10 1.06 1.01 0.99 0.94 0.97 0.96 0.91 0.84 0.86 0.85 0.76 0.68 0.64 0.72 0.81
0.73 0.77 0.79 0.78 0.80 0.78 0.76 0.72 0.66 0.73 0.77 0.82 0.88 0.97 1.04 1.09 1.14 1.13 1.13 1.10 1.06 1.09 1.10 1.03 1.00 0.92 0.94 0.97 0.88 0.83 0.71 0.69
0.68 0.75 0.78 0.75 0.74 0.74 0.71 0.68 0.73 0.77 0.80 0.80 0.84 0.93 0.99 1.12 1.15 1.14 1.15 1.16 1.16 1.17 1.15 1.06 1.00 0.95 0.98 0.96 0.89 0.88 0.82 0.76
0.63 0.64 0.69 0.81 0.81 0.77 0.73 0.70 0.74 0.76 0.76 0.75 0.76 0.78 0.92 1.07 1.16 1.15 1.23 1.25 1.21 1.17 1.18 1.08 1.04 0.99 0.97 0.88 0.84 0.78 0.69 0.71
0.67 0.67 0.66 0.76 0.82 0.82 0.80 0.80 0.82 0.82 0.80 0.85 0.88 0.88 0.93 1.09 1.26 1.32 1.31 1.28 1.22 1.20 1.15 1.09 1.05 0.98 0.92 0.88 0.90 0.84 0.82 0.78
0.69 0.70 0.71 0.74 0.76 0.77 0.82 0.87 0.89 0.91 0.96 1.00 1.09 1.05 1.05 1.24 1.35 1.36 1.30 1.28 1.23 1.21 1.15 1.09 1.04 0.99 0.93 0.92 0.93 0.87 0.84 0.81

GFSFLT2_prec_pwat_045.txt.gz
Precipitable_Water
1.59 1.65 1.66 1.61 1.53 1.57 1.45 1.27 1.22 1.36 1.16 1.11 1.10 1.06 1.04 1.01 0.94 0.89 0.89 0.89 0.92 0.90 0.93 0.93 0.90 0.87 0.83 0.77 0.74 0.70 0.63 0.65
1.60 1.72 1.73 1.56 1.47 1.53 1.43 1.25 1.27 1.31 1.17 1.17 1.12 1.07 1.02 0.99 0.93 0.91 0.86 0.83 0.89 0.87 0.82 0.82 0.87 0.84 0.81 0.78 0.73 0.69 0.64 0.67
1.60 1.58 1.59 1.55 1.54 1.44 1.44 1.37 1.31 1.31 1.21 1.19 1.16 1.10 1.04 0.98 0.94 0.91 0.85 0.79 0.83 0.87 0.78 0.80 0.81 0.83 0.79 0.73 0.68 0.66 0.67 0.70
1.46 1.43 1.56 1.58 1.52 1.46 1.43 1.33 1.25 1.28 1.25 1.19 1.11 1.05 1.00 0.98 0.94 0.90 0.88 0.85 0.81 0.80 0.77 0.76 0.78 0.77 0.74 0.68 0.65 0.69 0.70 0.73
1.44 1.39 1.42 1.48 1.50 1.44 1.45 1.40 1.42 1.33 1.23 1.12 1.07 1.05 1.04 1.01 0.99 0.96 0.93 0.86 0.79 0.74 0.72 0.67 0.69 0.67 0.64 0.64 0.66 0.71 0.74 0.76
1.42 1.47 1.44 1.43 1.42 1.41 1.42 1.41 1.35 1.23 1.22 1.10 1.06 1.03 0.99 0.94 0.96 0.98 0.93 0.88 0.80 0.81 0.75 0.68 0.63 0.64 0.62 0.63 0.67 0.71 0.77 0.77
1.34 1.43 1.43 1.47 1.45 1.43 1.36 1.32 1.31 1.30 1.17 1.08 1.05 0.99 0.91 0.92 0.95 0.99 0.98 0.95 0.89 0.82 0.75 0.69 0.60 0.61 0.59 0.61 0.63 0.65 0.70 0.74
1.37 1.44 1.44 1.46 1.42 1.32 1.23 1.22 1.25 1.23 1.10 1.06 1.01 0.95 0.91 0.93 0.92 0.97 0.97 0.96 1.01 0.87 0.77 0.65 0.58 0.58 0.60 0.59 0.58 0.60 0.63 0.68
1.38 1.40 1.51 1.47 1.44 1.37 1.24 1.11 1.20 1.10 1.04 1.05 1.00 0.96 0.96 0.96 0.96 0.95 0.93 0.95 1.04 0.97 0.73 0.67 0.61 0.59 0.56 0.57 0.59 0.63 0.67 0.68
1.34 1.36 1.39 1.37 1.34 1.35 1.25 1.19 1.12 1.11 1.10 1.06 1.02 1.01 1.01 0.98 0.97 0.97 0.94 0.94 1.00 0.96 0.81 0.67 0.64 0.60 0.54 0.55 0.59 0.64 0.66 0.69
1.33 1.33 1.39 1.39 1.40 1.31 1.27 1.16 1.13 1.17 1.19 1.14 1.09 1.06 1.04 1.04 1.05 1.04 1.02 0.96 0.98 0.96 0.84 0.73 0.65 0.60 0.56 0.57 0.59 0.63 0.64 0.69
1.30 1.32 1.34 1.37 1.36 1.28 1.20 1.23 1.20 1.18 1.13 1.16 1.15 1.15 1.10 1.11 1.07 1.09 1.06 0.93 0.92 0.91 0.83 0.81 0.73 0.67 0.63 0.60 0.62 0.62 0.64 0.67
1.05 1.12 1.24 1.29 1.23 1.17 1.16 1.11 1.11 1.05 1.03 1.08 1.12 1.13 1.10 1.13 1.10 1.06 0.98 0.89 0.86 0.90 0.86 0.80 0.75 0.75 0.68 0.64 0.62 0.64 0.64 0.67
0.94 1.00 1.06 1.10 1.07 1.08 1.10 1.07 1.02 0.97 0.96 0.96 1.01 1.00 0.98 1.02 1.01 0.95 0.90 0.85 0.86 0.91 0.88 0.82 0.81 0.81 0.71 0.67 0.58 0.64 0.72 0.77
0.83 0.88 0.96 1.01 1.05 1.06 1.03 1.02 0.94 0.88 0.87 0.89 0.91 0.93 0.93 0.99 1.01 0.98 0.96 0.92 0.89 0.92 0.90 0.87 0.83 0.87 0.86 0.78 0.71 0.68 0.76 0.84
0.79 0.81 0.82 0.89 0.96 0.92 0.90 0.86 0.80 0.84 0.83 0.83 0.84 0.89 0.90 0.99 1.06 1.04 1.00 1.05 0.99 0.99 1.01 0.99 0.98 0.90 0.91 0.91 0.87 0.88 0.73 0.67
0.71 0.77 0.76 0.80 0.83 0.83 0.79 0.77 0.77 0.80 0.79 0.78 0.80 0.85 0.91 0.97 1.03 1.00 1.05 1.11 1.09 1.08 1.09 1.10 1.11 1.04 0.98 0.90 0.85 0.81 0.77 0.66
0.65 0.69 0.74 0.76 0.76 0.77 0.74 0.72 0.73 0.75 0.77 0.77 0.80 0.83 0.86 0.91 0.93 0.99 1.11 1.18 1.16 1.16 1.21 1.17 1.13 1.10 1.07 0.99 0.87 0.76 0.75 0.69
0.64 0.65 0.66 0.74 0.76 0.73 0.74 0.75 0.76 0.76 0.77 0.77 0.78 0.79 0.82 0.87 0.97 1.01 1.04 1.19 1.24 1.25 1.24 1.21 1.16 1.09 1.03 0.96 0.91 0.89 0.87 0.84
0.62 0.62 0.63 0.70 0.76 0.78 0.78 0.79 0.79 0.79 0.80 0.84 0.83 0.82 0.83 0.88 0.91 0.95 1.02 1.21 1.32 1.28 1.32 1.26 1.20 1.15 1.06 0.98 0.93 0.96 0.92 0.88

GFSFLT2_prec_pwat_048.txt.gz
Precipitable_Water
1.56 1.59 1.55 1.57 1.52 1.45 1.44 1.37 1.42 1.24 1.15 1.17 1.08 1.09 1.09 1.10 1.05 1.00 1.04 1.12 1.11 1.05 1.01 0.94 0.89 0.84 0.78 0.73 0.69 0.67 0.68 0.71
1.53 1.61 1.62 1.58 1.56 1.44 1.34 1.40 1.37 1.20 1.15 1.13 1.10 1.08 1.09 1.05 1.01 1.01 1.03 1.06 1.05 1.01 1.02 0.94 0.87 0.81 0.77 0.71 0.68 0.68 0.70 0.74
1.60 1.61 1.59 1.60 1.48 1.44 1.46 1.46 1.47 1.28 1.19 1.16 1.10 1.09 1.03 0.99 0.98 0.96 0.92 0.93 0.95 0.99 0.99 0.93 0.87 0.86 0.78 0.72 0.68 0.70 0.75 0.78
1.55 1.62 1.58 1.55 1.53 1.45 1.37 1.31 1.36 1.39 1.22 1.16 1.09 1.03 0.98 0.98 0.93 0.87 0.82 0.83 0.89 0.95 0.99 0.87 0.84 0.78 0.75 0.68 0.68 0.73 0.78 0.80
1.50 1.46 1.52 1.55 1.57 1.50 1.47 1.50 1.48 1.34 1.21 1.14 1.08 1.04 1.02 0.98 0.90 0.85 0.86 0.82 0.84 0.91 0.85 0.78 0.74 0.72 0.68 0.69 0.73 0.76 0.80 0.84
1.41 1.46 1.43 1.50 1.54 1.51 1.38 1.35 1.35 1.30 1.26 1.16 1.11 1.05 0.98 0.92 0.85 0.85 0.81 0.83 0.78 0.79 0.74 0.72 0.72 0.70 0.67 0.68 0.73 0.77 0.81 0.84
1.39 1.41 1.38 1.42 1.44 1.48 1.47 1.45 1.45 1.33 1.28 1.18 1.18 1.06 0.98 0.94 0.91 0.87 0.84 0.87 0.85 0.76 0.72 0.71 0.68 0.69 0.69 0.68 0.71 0.73 0.78 0.81
1.38 1.39 1.42 1.43 1.40 1.40 1.41 1.40 1.35 1.26 1.30 1.18 1.14 1.06 0.98 0.94 0.95 0.92 0.92 0.93 0.88 0.81 0.74 0.67 0.64 0.65 0.64 0.66 0.66 0.70 0.73 0.76
1.34 1.42 1.47 1.42 1.41 1.42 1.40 1.39 1.38 1.37 1.34 1.16 1.11 1.03 0.96 0.95 0.96 0.95 0.97 1.00 0.97 0.87 0.76 0.69 0.63 0.63 0.60 0.61 0.64 0.66 0.65 0.70
1.35 1.44 1.47 1.45 1.42 1.44 1.43 1.37 1.32 1.34 1.25 1.16 1.09 1.02 0.99 0.96 0.95 0.94 0.97 1.02 0.98 0.96 0.82 0.66 0.59 0.57 0.57 0.61 0.61 0.62 0.66 0.72
1.38 1.42 1.38 1.44 1.43 1.36 1.28 1.31 1.31 1.25 1.26 1.12 1.08 1.04 1.02 1.00 0.98 0.98 0.97 0.97 0.99 1.00 0.89 0.72 0.60 0.60 0.60 0.61 0.60 0.62 0.66 0.69
1.35 1.37 1.40 1.41 1.39 1.39 1.28 1.27 1.21 1.16 1.18 1.11 1.09 1.07 1.05 1.03 1.04 1.02 1.01 1.00 0.97 0.98 0.90 0.83 0.73 0.66 0.65 0.61 0.62 0.64 0.66 0.67
1.18 1.31 1.33 1.35 1.32 1.31 1.21 1.12 1.13 1.07 1.11 1.22 1.15 1.11 1.09 1.09 1.11 1.07 1.06 1.00 0.98 0.94 0.93 0.85 0.80 0.77 0.69 0.66 0.66 0.66 0.64 0.65
1.00 1.13 1.24 1.33 1.33 1.35 1.28 1.19 1.17 1.13 1.19 1.25 1.20 1.20 1.17 1.17 1.11 1.10 1.10 1.05 0.96 0.87 0.86 0.86 0.84 0.86 0.74 0.71 0.61 0.69 0.74 0.76
0.85 0.96 1.09 1.19 1.26 1.28 1.22 1.19 1.14 1.02 1.10 1.10 1.09 1.11 1.07 1.12 1.16 1.08 1.05 1.02 0.94 0.86 0.84 0.86 0.83 0.85 0.82 0.77 0.64 0.62 0.69 0.81
0.80 0.83 0.94 1.05 1.09 1.09 1.02 0.97 0.91 0.96 0.99 0.95 0.96 0.99 0.98 1.01 1.01 1.00 0.95 0.95 0.94 0.88 0.91 0.91 0.89 0.83 0.88 0.90 0.91 0.84 0.70 0.62
0.74 0.79 0.81 0.89 0.92 0.91 0.90 0.87 0.91 0.92 0.92 0.86 0.86 0.89 0.92 0.91 0.91 0.92 0.95 0.98 0.96 0.95 0.98 0.97 0.95 0.92 0.94 0.97 0.97 0.99 0.90 0.75
0.68 0.73 0.75 0.81 0.84 0.83 0.81 0.79 0.79 0.81 0.80 0.80 0.82 0.85 0.89 0.88 0.88 0.90 0.93 0.96 0.95 0.99 1.07 1.07 1.09 1.08 1.08 1.07 1.02 0.97 0.89 0.80
0.65 0.68 0.70 0.79 0.78 0.81 0.82 0.81 0.82 0.80 0.80 0.78 0.78 0.78 0.78 0.80 0.86 0.84 0.88 0.95 0.97 1.06 1.11 1.18 1.18 1.17 1.18 1.13 1.11 1.05 0.99 0.90
0.65 0.62 0.64 0.73 0.78 0.77 0.80 0.83 0.82 0.84 0.82 0.82 0.84 0.85 0.84 0.87 0.89 0.89 0.92 0.96 1.01 1.07 1.06 1.18 1.29 1.25 1.24 1.20 1.13 1.11 1.02 0.97

GFSFLT2_prec_pwat_051.txt.gz
Precipitable_Water
1.63 1.54 1.47 1.46 1.40 1.40 1.44 1.56 1.53 1.47 1.24 1.20 1.13 1.22 1.21 1.16 1.08 1.09 1.12 1.17 1.15 1.10 0.98 0.91 0.89 0.80 0.73 0.71 0.70 0.71 0.71 0.74
1.64 1.62 1.46 1.54 1.50 1.48 1.55 1.49 1.53 1.52 1.29 1.17 1.18 1.19 1.16 1.11 1.07 1.15 1.15 1.14 1.13 1.03 0.94 0.91 0.88 0.78 0.71 0.71 0.70 0.72 0.73 0.76
1.62 1.62 1.64 1.60 1.57 1.56 1.52 1.46 1.50 1.55 1.45 1.18 1.18 1.11 1.13 1.05 1.10 1.14 1.13 1.10 1.04 0.99 0.94 0.92 0.84 0.77 0.72 0.72 0.74 0.76 0.80 0.80
1.57 1.61 1.60 1.60 1.61 1.56 1.52 1.49 1.51 1.51 1.35 1.14 1.11 1.06 1.05 1.05 1.08 1.11 1.07 1.04 1.02 1.02 0.93 0.97 0.89 0.81 0.76 0.76 0.76 0.82 0.83 0.84
1.51 1.52 1.47 1.50 1.52 1.50 1.49 1.45 1.45 1.52 1.31 1.08 1.07 1.05 1.05 1.01 1.01 1.05 1.06 1.04 1.03 1.00 0.99 0.98 0.83 0.78 0.73 0.74 0.82 0.83 0.87 0.91
1.52 1.51 1.50 1.53 1.56 1.47 1.46 1.44 1.49 1.46 1.21 1.07 1.01 1.02 1.00 0.94 0.91 0.87 0.89 0.92 0.93 0.94 0.98 0.87 0.78 0.72 0.71 0.77 0.79 0.86 0.90 0.91
1.40 1.45 1.47 1.51 1.51 1.49 1.48 1.46 1.46 1.44 1.15 1.08 1.08 1.02 0.96 0.92 0.87 0.84 0.82 0.86 0.86 0.86 0.87 0.77 0.73 0.71 0.77 0.78 0.80 0.83 0.87 0.91
1.36 1.40 1.44 1.49 1.47 1.44 1.43 1.40 1.43 1.39 1.22 1.13 1.14 1.07 1.00 0.91 0.89 0.85 0.82 0.82 0.83 0.85 0.82 0.75 0.70 0.72 0.73 0.76 0.74 0.77 0.82 0.86
1.29 1.34 1.40 1.43 1.45 1.44 1.46 1.45 1.40 1.34 1.31 1.19 1.16 1.08 1.03 0.94 0.91 0.87 0.89 0.90 0.86 0.85 0.83 0.78 0.72 0.71 0.71 0.73 0.72 0.71 0.73 0.78
1.32 1.36 1.39 1.42 1.43 1.41 1.40 1.41 1.35 1.34 1.31 1.25 1.16 1.12 1.08 1.00 0.96 0.94 0.98 0.97 0.93 0.87 0.79 0.72 0.69 0.68 0.65 0.66 0.62 0.64 0.67 0.73
1.29 1.34 1.37 1.37 1.41 1.44 1.44 1.43 1.35 1.32 1.29 1.27 1.20 1.14 1.07 1.02 1.02 1.01 1.03 1.04 1.01 0.97 0.88 0.75 0.67 0.66 0.62 0.63 0.63 0.62 0.66 0.70
1.34 1.41 1.41 1.39 1.40 1.40 1.41 1.39 1.34 1.31 1.26 1.27 1.24 1.13 1.07 1.03 1.01 1.00 1.02 1.04 1.03 1.01 0.96 0.89 0.73 0.65 0.64 0.62 0.64 0.68 0.69 0.68
1.26 1.37 1.36 1.39 1.34 1.32 1.29 1.24 1.24 1.26 1.24 1.27 1.24 1.14 1.09 1.06 1.04 1.03 1.03 1.00 1.03 1.03 0.97 0.92 0.81 0.78 0.67 0.65 0.69 0.74 0.71 0.76
1.05 1.17 1.33 1.36 1.36 1.36 1.31 1.27 1.24 1.24 1.22 1.23 1.23 1.14 1.10 1.08 1.05 1.05 1.06 1.03 1.04 1.02 0.93 0.86 0.88 0.84 0.74 0.72 0.67 0.71 0.77 0.82
0.91 1.04 1.18 1.32 1.34 1.34 1.29 1.27 1.26 1.21 1.18 1.18 1.18 1.15 1.13 1.11 1.10 1.14 1.14 1.10 1.01 1.01 0.95 0.82 0.79 0.86 0.88 0.82 0.67 0.64 0.72 0.79
0.81 0.91 1.07 1.20 1.27 1.27 1.21 1.12 1.09 1.14 1.08 1.11 1.13 1.20 1.19 1.16 1.17 1.16 1.11 1.14 1.08 1.04 1.02 0.90 0.86 0.79 0.87 0.89 0.89 0.86 0.75 0.72
0.76 0.81 0.89 1.04 1.12 1.10 1.12 1.04 1.02 1.02 0.97 0.94 0.96 1.07 1.07 1.10 1.08 1.09 1.08 1.07 1.06 1.00 0.95 0.94 0.90 0.87 0.86 0.87 0.87 0.88 0.92 0.85
0.68 0.73 0.77 0.87 0.95 0.99 1.01 0.99 0.95 0.90 0.91 0.86 0.92 1.02 0.98 1.01 1.01 1.00 1.00 0.97 0.93 0.96 0.98 1.01 0.98 0.97 0.98 0.98 0.92 0.89 0.91 0.92
0.63 0.68 0.69 0.78 0.83 0.87 0.92 0.93 0.91 0.86 0.85 0.85 0.85 0.89 0.91 0.91 0.94 0.93 0.92 0.93 0.89 0.91 0.95 0.98 1.00 0.97 1.03 1.04 1.09 1.06 1.07 1.05
0.65 0.63 0.66 0.73 0.78 0.81 0.86 0.89 0.90 0.89 0.89 0.86 0.86 0.89 0.89 0.92 0.90 0.91 0.91 0.91 0.92 0.93 0.92 0.96 1.01 1.02 1.06 1.09 1.15 1.20 1.20 1.14

GFSFLT2_prec_pwat_054.txt.gz
Precipitable_Water
1.62 1.67 1.59 1.45 1.56 1.66 1.60 1.52 1.51 1.55 1.52 1.44 1.28 1.20 1.09 1.17 1.18 1.25 1.24 1.21 1.10 0.99 0.94 0.86 0.82 0.83 0.80 0.73 0.76 0.81 0.82 0.80
1.59 1.60 1.64 1.60 1.62 1.70 1.74 1.54 1.47 1.43 1.49 1.42 1.39 1.19 1.13 1.17 1.16 1.18 1.20 1.20 1.04 0.97 0.91 0.82 0.77 0.82 0.75 0.74 0.75 0.78 0.82 0.81
1.63 1.54 1.58 1.56 1.48 1.54 1.58 1.49 1.50 1.47 1.43 1.50 1.32 1.16 1.21 1.11 1.14 1.20 1.23 1.14 1.02 0.94 0.86 0.81 0.80 0.77 0.74 0.73 0.83 0.82 0.83 0.84
1.60 1.49 1.41 1.49 1.51 1.54 1.58 1.65 1.69 1.55 1.45 1.45 1.40 1.23 1.15 1.15 1.20 1.21 1.20 1.13 1.02 0.93 0.87 0.81 0.84 0.79 0.78 0.83 0.84 0.85 0.87 0.86
1.56 1.59 1.53 1.51 1.48 1.54 1.57 1.65 1.55 1.48 1.52 1.43 1.38 1.20 1.09 1.21 1.22 1.23 1.17 1.08 1.01 0.95 0.90 0.94 0.91 0.83 0.79 0.83 0.88 0.92 0.91 0.90
1.53 1.57 1.57 1.50 1.57 1.57 1.58 1.53 1.51 1.53 1.50 1.40 1.26 1.13 1.08 1.16 1.15 1.18 1.11 1.10 1.00 0.95 0.97 0.96 0.92 0.81 0.82 0.87 0.90 0.91 0.99 0.94
1.46 1.52 1.50 1.49 1.51 1.53 1.58 1.54 1.48 1.52 1.46 1.37 1.18 1.04 1.06 1.10 1.12 1.12 1.07 1.10 1.02 0.99 0.98 0.94 0.83 0.78 0.82 0.85 0.88 0.91 0.97 0.96
1.38 1.40 1.48 1.49 1.46 1.51 1.55 1.55 1.51 1.52 1.43 1.17 1.08 1.09 1.09 1.01 0.98 0.96 0.97 1.04 1.04 0.99 0.95 0.84 0.79 0.79 0.81 0.83 0.85 0.89 0.95 0.98
1.30 1.38 1.45 1.45 1.46 1.49 1.53 1.52 1.48 1.44 1.30 1.14 1.12 1.13 1.05 0.99 0.91 0.92 0.89 0.92 0.94 0.93 0.93 0.85 0.79 0.80 0.79 0.82 0.84 0.88 0.89 0.89
1.33 1.36 1.38 1.39 1.42 1.46 1.47 1.48 1.46 1.44 1.25 1.17 1.14 1.07 1.05 0.98 0.94 0.90 0.90 0.90 0.90 0.91 0.91 0.87 0.82 0.76 0.76 0.78 0.77 0.78 0.80 0.82
1.29 1.33 1.35 1.38 1.41 1.43 1.40 1.43 1.42 1.40 1.27 1.16 1.17 1.12 1.09 1.01 0.96 0.95 0.98 0.96 0.92 0.89 0.86 0.83 0.78 0.76 0.73 0.72 0.71 0.72 0.73 0.74
1.34 1.33 1.34 1.38 1.38 1.41 1.41 1.39 1.38 1.38 1.26 1.29 1.24 1.15 1.13 1.06 1.03 1.04 1.06 1.02 0.99 0.96 0.90 0.86 0.79 0.73 0.70 0.67 0.68 0.71 0.69 0.69
1.13 1.30 1.36 1.36 1.33 1.31 1.31 1.27 1.28 1.24 1.24 1.27 1.31 1.18 1.16 1.11 1.08 1.11 1.09 1.07 1.05 1.06 1.03 0.95 0.85 0.79 0.69 0.69 0.66 0.70 0.71 0.73
1.00 1.11 1.26 1.35 1.34 1.34 1.34 1.31 1.28 1.26 1.25 1.26 1.30 1.25 1.21 1.13 1.08 1.07 1.05 1.07 1.09 1.07 1.04 0.96 0.95 0.92 0.75 0.75 0.65 0.67 0.72 0.79
0.92 1.03 1.16 1.32 1.38 1.37 1.36 1.37 1.32 1.25 1.21 1.21 1.26 1.32 1.22 1.15 1.12 1.11 1.08 1.07 1.06 1.09 1.08 1.01 0.92 0.92 0.90 0.80 0.66 0.60 0.77 0.84
0.84 0.98 1.07 1.17 1.33 1.30 1.28 1.23 1.18 1.21 1.20 1.17 1.22 1.30 1.23 1.17 1.14 1.14 1.13 1.12 1.08 1.09 1.09 1.03 1.03 0.88 0.84 0.88 0.87 0.86 0.75 0.74
0.78 0.85 0.98 1.08 1.15 1.19 1.20 1.17 1.20 1.21 1.22 1.18 1.22 1.22 1.22 1.17 1.16 1.17 1.16 1.19 1.12 1.13 1.08 1.06 1.06 1.02 0.93 0.84 0.84 0.88 0.89 0.79
0.72 0.76 0.83 0.96 1.01 1.07 1.05 1.05 1.05 1.05 1.08 1.07 1.08 1.11 1.15 1.12 1.14 1.17 1.18 1.16 1.10 1.11 1.13 1.07 1.03 1.01 1.00 1.00 0.91 0.85 0.83 0.82
0.65 0.70 0.72 0.84 0.92 0.97 0.97 0.97 0.99 0.98 0.98 0.97 0.94 0.97 0.99 1.03 1.08 1.07 1.07 1.09 1.10 1.11 1.12 1.05 1.01 0.99 1.00 1.01 1.01 0.97 0.99 0.98
0.63 0.63 0.70 0.75 0.84 0.90 0.97 0.96 0.96 0.93 0.93 0.91 0.88 0.87 0.91 0.98 0.99 1.01 1.01 1.01 1.03 1.04 1.01 0.99 0.97 0.95 0.96 1.00 1.01 1.01 1.00 0.96

GFSFLT2_prec_pwat_057.txt.gz
Precipitable_Water
1.50 1.70 1.67 1.58 1.55 1.67 1.62 1.82 1.66 1.61 1.59 1.54 1.43 1.46 1.32 1.33 1.21 1.21 1.20 1.13 1.03 0.96 0.94 0.95 0.93 0.89 0.81 0.84 0.87 0.92 0.88 0.84
1.38 1.57 1.68 1.62 1.53 1.62 1.70 1.86 1.76 1.65 1.60 1.53 1.48 1.34 1.28 1.27 1.27 1.25 1.20 1.14 1.01 0.94 0.90 0.93 0.88 0.85 0.78 0.80 0.86 0.88 0.87 0.84
1.40 1.50 1.58 1.63 1.62 1.63 1.67 1.60 1.71 1.66 1.63 1.50 1.42 1.32 1.29 1.25 1.30 1.25 1.18 1.09 0.99 0.91 0.89 0.83 0.79 0.77 0.73 0.80 0.89 0.91 0.92 0.89
1.38 1.46 1.51 1.54 1.61 1.58 1.67 1.58 1.69 1.60 1.55 1.47 1.51 1.38 1.37 1.33 1.29 1.24 1.21 1.07 0.99 0.91 0.84 0.75 0.77 0.73 0.79 0.88 0.93 0.94 0.93 0.87
1.46 1.51 1.49 1.44 1.45 1.54 1.65 1.62 1.56 1.56 1.56 1.37 1.39 1.47 1.31 1.27 1.24 1.31 1.20 1.08 0.97 0.89 0.80 0.82 0.81 0.78 0.83 0.92 0.91 0.94 0.91 0.88
1.44 1.54 1.48 1.42 1.42 1.50 1.53 1.59 1.56 1.55 1.53 1.42 1.44 1.39 1.29 1.26 1.23 1.30 1.16 1.07 0.96 0.86 0.89 0.98 0.93 0.88 0.93 0.94 0.95 0.95 0.94 0.92
1.38 1.56 1.53 1.43 1.37 1.39 1.44 1.51 1.54 1.55 1.45 1.45 1.46 1.35 1.20 1.25 1.26 1.26 1.15 1.11 1.00 0.89 1.02 0.99 0.94 0.94 0.95 0.96 0.97 1.00 0.97 0.94
1.35 1.42 1.49 1.49 1.44 1.44 1.45 1.52 1.52 1.48 1.47 1.46 1.45 1.33 1.24 1.25 1.29 1.22 1.11 1.12 1.07 0.99 1.05 0.96 0.90 0.91 0.92 0.96 0.97 0.98 1.02 0.99
1.25 1.30 1.44 1.44 1.47 1.48 1.46 1.55 1.55 1.47 1.44 1.40 1.39 1.17 1.25 1.28 1.25 1.19 1.10 1.16 1.10 1.07 1.03 0.96 0.85 0.88 0.88 0.91 0.93 0.96 0.96 1.03
1.22 1.34 1.38 1.45 1.45 1.45 1.49 1.52 1.55 1.50 1.44 1.42 1.25 1.18 1.26 1.23 1.16 1.10 1.10 1.12 1.07 1.02 0.96 0.91 0.86 0.83 0.85 0.85 0.87 0.91 0.93 0.95
1.23 1.36 1.30 1.36 1.43 1.45 1.49 1.49 1.50 1.46 1.45 1.28 1.18 1.27 1.25 1.14 1.01 1.02 1.01 1.01 0.99 0.98 0.97 0.95 0.89 0.86 0.84 0.84 0.83 0.84 0.85 0.86
1.17 1.31 1.32 1.38 1.38 1.42 1.45 1.45 1.45 1.45 1.32 1.24 1.21 1.23 1.17 1.05 1.00 1.05 0.98 0.93 0.94 0.96 0.95 0.96 0.91 0.85 0.81 0.79 0.78 0.77 0.74 0.75
1.04 1.10 1.27 1.33 1.31 1.30 1.33 1.29 1.34 1.32 1.26 1.17 1.18 1.16 1.13 1.03 1.06 1.08 1.02 0.99 0.98 0.99 0.95 0.91 0.89 0.89 0.78 0.73 0.74 0.74 0.73 0.73
0.94 1.03 1.15 1.30 1.36 1.32 1.34 1.32 1.34 1.29 1.26 1.26 1.19 1.20 1.15 1.08 1.08 1.07 1.09 1.06 1.09 1.09 1.03 0.98 0.93 0.89 0.75 0.72 0.66 0.69 0.70 0.72
0.83 0.96 1.10 1.22 1.33 1.35 1.34 1.34 1.32 1.25 1.21 1.20 1.26 1.28 1.21 1.14 1.14 1.18 1.11 1.14 1.16 1.16 1.13 1.06 0.94 0.95 0.91 0.85 0.73 0.67 0.78 0.80
0.80 0.89 1.01 1.13 1.26 1.31 1.26 1.21 1.17 1.20 1.20 1.18 1.18 1.26 1.22 1.16 1.18 1.21 1.18 1.14 1.14 1.17 1.16 1.10 1.05 0.96 0.96 0.95 0.94 0.93 0.84 0.83
0.74 0.80 0.92 1.04 1.15 1.19 1.22 1.20 1.21 1.21 1.20 1.16 1.18 1.22 1.22 1.23 1.21 1.20 1.17 1.14 1.12 1.13 1.13 1.11 1.07 0.98 0.99 0.95 0.86 0.83 0.85 0.76
0.69 0.74 0.79 0.93 1.02 1.06 1.08 1.10 1.14 1.14 1.13 1.14 1.19 1.21 1.24 1.27 1.25 1.17 1.14 1.15 1.15 1.13 1.15 1.12 1.08 1.05 1.02 1.01 0.98 0.91 0.85 0.83
0.66 0.69 0.73 0.84 0.93 0.99 1.04 1.03 1.06 1.07 1.09 1.08 1.05 1.08 1.14 1.18 1.18 1.14 1.12 1.14 1.14 1.16 1.17 1.17 1.16 1.08 1.07 1.06 1.03 1.03 1.04 0.96
0.68 0.63 0.68 0.76 0.84 0.91 0.99 1.03 1.02 1.01 1.02 1.02 1.00 1.00 1.01 1.09 1.13 1.12 1.10 1.12 1.12 1.10 1.10 1.19 1.09 1.09 1.09 1.07 1.09 0.98 1.00 1.02

GFSFLT2_prec_pwat_060.txt.gz
Precipitable_Water
1.33 1.39 1.54 1.57 1.57 1.66 1.79 1.77 1.77 1.87 1.73 1.59 1.56 1.55 1.51 1.31 1.23 1.13 1.11 1.11 0.99 1.00 0.91 0.88 0.89 0.88 0.89 0.93 0.98 1.03 0.94 0.87
1.24 1.41 1.49 1.70 1.61 1.66 1.77 1.58 1.50 1.65 1.72 1.58 1.51 1.47 1.41 1.31 1.20 1.17 1.12 1.05 1.00 0.98 0.92 0.90 0.86 0.83 0.90 0.95 0.96 0.95 0.88 0.82
1.23 1.35 1.44 1.55 1.59 1.65 1.63 1.64 1.45 1.84 1.70 1.58 1.49 1.40 1.45 1.32 1.35 1.30 1.14 1.14 1.03 0.98 0.90 0.86 0.82 0.77 0.91 0.93 0.94 0.92 0.89 0.85
1.37 1.45 1.48 1.50 1.51 1.63 1.64 1.59 1.46 1.80 1.67 1.57 1.51 1.32 1.42 1.37 1.44 1.34 1.14 1.07 1.02 0.94 0.87 0.84 0.73 0.82 0.93 0.94 0.92 0.99 0.91 0.86
1.36 1.41 1.51 1.52 1.52 1.56 1.54 1.57 1.58 1.77 1.67 1.62 1.53 1.42 1.39 1.39 1.43 1.30 1.10 1.04 0.96 0.88 0.76 0.72 0.68 0.85 0.92 0.98 0.98 0.95 0.91 0.84
1.28 1.41 1.50 1.53 1.54 1.48 1.51 1.55 1.50 1.59 1.62 1.56 1.42 1.34 1.46 1.44 1.36 1.24 1.04 1.02 0.90 0.77 0.77 0.80 0.74 0.91 1.00 0.92 0.96 0.98 0.89 0.87
1.20 1.32 1.40 1.49 1.45 1.48 1.54 1.48 1.44 1.47 1.48 1.52 1.44 1.41 1.40 1.39 1.30 1.23 1.08 1.05 0.91 0.83 0.89 0.90 0.86 0.96 1.06 0.97 1.01 0.99 0.90 0.88
1.12 1.26 1.38 1.45 1.40 1.43 1.49 1.51 1.49 1.43 1.45 1.42 1.46 1.42 1.40 1.38 1.27 1.22 1.17 1.06 0.94 0.96 1.02 0.97 0.96 0.99 0.99 1.01 1.05 1.00 0.94 0.87
1.03 1.19 1.37 1.36 1.40 1.41 1.44 1.49 1.44 1.43 1.46 1.42 1.43 1.43 1.35 1.28 1.27 1.19 1.19 1.11 1.01 1.00 1.08 1.00 0.98 0.97 0.97 0.98 0.97 1.02 0.98 0.94
1.01 1.24 1.32 1.34 1.38 1.44 1.46 1.49 1.45 1.45 1.46 1.45 1.45 1.45 1.35 1.26 1.24 1.26 1.18 1.18 1.06 1.10 1.03 0.93 0.92 0.93 0.93 0.93 0.94 0.98 1.03 1.00
0.93 1.20 1.29 1.31 1.37 1.45 1.45 1.47 1.46 1.46 1.47 1.41 1.40 1.27 1.32 1.33 1.29 1.28 1.16 1.28 1.12 1.08 1.00 0.91 0.90 0.94 0.91 0.90 0.91 0.90 0.92 0.96
0.94 1.07 1.24 1.27 1.37 1.36 1.37 1.40 1.44 1.45 1.44 1.40 1.37 1.29 1.32 1.42 1.29 1.32 1.25 1.27 1.15 1.03 0.95 0.96 0.95 0.94 0.93 0.87 0.87 0.88 0.88 0.86
0.87 0.97 1.09 1.20 1.26 1.24 1.28 1.28 1.37 1.40 1.41 1.37 1.38 1.26 1.24 1.23 1.19 1.16 1.09 1.07 1.00 1.02 0.98 0.96 0.96 0.95 0.92 0.89 0.84 0.84 0.81 0.77
0.83 0.92 1.01 1.09 1.24 1.28 1.31 1.33 1.38 1.39 1.40 1.31 1.29 1.19 1.23 1.18 1.16 1.05 1.06 1.04 0.98 0.99 0.97 0.95 0.94 0.95 0.85 0.81 0.68 0.71 0.74 0.76
0.78 0.87 0.96 1.07 1.22 1.30 1.32 1.34 1.33 1.29 1.31 1.23 1.19 1.22 1.20 1.16 1.09 1.01 1.01 1.04 1.01 1.05 1.00 0.96 0.88 0.91 0.91 0.78 0.69 0.65 0.73 0.83
0.77 0.84 0.91 1.04 1.16 1.21 1.23 1.19 1.16 1.19 1.22 1.22 1.21 1.22 1.16 1.13 1.14 1.08 1.00 1.02 1.06 1.14 1.13 1.07 1.03 0.90 0.91 0.88 0.92 0.93 0.84 0.84
0.72 0.80 0.85 0.97 1.05 1.12 1.14 1.14 1.19 1.16 1.21 1.21 1.20 1.21 1.22 1.18 1.15 1.16 1.05 1.01 1.12 1.25 1.19 1.12 1.10 1.07 1.00 0.93 0.87 0.89 0.93 0.85
0.69 0.72 0.78 0.89 0.97 1.04 1.06 1.06 1.07 1.07 1.10 1.10 1.14 1.17 1.22 1.19 1.13 1.14 1.21 1.17 1.10 1.20 1.19 1.12 1.08 1.07 1.09 1.08 0.96 0.85 0.78 0.76
0.70 0.70 0.72 0.82 0.90 0.97 1.03 1.07 1.04 1.03 1.04 1.04 1.05 1.10 1.12 1.12 1.12 1.09 1.12 1.15 1.21 1.17 1.14 1.09 1.10 1.08 1.06 1.05 1.03 0.99 0.99 0.99
0.77 0.71 0.67 0.76 0.82 0.89 0.98 1.02 1.04 1.03 1.03 1.02 0.98 0.98 1.06 1.10 1.10 1.06 1.07 1.20 1.19 1.19 1.11 1.08 1.08 1.09 1.07 1.12 1.10 1.07 1.04 1.00

GFSFLT2_prec_pwat_063.txt.gz
Precipitable_Water
1.25 1.29 1.33 1.45 1.53 1.59 1.74 1.75 1.83 1.90 1.85 1.66 1.59 1.60 1.55 1.43 1.45 1.28 1.14 1.05 0.98 1.00 1.04 0.98 1.01 1.04 1.00 1.04 1.01 0.98 0.90 0.81
1.20 1.35 1.38 1.40 1.50 1.61 1.63 1.67 1.73 1.64 1.70 1.73 1.66 1.67 1.46 1.40 1.35 1.34 1.15 1.02 1.00 1.05 0.95 0.97 0.97 0.96 0.99 1.03 1.02 0.96 0.88 0.75
1.27 1.23 1.34 1.46 1.50 1.60 1.62 1.62 1.65 1.56 1.54 1.60 1.69 1.61 1.41 1.43 1.26 1.14 1.10 1.04 1.01 0.95 0.94 0.95 0.93 0.95 0.99 1.02 0.99 0.91 0.82 0.70
1.21 1.23 1.28 1.38 1.44 1.48 1.53 1.56 1.59 1.56 1.53 1.53 1.68 1.56 1.40 1.35 1.29 1.13 1.06 1.02 0.99 0.94 0.97 0.90 0.90 0.94 1.00 1.03 0.94 0.92 0.84 0.75
1.25 1.32 1.39 1.45 1.49 1.49 1.45 1.49 1.48 1.49 1.56 1.64 1.63 1.53 1.40 1.29 1.28 1.16 1.13 1.12 1.03 0.93 0.93 0.80 0.87 0.95 0.98 0.99 0.98 0.92 0.89 0.81
1.19 1.27 1.34 1.42 1.54 1.56 1.53 1.47 1.50 1.47 1.53 1.65 1.58 1.47 1.32 1.37 1.36 1.23 1.15 0.98 0.92 0.90 0.79 0.75 0.88 0.98 1.02 1.04 0.97 0.92 0.89 0.78
1.07 1.20 1.26 1.36 1.45 1.50 1.49 1.48 1.48 1.53 1.66 1.61 1.52 1.40 1.35 1.35 1.37 1.26 1.12 0.97 0.82 0.70 0.67 0.80 0.92 0.98 1.01 1.05 0.98 0.93 0.89 0.82
1.02 1.11 1.26 1.38 1.40 1.42 1.48 1.53 1.51 1.53 1.54 1.53 1.48 1.47 1.39 1.37 1.32 1.11 1.07 0.90 0.73 0.74 0.73 0.86 0.92 0.94 1.01 1.12 1.02 0.95 0.93 0.85
0.95 1.10 1.30 1.34 1.38 1.38 1.43 1.49 1.49 1.45 1.47 1.48 1.42 1.39 1.40 1.41 1.27 1.12 1.08 0.91 0.83 0.90 0.91 0.91 0.96 0.97 1.03 1.07 1.05 0.99 0.95 0.83
0.95 1.10 1.30 1.36 1.36 1.38 1.43 1.42 1.44 1.42 1.46 1.45 1.40 1.41 1.38 1.38 1.30 1.14 1.15 0.97 0.96 0.98 0.98 0.96 0.97 0.94 1.02 1.03 1.06 1.00 0.96 0.91
0.87 1.01 1.21 1.31 1.37 1.42 1.45 1.45 1.43 1.43 1.43 1.42 1.39 1.38 1.37 1.37 1.29 1.16 1.19 1.07 1.01 1.00 1.02 0.99 0.98 0.93 0.94 0.99 1.00 0.97 1.00 0.97
0.84 0.97 1.11 1.26 1.32 1.39 1.42 1.43 1.45 1.46 1.38 1.38 1.40 1.38 1.37 1.37 1.28 1.18 1.21 1.15 1.07 1.04 1.03 1.05 0.96 0.92 0.92 0.93 0.95 0.99 0.97 0.95
0.76 0.86 1.00 1.13 1.20 1.28 1.30 1.28 1.37 1.40 1.42 1.42 1.41 1.35 1.36 1.36 1.28 1.25 1.26 1.24 1.12 1.05 1.04 0.98 0.96 0.99 0.92 0.91 0.93 0.93 0.93 0.92
0.72 0.81 0.91 1.02 1.12 1.25 1.28 1.28 1.31 1.38 1.43 1.44 1.42 1.39 1.33 1.31 1.26 1.28 1.26 1.27 1.23 1.13 1.01 0.99 1.00 1.01 0.92 0.92 0.79 0.84 0.86 0.85
0.67 0.75 0.86 0.96 1.11 1.23 1.26 1.29 1.30 1.31 1.35 1.39 1.38 1.31 1.28 1.29 1.25 1.31 1.25 1.23 1.20 1.13 1.00 0.99 0.93 1.03 1.01 0.93 0.77 0.69 0.71 0.78
0.68 0.73 0.81 0.90 1.05 1.15 1.13 1.12 1.13 1.22 1.28 1.34 1.30 1.26 1.28 1.25 1.26 1.26 1.23 1.19 1.10 1.05 1.00 0.94 1.01 0.93 0.97 0.96 0.90 0.85 0.71 0.68
0.66 0.70 0.78 0.86 0.94 1.03 1.07 1.08 1.16 1.21 1.23 1.26 1.26 1.26 1.21 1.23 1.23 1.17 1.10 1.04 1.02 0.99 0.94 0.96 1.04 0.95 0.92 0.89 0.87 0.86 0.94 0.84
0.67 0.66 0.74 0.83 0.89 0.94 0.95 0.99 1.02 1.06 1.12 1.14 1.18 1.15 1.14 1.14 1.15 1.11 1.03 1.00 1.04 1.05 0.99 1.04 1.05 1.04 1.02 0.94 0.87 0.80 0.81 0.83
0.73 0.69 0.69 0.78 0.85 0.91 0.94 0.96 0.98 0.98 1.03 1.04 1.08 1.15 1.14 1.11 1.10 1.09 1.10 1.05 1.02 1.07 1.10 1.10 1.09 1.11 1.06 1.03 1.05 1.02 1.02 0.97
0.83 0.73 0.67 0.74 0.78 0.85 0.93 0.97 0.97 0.97 0.96 0.99 1.02 1.04 1.05 1.11 1.08 1.04 1.07 1.12 1.11 1.07 1.08 1.15 1.15 1.17 1.08 1.08 1.07 1.09 1.08 1.03

GFSFLT2_prec_pwat_066.txt.gz
Precipitable_Water
1.17 1.32 1.38 1.31 1.34 1.45 1.73 1.97 1.76 1.76 1.77 1.82 1.73 1.69 1.59 1.50 1.31 1.19 1.14 1.03 1.06 1.07 1.07 1.09 1.06 1.03 1.04 1.05 1.06 1.04 0.99 0.91
1.21 1.35 1.41 1.32 1.26 1.42 1.56 1.58 1.60 1.77 1.74 1.76 1.74 1.71 1.63 1.53 1.42 1.29 1.07 1.01 1.09 1.08 1.04 1.04 0.99 1.08 1.07 1.10 1.04 1.00 0.92 0.80
1.23 1.29 1.35 1.35 1.28 1.37 1.48 1.58 1.68 1.70 1.67 1.59 1.60 1.75 1.65 1.52 1.38 1.36 1.19 1.01 1.04 1.02 0.99 1.06 1.08 1.12 1.08 1.07 1.02 0.98 0.82 0.74
1.18 1.26 1.24 1.32 1.32 1.35 1.43 1.50 1.61 1.58 1.56 1.56 1.52 1.66 1.66 1.55 1.45 1.29 1.10 1.01 1.06 1.04 1.05 1.08 1.08 1.09 1.14 1.05 1.00 0.87 0.73 0.72
1.11 1.21 1.27 1.28 1.33 1.40 1.44 1.46 1.49 1.49 1.48 1.50 1.50 1.58 1.67 1.53 1.43 1.23 1.11 1.06 1.07 1.02 1.00 1.06 1.06 1.09 1.01 0.99 0.94 0.87 0.80 0.73
1.02 1.17 1.19 1.26 1.37 1.38 1.45 1.45 1.43 1.45 1.46 1.47 1.47 1.70 1.54 1.44 1.30 1.14 0.93 0.95 0.91 0.90 0.92 0.98 1.04 1.07 1.01 0.94 0.94 0.91 0.86 0.79
0.90 1.04 1.12 1.20 1.31 1.36 1.44 1.47 1.46 1.44 1.47 1.48 1.53 1.57 1.48 1.32 1.13 1.06 0.96 0.94 0.92 0.91 0.87 0.95 1.12 1.07 0.99 0.92 0.95 0.91 0.89 0.80
0.88 0.94 1.08 1.18 1.29 1.37 1.44 1.52 1.52 1.53 1.53 1.58 1.65 1.58 1.40 1.33 1.15 1.08 1.00 0.95 0.91 0.89 0.85 0.95 1.03 1.04 0.99 0.96 0.96 0.96 0.95 0.85
0.81 0.90 1.04 1.19 1.30 1.35 1.41 1.49 1.51 1.52 1.60 1.66 1.61 1.52 1.44 1.37 1.25 1.14 1.10 1.04 0.88 0.76 0.79 0.95 0.96 0.99 1.03 1.01 1.00 0.99 0.96 0.90
0.78 0.89 1.00 1.22 1.31 1.33 1.38 1.47 1.46 1.51 1.53 1.55 1.57 1.48 1.40 1.25 1.20 1.12 1.09 0.99 0.78 0.72 0.83 0.88 0.88 0.97 1.05 1.03 1.05 1.03 0.98 0.87
0.73 0.86 0.96 1.18 1.28 1.34 1.39 1.43 1.48 1.48 1.50 1.52 1.51 1.52 1.46 1.31 1.26 1.11 0.99 0.86 0.83 0.76 0.85 0.82 0.82 0.99 1.06 1.07 1.01 1.01 1.00 0.91
0.74 0.83 0.94 1.12 1.22 1.30 1.39 1.41 1.44 1.47 1.45 1.44 1.46 1.49 1.46 1.41 1.31 1.15 1.03 0.95 0.93 0.90 0.84 0.86 0.87 0.95 1.06 1.04 1.03 1.04 1.04 1.00
0.70 0.77 0.91 1.03 1.12 1.18 1.30 1.29 1.35 1.39 1.43 1.43 1.42 1.40 1.41 1.41 1.32 1.18 1.11 1.05 1.01 0.97 0.95 0.92 0.93 1.01 1.01 1.02 1.02 1.04 1.01 1.00
0.68 0.72 0.86 0.99 1.08 1.21 1.30 1.35 1.40 1.44 1.46 1.45 1.42 1.39 1.39 1.35 1.34 1.23 1.20 1.09 1.04 1.01 0.97 0.94 1.00 1.02 0.91 0.92 0.86 0.90 0.95 0.96
0.65 0.66 0.81 0.93 1.07 1.23 1.29 1.35 1.35 1.35 1.37 1.40 1.40 1.42 1.36 1.35 1.32 1.26 1.22 1.22 1.10 1.10 1.05 0.97 0.94 1.03 1.00 0.94 0.81 0.75 0.83 0.92
0.68 0.65 0.75 0.87 0.98 1.14 1.14 1.12 1.10 1.20 1.27 1.38 1.42 1.42 1.36 1.35 1.33 1.30 1.26 1.25 1.23 1.20 1.13 0.99 0.97 0.95 1.01 1.03 1.01 0.97 0.76 0.69
0.76 0.63 0.70 0.82 0.89 0.98 1.07 1.06 1.14 1.23 1.29 1.33 1.38 1.40 1.37 1.35 1.33 1.34 1.27 1.29 1.29 1.24 1.18 1.09 0.97 0.95 0.97 0.96 1.00 1.01 0.94 0.80
0.85 0.62 0.65 0.77 0.85 0.92 0.93 0.98 1.05 1.11 1.18 1.24 1.30 1.33 1.31 1.30 1.30 1.30 1.29 1.26 1.25 1.27 1.18 1.09 0.98 0.98 0.96 0.99 0.94 0.87 0.86 0.86
0.89 0.72 0.62 0.70 0.78 0.87 0.92 0.93 0.96 0.98 1.05 1.12 1.21 1.24 1.22 1.22 1.26 1.28 1.28 1.28 1.22 1.22 1.14 1.06 1.00 0.91 0.93 0.95 0.94 0.93 0.92 0.88
0.90 0.80 0.68 0.67 0.73 0.79 0.88 0.92 0.93 0.95 0.98 1.04 1.10 1.12 1.16 1.20 1.20 1.22 1.25 1.20 1.17 1.16 1.14 1.04 0.94 0.95 1.00 1.02 0.98 1.00 0.99 0.98

GFSFLT2_prec_pwat_069.txt.gz
Precipitable_Water
1.09 1.20 1.33 1.52 1.48 1.45 1.45 1.59 1.80 1.78 1.68 1.59 1.79 1.57 1.52 1.48 1.43 1.39 1.34 1.20 1.17 1.19 1.12 1.09 1.11 1.11 1.07 1.03 1.04 1.03 1.01 0.98
0.95 1.23 1.35 1.40 1.47 1.42 1.44 1.53 1.58 1.81 1.75 1.72 1.69 1.67 1.66 1.64 1.54 1.48 1.38 1.15 1.15 1.11 1.04 1.02 1.07 1.03 1.00 1.06 1.06 1.09 1.00 0.94
0.99 1.17 1.27 1.38 1.36 1.32 1.37 1.45 1.47 1.42 1.55 1.69 1.72 1.60 1.66 1.65 1.52 1.43 1.29 1.10 1.10 1.09 1.04 1.05 1.07 1.03 1.06 1.06 1.10 1.00 0.91 0.85
0.96 1.13 1.19 1.21 1.28 1.35 1.32 1.38 1.39 1.46 1.56 1.61 1.62 1.55 1.61 1.61 1.56 1.45 1.26 1.15 1.13 1.11 1.04 1.06 1.05 1.08 1.11 1.07 1.04 0.95 0.86 0.79
0.91 1.06 1.15 1.17 1.17 1.25 1.34 1.36 1.42 1.47 1.56 1.65 1.58 1.52 1.63 1.62 1.60 1.43 1.36 1.34 1.10 1.07 1.07 1.08 1.02 1.05 1.08 1.06 0.98 0.86 0.82 0.79
0.85 0.99 1.05 1.11 1.16 1.26 1.36 1.39 1.49 1.49 1.52 1.55 1.50 1.46 1.47 1.54 1.55 1.38 1.22 1.30 1.10 1.02 0.98 0.98 1.04 1.09 1.10 1.05 0.94 0.90 0.81 0.79
0.79 0.92 0.98 1.01 1.06 1.21 1.32 1.36 1.43 1.51 1.53 1.50 1.48 1.47 1.50 1.55 1.50 1.30 1.10 1.14 1.06 1.02 1.02 1.00 1.03 1.05 1.03 0.98 0.97 0.92 0.88 0.81
0.79 0.83 0.90 0.96 1.00 1.13 1.27 1.36 1.45 1.52 1.51 1.48 1.51 1.51 1.52 1.50 1.45 1.21 1.01 1.05 1.09 0.99 0.98 0.98 0.97 0.99 1.01 1.01 1.00 0.95 0.92 0.82
0.78 0.79 0.88 0.92 0.98 1.21 1.30 1.36 1.49 1.51 1.54 1.51 1.51 1.55 1.58 1.52 1.38 1.14 1.00 0.97 0.91 0.89 0.94 0.98 0.96 1.14 1.11 1.04 0.98 0.96 0.95 0.89
0.83 0.79 0.85 0.91 1.03 1.22 1.28 1.33 1.46 1.52 1.57 1.57 1.53 1.60 1.57 1.40 1.26 1.01 0.98 0.98 0.89 0.87 0.93 0.97 0.99 1.01 1.00 1.03 0.98 0.98 0.98 0.94
0.83 0.75 0.81 0.89 1.06 1.21 1.27 1.34 1.40 1.46 1.55 1.62 1.61 1.60 1.53 1.41 1.23 1.06 1.01 0.98 0.93 0.90 0.91 0.98 0.94 0.94 0.97 1.05 1.03 1.02 1.02 0.95
0.85 0.72 0.80 0.88 1.07 1.18 1.26 1.36 1.39 1.45 1.49 1.55 1.62 1.56 1.51 1.42 1.29 1.11 1.04 1.02 1.01 0.93 0.84 1.01 0.93 0.95 0.98 1.02 1.09 1.04 1.07 0.98
0.84 0.66 0.76 0.86 0.95 1.03 1.13 1.23 1.32 1.38 1.46 1.51 1.53 1.54 1.50 1.38 1.28 1.14 1.07 0.96 0.92 0.90 0.89 0.91 0.90 1.00 0.94 0.98 1.07 1.12 1.08 1.06
0.86 0.67 0.72 0.82 0.91 1.06 1.18 1.29 1.34 1.38 1.43 1.47 1.49 1.48 1.49 1.40 1.33 1.23 1.08 0.91 0.88 0.84 0.88 0.85 0.89 0.96 0.89 0.92 0.84 0.97 1.05 1.07
0.86 0.68 0.68 0.79 0.89 1.13 1.21 1.29 1.32 1.31 1.35 1.41 1.43 1.44 1.49 1.49 1.39 1.31 1.16 1.02 0.97 0.92 0.92 0.86 0.75 0.91 0.97 0.89 0.82 0.79 0.90 1.03
0.91 0.76 0.66 0.76 0.87 1.03 1.09 1.10 1.12 1.26 1.33 1.37 1.44 1.44 1.42 1.46 1.42 1.37 1.23 1.10 1.09 1.09 1.05 1.00 0.92 0.84 0.96 1.04 1.02 0.91 0.79 0.76
0.94 0.82 0.65 0.71 0.80 0.91 1.03 1.05 1.13 1.22 1.29 1.32 1.35 1.44 1.40 1.37 1.40 1.39 1.30 1.23 1.14 1.18 1.14 1.06 1.00 0.93 0.91 0.99 0.99 0.91 0.93 0.82
0.96 0.83 0.67 0.70 0.76 0.84 0.91 0.96 1.00 1.04 1.13 1.19 1.27 1.37 1.39 1.40 1.40 1.38 1.35 1.29 1.24 1.19 1.19 1.15 1.08 1.05 0.99 0.97 0.88 0.88 0.87 0.91
0.93 0.88 0.70 0.68 0.71 0.78 0.88 0.92 0.94 0.95 1.02 1.10 1.22 1.28 1.33 1.34 1.37 1.34 1.33 1.32 1.30 1.30 1.27 1.25 1.18 1.10 1.02 0.94 1.02 0.95 0.94 0.96
0.90 0.89 0.77 0.71 0.67 0.72 0.83 0.90 0.92 0.94 1.00 1.07 1.14 1.24 1.31 1.33 1.31 1.34 1.36 1.34 1.30 1.27 1.28 1.27 1.26 1.17 1.07 1.02 1.01 0.97 0.98 0.94

GFSFLT2_prec_pwat_072.txt.gz
Precipitable_Water
1.03 1.08 1.12 1.23 1.38 1.44 1.49 1.52 1.63 1.68 1.73 1.80 1.70 1.60 1.51 1.54 1.51 1.44 1.40 1.41 1.39 1.32 1.21 1.18 1.12 1.11 1.08 1.06 1.02 1.01 1.02 1.02
1.00 1.03 1.16 1.31 1.36 1.46 1.56 1.51 1.49 1.58 1.73 1.60 1.73 1.64 1.62 1.57 1.64 1.60 1.48 1.44 1.37 1.26 1.22 1.18 1.10 1.05 1.04 1.05 0.99 1.03 1.00 1.03
0.96 0.99 1.14 1.27 1.34 1.40 1.47 1.48 1.48 1.50 1.56 1.50 1.58 1.66 1.66 1.65 1.67 1.69 1.58 1.43 1.29 1.18 1.17 1.17 1.06 1.02 1.04 1.06 0.98 0.97 1.05 1.06
0.91 0.96 1.05 1.18 1.25 1.31 1.31 1.35 1.36 1.42 1.49 1.46 1.55 1.57 1.63 1.62 1.59 1.65 1.62 1.44 1.28 1.20 1.09 1.08 1.03 1.00 1.04 1.01 0.97 1.03 0.99 0.97
0.90 0.91 1.00 1.07 1.12 1.19 1.26 1.27 1.29 1.36 1.42 1.48 1.44 1.49 1.59 1.64 1.54 1.63 1.57 1.40 1.23 1.19 1.09 1.05 1.01 0.96 0.98 0.99 0.99 1.03 0.92 0.91
0.86 0.88 0.94 1.00 1.08 1.15 1.15 1.22 1.32 1.35 1.41 1.42 1.45 1.53 1.60 1.52 1.52 1.53 1.54 1.33 1.22 1.16 1.06 1.06 1.00 0.99 1.01 1.03 1.02 0.98 0.84 0.83
0.84 0.90 0.91 0.93 0.97 1.08 1.10 1.19 1.30 1.40 1.44 1.51 1.54 1.58 1.53 1.50 1.48 1.56 1.51 1.36 1.28 1.11 1.02 0.98 0.99 1.05 1.05 1.11 1.01 1.00 0.80 0.80
0.87 0.90 0.93 0.91 0.90 0.98 1.07 1.23 1.33 1.38 1.42 1.51 1.58 1.55 1.50 1.49 1.51 1.51 1.44 1.37 1.28 1.18 1.01 0.94 0.96 1.03 1.02 1.08 1.11 0.92 0.86 0.83
0.89 0.91 0.93 0.87 0.87 0.94 1.05 1.25 1.32 1.36 1.48 1.57 1.54 1.51 1.50 1.51 1.53 1.50 1.40 1.30 1.19 1.06 1.04 0.99 0.98 0.98 0.99 1.05 1.05 0.95 0.95 0.85
0.98 0.96 0.89 0.86 0.89 0.91 1.12 1.26 1.32 1.36 1.53 1.59 1.58 1.56 1.56 1.53 1.50 1.47 1.36 1.20 1.10 1.03 1.03 1.00 0.99 0.96 1.01 0.94 1.01 1.03 1.00 0.90
1.01 0.96 0.84 0.84 0.88 0.96 1.14 1.25 1.30 1.38 1.52 1.56 1.58 1.58 1.59 1.53 1.50 1.41 1.33 1.11 1.08 1.03 0.94 0.95 0.90 0.93 0.94 1.04 1.07 1.04 0.99 0.97
1.06 0.97 0.83 0.82 0.88 0.96 1.11 1.21 1.29 1.42 1.49 1.52 1.56 1.60 1.57 1.56 1.51 1.41 1.22 0.99 1.08 1.02 0.94 0.97 0.96 0.97 0.96 0.98 1.02 1.08 1.04 1.02
1.00 0.94 0.80 0.76 0.79 0.85 0.98 1.08 1.24 1.37 1.46 1.54 1.57 1.56 1.56 1.51 1.39 1.31 1.07 0.91 0.98 1.01 0.98 0.96 0.97 1.03 0.93 0.98 0.98 1.11 1.11 1.05
1.01 0.92 0.77 0.74 0.80 0.87 1.05 1.17 1.30 1.38 1.46 1.49 1.52 1.53 1.54 1.48 1.37 1.28 1.07 0.99 0.99 1.04 1.03 1.01 1.02 1.08 0.96 0.90 0.79 0.92 1.03 1.11
0.98 0.92 0.79 0.74 0.83 0.89 1.10 1.18 1.27 1.30 1.35 1.42 1.50 1.50 1.47 1.42 1.41 1.33 1.14 1.04 0.99 1.02 1.03 1.03 0.97 1.07 1.01 0.87 0.74 0.73 0.86 1.08
1.00 0.94 0.84 0.72 0.83 0.82 0.99 1.01 1.07 1.21 1.29 1.39 1.44 1.50 1.50 1.49 1.44 1.36 1.25 1.08 1.01 0.95 0.95 0.96 0.97 0.88 0.96 0.96 0.91 0.90 0.77 0.77
1.00 0.97 0.87 0.69 0.79 0.83 0.90 1.03 1.11 1.20 1.27 1.31 1.39 1.44 1.48 1.48 1.45 1.38 1.32 1.22 1.10 0.93 0.97 0.89 1.00 0.96 0.91 0.86 0.85 0.90 0.91 0.83
0.99 0.98 0.87 0.69 0.74 0.82 0.86 0.92 1.00 1.05 1.14 1.20 1.28 1.37 1.43 1.44 1.43 1.44 1.39 1.28 1.14 1.03 1.01 0.99 1.03 1.01 0.96 0.92 0.87 0.85 0.84 0.85
0.96 0.96 0.90 0.71 0.68 0.77 0.85 0.92 0.96 0.97 1.02 1.07 1.14 1.25 1.31 1.36 1.42 1.39 1.38 1.37 1.29 1.11 1.14 1.11 1.06 1.07 1.06 1.03 1.01 0.95 0.98 0.89
0.96 0.92 0.91 0.77 0.69 0.74 0.81 0.89 0.93 0.95 0.96 1.00 1.08 1.15 1.27 1.37 1.40 1.39 1.38 1.38 1.36 1.29 1.16 1.18 1.17 1.13 1.09 1.12 1.09 1.04 1.02 0.95

GFSFLT2_prec_pwat_075.txt.gz
Precipitable_Water
1.06 1.12 1.17 1.18 1.26 1.31 1.36 1.42 1.46 1.60 1.69 1.73 1.83 1.80 1.85 1.72 1.65 1.59 1.42 1.40 1.31 1.34 1.33 1.25 1.20 1.11 1.19 1.12 1.12 1.09 1.09 1.06
1.06 1.10 1.13 1.15 1.29 1.40 1.40 1.41 1.46 1.53 1.56 1.60 1.73 1.79 1.73 1.73 1.64 1.54 1.53 1.43 1.46 1.47 1.45 1.29 1.23 1.11 1.12 1.08 1.07 1.05 1.00 0.99
1.05 1.07 1.06 1.12 1.30 1.35 1.36 1.41 1.45 1.47 1.52 1.56 1.66 1.53 1.45 1.53 1.59 1.58 1.64 1.63 1.56 1.52 1.44 1.28 1.25 1.14 1.09 1.03 1.00 0.98 1.00 1.00
1.00 1.00 0.98 1.09 1.20 1.26 1.31 1.36 1.45 1.48 1.46 1.48 1.48 1.48 1.46 1.45 1.53 1.63 1.66 1.62 1.60 1.48 1.35 1.25 1.20 1.13 1.05 1.00 0.98 1.03 0.99 1.04
0.99 0.95 0.98 1.05 1.09 1.14 1.17 1.24 1.31 1.36 1.37 1.40 1.47 1.43 1.48 1.45 1.57 1.64 1.67 1.69 1.58 1.45 1.36 1.22 1.10 1.04 0.99 0.95 0.97 0.97 0.96 0.98
0.98 0.96 0.93 1.03 1.04 1.06 1.13 1.14 1.18 1.16 1.25 1.37 1.35 1.40 1.46 1.47 1.49 1.61 1.63 1.68 1.53 1.37 1.29 1.16 1.04 1.00 0.96 0.95 0.99 0.95 0.97 1.00
0.97 0.97 0.92 0.99 0.99 1.02 1.08 1.11 1.12 1.24 1.32 1.40 1.40 1.43 1.45 1.48 1.53 1.57 1.62 1.61 1.52 1.26 1.21 1.09 1.02 0.98 1.03 0.98 0.96 0.89 0.91 0.95
0.99 0.95 0.97 1.00 0.97 0.99 1.03 1.10 1.10 1.22 1.37 1.43 1.42 1.44 1.48 1.50 1.53 1.52 1.58 1.56 1.46 1.23 1.17 1.13 1.04 1.06 1.00 0.99 0.97 0.97 0.90 1.00
0.99 1.00 1.05 0.98 0.96 0.95 0.96 1.00 1.12 1.28 1.36 1.39 1.42 1.49 1.55 1.56 1.52 1.50 1.56 1.52 1.34 1.26 1.20 1.16 1.08 1.06 0.99 1.00 1.04 1.02 1.01 0.97
1.03 1.07 1.06 0.98 0.91 0.90 0.93 1.04 1.19 1.32 1.34 1.38 1.49 1.58 1.61 1.54 1.49 1.47 1.56 1.48 1.37 1.27 1.25 1.09 1.02 0.99 0.99 0.99 1.05 1.07 1.03 0.86
1.01 1.10 1.05 0.97 0.90 0.92 0.94 1.08 1.21 1.29 1.37 1.38 1.60 1.63 1.59 1.53 1.50 1.49 1.55 1.43 1.34 1.24 1.16 1.07 0.99 1.00 0.97 0.99 1.03 1.03 1.04 0.93
1.02 1.11 1.08 1.01 0.89 0.91 0.96 1.08 1.20 1.29 1.34 1.42 1.54 1.61 1.61 1.54 1.53 1.50 1.52 1.44 1.22 1.15 1.06 1.08 1.06 0.99 0.97 0.97 1.02 1.06 1.11 1.11
1.00 1.06 1.09 0.99 0.79 0.79 0.84 0.95 1.15 1.25 1.39 1.49 1.50 1.56 1.59 1.55 1.51 1.50 1.48 1.39 1.18 1.05 1.02 1.01 1.02 1.03 0.96 0.96 1.04 1.15 1.13 1.12
0.97 1.03 1.09 0.99 0.76 0.82 0.91 1.10 1.22 1.31 1.42 1.48 1.48 1.52 1.55 1.54 1.51 1.48 1.42 1.34 1.18 1.03 1.00 0.96 0.99 1.02 0.93 0.93 0.83 0.95 1.04 1.07
0.93 1.02 1.06 0.99 0.78 0.85 0.95 1.16 1.20 1.25 1.35 1.41 1.42 1.49 1.53 1.52 1.51 1.46 1.38 1.31 1.07 1.02 1.02 1.04 0.95 1.02 1.03 0.92 0.78 0.74 0.84 0.98
0.98 1.02 1.03 1.00 0.80 0.80 0.86 1.02 1.02 1.20 1.30 1.42 1.47 1.47 1.46 1.53 1.50 1.43 1.36 1.24 1.03 1.02 1.08 1.06 1.06 1.00 1.11 1.06 1.02 0.97 0.79 0.73
0.98 1.02 1.03 0.99 0.78 0.80 0.85 0.97 1.09 1.16 1.25 1.32 1.39 1.46 1.47 1.45 1.40 1.36 1.31 1.21 1.09 1.03 1.01 1.09 1.13 1.09 1.04 1.05 1.01 0.91 0.90 0.77
0.98 1.00 1.03 1.01 0.80 0.78 0.84 0.91 1.01 1.06 1.13 1.20 1.31 1.38 1.45 1.47 1.45 1.41 1.34 1.25 1.12 1.06 1.07 1.08 1.04 1.08 1.08 1.06 0.96 0.84 0.80 0.77
0.97 0.99 1.03 1.02 0.81 0.76 0.85 0.92 1.00 1.02 1.05 1.09 1.19 1.23 1.31 1.40 1.44 1.41 1.37 1.37 1.28 1.15 1.11 1.09 1.01 1.03 1.00 1.03 1.05 1.01 0.98 0.88
0.95 0.99 1.01 1.00 0.82 0.74 0.83 0.90 0.96 1.00 1.03 1.06 1.08 1.12 1.26 1.39 1.42 1.42 1.42 1.39 1.35 1.30 1.14 1.04 1.03 1.03 0.99 1.07 1.06 1.08 1.03 1.03

GFSFLT2_prec_pwat_081.txt.gz
Precipitable_Water
1.13 1.03 1.02 1.03 1.06 1.05 1.03 1.12 1.23 1.29 1.41 1.45 1.57 1.76 1.79 2.03 1.87 1.79 1.76 1.76 1.72 1.68 1.57 1.49 1.45 1.35 1.30 1.26 1.20 1.23 1.44 1.49
1.16 1.11 1.09 1.09 1.10 1.06 1.04 1.10 1.23 1.25 1.31 1.34 1.43 1.57 1.74 1.77 1.76 1.85 1.80 1.70 1.74 1.73 1.54 1.43 1.42 1.35 1.25 1.21 1.16 1.14 1.24 1.22
1.13 1.11 1.11 1.16 1.14 1.11 1.07 1.16 1.19 1.27 1.29 1.33 1.39 1.52 1.60 1.63 1.62 1.75 1.83 1.72 1.73 1.74 1.47 1.40 1.46 1.39 1.25 1.18 1.16 1.05 1.12 1.18
1.21 1.13 1.12 1.16 1.15 1.21 1.19 1.24 1.20 1.26 1.30 1.42 1.45 1.54 1.58 1.61 1.57 1.48 1.61 1.66 1.59 1.65 1.53 1.46 1.49 1.48 1.40 1.22 1.11 1.18 1.06 1.14
1.20 1.18 1.15 1.14 1.11 1.17 1.25 1.24 1.19 1.24 1.34 1.45 1.48 1.53 1.55 1.47 1.54 1.59 1.56 1.60 1.60 1.59 1.59 1.52 1.53 1.45 1.36 1.14 1.16 1.20 1.08 1.11
1.19 1.23 1.17 1.15 1.14 1.17 1.19 1.19 1.20 1.19 1.26 1.36 1.45 1.40 1.40 1.40 1.48 1.47 1.50 1.52 1.56 1.62 1.58 1.62 1.53 1.45 1.36 1.15 1.16 1.03 1.13 1.13
1.17 1.21 1.16 1.12 1.08 1.13 1.16 1.17 1.20 1.21 1.23 1.27 1.42 1.31 1.31 1.37 1.41 1.41 1.44 1.50 1.53 1.59 1.59 1.61 1.53 1.43 1.33 1.12 1.07 1.05 1.03 1.06
1.18 1.17 1.14 1.11 1.06 1.13 1.14 1.13 1.14 1.14 1.16 1.20 1.24 1.30 1.29 1.30 1.32 1.36 1.45 1.51 1.58 1.61 1.62 1.58 1.47 1.42 1.31 1.12 1.04 1.01 0.94 0.93
1.16 1.17 1.16 1.14 1.11 1.13 1.10 1.07 1.11 1.10 1.13 1.19 1.27 1.28 1.32 1.37 1.36 1.34 1.38 1.51 1.58 1.60 1.63 1.58 1.43 1.38 1.21 1.12 1.03 0.93 0.85 0.88
1.18 1.17 1.12 1.15 1.13 1.18 1.06 1.03 1.07 1.05 1.09 1.16 1.22 1.29 1.38 1.37 1.36 1.34 1.48 1.53 1.59 1.61 1.55 1.47 1.38 1.29 1.12 1.02 0.95 0.89 0.86 0.88
1.12 1.11 1.08 1.14 1.17 1.16 1.06 1.00 0.97 1.03 1.10 1.15 1.19 1.25 1.40 1.45 1.39 1.39 1.51 1.50 1.55 1.56 1.50 1.42 1.33 1.21 1.08 1.02 0.95 0.91 0.88 0.90
1.11 1.08 1.13 1.18 1.16 1.16 1.10 0.90 0.90 0.95 1.00 1.10 1.22 1.35 1.37 1.45 1.41 1.46 1.50 1.47 1.51 1.53 1.43 1.40 1.24 1.22 1.11 1.04 1.04 1.00 0.93 0.91
1.04 1.04 1.12 1.13 1.07 1.06 0.98 0.76 0.81 0.86 0.99 1.13 1.23 1.31 1.37 1.40 1.43 1.50 1.52 1.45 1.49 1.50 1.41 1.30 1.20 1.18 1.11 1.05 1.07 1.08 1.02 0.96
1.01 1.05 1.10 1.10 1.10 1.10 1.02 0.84 0.83 0.89 1.11 1.21 1.27 1.33 1.42 1.38 1.47 1.51 1.53 1.45 1.45 1.45 1.42 1.29 1.18 1.24 1.05 1.01 0.91 0.98 1.02 0.98
0.98 1.05 1.07 1.08 1.11 1.09 1.04 0.88 0.85 0.88 1.08 1.16 1.29 1.44 1.46 1.47 1.48 1.48 1.48 1.47 1.42 1.39 1.37 1.27 1.17 1.24 1.12 0.93 0.83 0.75 0.83 0.98
1.02 1.05 1.05 1.10 1.14 1.02 0.97 0.78 0.67 0.84 1.03 1.17 1.31 1.45 1.49 1.48 1.44 1.48 1.46 1.49 1.43 1.31 1.39 1.34 1.27 1.10 1.14 1.09 1.00 0.89 0.79 0.79
1.02 1.07 1.05 1.10 1.11 1.03 0.96 0.76 0.81 0.87 1.03 1.11 1.22 1.37 1.41 1.43 1.48 1.49 1.47 1.46 1.45 1.42 1.38 1.33 1.27 1.13 1.04 1.05 1.02 0.99 1.00 0.93
0.99 1.03 1.04 1.11 1.12 1.05 0.94 0.75 0.76 0.83 0.96 1.04 1.14 1.31 1.38 1.41 1.48 1.48 1.49 1.47 1.44 1.42 1.37 1.30 1.25 1.19 1.08 1.04 1.04 1.00 0.98 0.91
0.95 1.01 0.98 1.11 1.09 1.05 0.96 0.80 0.81 0.85 0.95 1.01 1.10 1.21 1.28 1.34 1.42 1.45 1.45 1.49 1.46 1.45 1.37 1.30 1.23 1.16 1.12 1.04 1.05 1.06 1.08 1.05
0.96 1.00 0.98 1.09 1.09 1.06 0.99 0.84 0.84 0.91 0.99 1.01 1.07 1.14 1.25 1.35 1.41 1.43 1.42 1.45 1.45 1.43 1.37 1.27 1.24 1.15 1.10 1.11 1.14 1.13 1.15 1.17

GFSFLT2_prec_pwat_087.txt.gz
Precipitable_Water
0.99 0.91 0.90 0.94 0.97 0.98 0.99 0.99 1.02 1.08 1.14 1.19 1.27 1.32 1.37 1.43 1.50 1.54 1.64 1.82 1.89 1.86 1.79 1.73 1.60 1.56 1.46 1.39 1.43 1.48 1.47 1.46
1.00 0.94 0.92 0.94 0.98 1.01 1.02 1.01 1.00 1.03 1.08 1.19 1.30 1.30 1.35 1.40 1.47 1.52 1.60 1.49 1.56 1.89 1.84 1.77 1.64 1.57 1.50 1.46 1.38 1.39 1.42 1.47
1.06 0.98 0.93 0.95 0.97 1.02 1.04 1.03 1.02 1.02 1.11 1.20 1.23 1.24 1.28 1.36 1.46 1.55 1.49 1.39 1.41 1.59 1.89 1.75 1.63 1.57 1.56 1.42 1.41 1.42 1.50 1.39
1.06 1.09 1.01 1.00 1.02 1.04 1.04 1.02 1.03 1.04 1.08 1.11 1.16 1.23 1.29 1.35 1.40 1.44 1.42 1.44 1.53 1.58 1.88 1.73 1.63 1.54 1.49 1.46 1.36 1.36 1.27 1.35
1.08 1.14 1.13 1.08 1.04 1.09 1.08 1.04 1.03 1.05 1.06 1.09 1.14 1.21 1.27 1.33 1.41 1.44 1.49 1.53 1.52 1.53 1.75 1.68 1.59 1.50 1.43 1.36 1.41 1.37 1.15 1.25
1.12 1.16 1.19 1.10 1.12 1.10 1.10 1.09 1.11 1.06 1.10 1.12 1.16 1.17 1.24 1.31 1.39 1.43 1.42 1.43 1.47 1.54 1.62 1.61 1.57 1.49 1.40 1.32 1.38 1.37 1.39 1.25
1.16 1.21 1.24 1.17 1.09 1.13 1.11 1.13 1.13 1.12 1.11 1.15 1.20 1.20 1.17 1.24 1.33 1.39 1.34 1.36 1.38 1.45 1.45 1.54 1.51 1.51 1.40 1.34 1.37 1.39 1.33 1.20
1.28 1.23 1.29 1.27 1.06 1.09 1.12 1.18 1.20 1.19 1.16 1.15 1.17 1.18 1.16 1.22 1.26 1.31 1.31 1.34 1.40 1.38 1.34 1.40 1.51 1.52 1.48 1.37 1.38 1.38 1.36 1.20
1.13 1.44 1.37 1.30 1.12 1.11 1.16 1.21 1.18 1.17 1.17 1.15 1.15 1.14 1.13 1.19 1.22 1.24 1.35 1.36 1.39 1.40 1.36 1.39 1.44 1.54 1.56 1.43 1.38 1.36 1.34 1.22
0.99 1.30 1.36 1.35 1.30 1.15 1.15 1.21 1.20 1.19 1.19 1.16 1.12 1.08 1.07 1.12 1.20 1.23 1.38 1.40 1.38 1.36 1.36 1.36 1.41 1.49 1.51 1.46 1.39 1.37 1.25 1.18
0.91 1.15 1.20 1.24 1.37 1.24 1.11 1.13 1.17 1.23 1.22 1.16 1.06 1.02 1.07 1.08 1.15 1.26 1.37 1.40 1.40 1.38 1.32 1.31 1.39 1.48 1.49 1.46 1.34 1.33 1.25 1.12
0.92 1.07 1.14 1.26 1.37 1.23 1.13 1.09 1.11 1.20 1.19 1.08 0.96 0.96 1.07 1.11 1.18 1.22 1.35 1.38 1.32 1.34 1.23 1.35 1.44 1.52 1.46 1.37 1.31 1.25 1.20 1.13
0.88 1.07 1.14 1.19 1.18 1.11 1.06 0.98 1.05 1.12 1.17 1.11 0.95 0.91 1.02 1.13 1.21 1.25 1.30 1.31 1.31 1.30 1.28 1.34 1.41 1.51 1.38 1.31 1.26 1.21 1.10 1.02
0.90 1.05 1.13 1.15 1.15 1.16 1.09 1.03 1.05 1.09 1.14 1.05 0.92 0.92 1.08 1.23 1.25 1.27 1.34 1.30 1.28 1.27 1.32 1.33 1.44 1.45 1.27 1.21 1.06 1.09 1.04 1.01
0.93 1.08 1.13 1.14 1.19 1.20 1.10 1.06 1.04 1.04 1.05 0.96 0.81 0.93 1.14 1.24 1.27 1.33 1.32 1.35 1.28 1.28 1.31 1.33 1.32 1.38 1.35 1.16 1.02 0.92 0.94 0.99
1.05 1.12 1.16 1.13 1.20 1.09 0.96 0.91 0.89 0.99 0.99 0.90 0.85 1.01 1.18 1.24 1.33 1.37 1.36 1.36 1.32 1.33 1.38 1.40 1.38 1.25 1.33 1.27 1.19 1.08 0.85 0.83
1.02 1.08 1.07 1.08 1.11 1.02 0.98 0.97 1.03 1.04 0.99 0.89 0.88 1.05 1.16 1.24 1.33 1.34 1.37 1.39 1.40 1.36 1.42 1.41 1.40 1.33 1.25 1.21 1.15 1.10 1.09 0.96
0.99 0.97 0.98 1.07 1.08 1.01 1.02 1.03 1.02 1.00 0.91 0.82 0.86 1.02 1.14 1.23 1.31 1.35 1.40 1.39 1.39 1.40 1.44 1.43 1.43 1.36 1.31 1.25 1.14 1.05 1.02 0.99
0.92 0.93 0.91 1.03 1.05 1.00 1.06 1.09 1.05 1.01 0.93 0.82 0.86 0.96 1.05 1.14 1.25 1.31 1.37 1.42 1.43 1.46 1.45 1.44 1.40 1.34 1.32 1.26 1.24 1.13 1.16 1.11
0.96 0.97 0.98 1.03 1.05 1.05 1.12 1.11 1.12 1.10 0.98 0.88 0.90 0.97 1.04 1.13 1.18 1.29 1.37 1.43 1.46 1.47 1.45 1.44 1.43 1.39 1.34 1.32 1.24 1.19 1.22 1.15

GFSFLT2_prec_pwat_090.txt.gz
Precipitable_Water
0.92 0.94 0.93 0.94 0.93 0.93 0.93 0.96 0.99 1.03 1.07 1.09 1.10 1.21 1.25 1.27 1.29 1.34 1.40 1.51 1.60 1.69 1.69 1.77 1.69 1.67 1.54 1.42 1.36 1.40 1.43 1.47
0.93 0.92 0.93 0.96 0.97 0.96 0.96 0.99 0.99 1.02 1.05 1.07 1.09 1.21 1.27 1.26 1.29 1.31 1.36 1.46 1.55 1.65 1.60 1.69 1.74 1.69 1.62 1.47 1.41 1.47 1.50 1.47
1.00 0.94 0.93 0.97 0.99 0.99 1.00 1.02 1.03 1.01 1.04 1.07 1.11 1.22 1.28 1.31 1.29 1.32 1.37 1.48 1.55 1.50 1.48 1.56 1.83 1.72 1.63 1.50 1.48 1.43 1.51 1.50
1.04 0.93 0.91 0.97 1.01 1.02 1.03 1.03 1.04 1.00 1.05 1.10 1.12 1.19 1.20 1.26 1.32 1.41 1.40 1.46 1.40 1.45 1.45 1.56 1.75 1.71 1.68 1.56 1.49 1.41 1.47 1.43
1.10 1.05 1.00 0.93 0.97 1.01 1.05 1.05 1.02 1.01 1.08 1.09 1.08 1.10 1.15 1.22 1.30 1.36 1.39 1.40 1.41 1.46 1.53 1.60 1.69 1.68 1.67 1.56 1.48 1.46 1.49 1.47
1.01 1.04 1.06 1.10 1.01 1.02 1.04 1.01 1.02 1.00 1.05 1.07 1.03 1.02 1.08 1.17 1.23 1.32 1.34 1.36 1.37 1.39 1.40 1.51 1.64 1.65 1.63 1.50 1.47 1.38 1.37 1.37
1.04 1.03 1.12 1.14 1.13 1.06 1.09 1.06 1.04 1.04 1.06 1.11 1.08 1.02 1.05 1.13 1.20 1.27 1.33 1.40 1.38 1.32 1.39 1.50 1.55 1.60 1.59 1.47 1.40 1.39 1.40 1.39
0.96 1.06 1.28 1.31 1.21 1.13 1.06 1.11 1.11 1.11 1.12 1.12 1.11 1.10 1.06 1.07 1.13 1.19 1.27 1.40 1.37 1.32 1.31 1.34 1.44 1.56 1.55 1.49 1.41 1.38 1.43 1.47
0.80 0.96 1.24 1.29 1.34 1.30 1.10 1.11 1.16 1.16 1.15 1.18 1.14 1.13 1.08 1.06 1.09 1.11 1.20 1.30 1.36 1.37 1.35 1.38 1.38 1.50 1.56 1.52 1.50 1.42 1.44 1.44
0.73 0.87 1.04 1.25 1.40 1.44 1.27 1.15 1.14 1.19 1.18 1.21 1.18 1.17 1.12 1.03 1.02 1.04 1.16 1.22 1.34 1.34 1.33 1.29 1.31 1.37 1.43 1.49 1.51 1.50 1.44 1.44
0.65 0.79 0.89 1.01 1.31 1.42 1.50 1.26 1.14 1.20 1.19 1.21 1.21 1.18 1.12 0.98 0.91 1.02 1.12 1.19 1.31 1.39 1.37 1.31 1.26 1.30 1.38 1.45 1.50 1.47 1.42 1.40
0.64 0.76 0.85 1.00 1.28 1.44 1.55 1.37 1.19 1.24 1.19 1.20 1.23 1.18 1.12 0.98 0.93 0.97 1.10 1.17 1.28 1.35 1.36 1.40 1.34 1.31 1.37 1.44 1.46 1.44 1.42 1.38
0.63 0.76 0.87 0.99 1.20 1.30 1.35 1.24 1.18 1.17 1.19 1.23 1.22 1.16 1.06 0.97 0.94 0.98 1.09 1.15 1.26 1.39 1.35 1.30 1.28 1.30 1.33 1.38 1.37 1.41 1.38 1.35
0.70 0.75 0.83 0.93 1.11 1.28 1.23 1.21 1.17 1.08 1.13 1.19 1.20 1.16 1.07 0.95 0.95 1.05 1.17 1.22 1.26 1.30 1.29 1.20 1.21 1.32 1.28 1.28 1.11 1.22 1.31 1.31
0.75 0.79 0.80 0.93 1.09 1.28 1.24 1.26 1.20 1.05 1.05 1.08 1.16 1.18 1.03 0.95 1.01 1.17 1.24 1.27 1.27 1.32 1.28 1.23 1.14 1.30 1.38 1.25 1.06 0.99 1.13 1.25
0.78 0.80 0.83 0.95 1.10 1.25 1.12 1.02 0.94 0.94 0.96 1.07 1.10 1.11 1.00 0.96 1.10 1.22 1.24 1.32 1.31 1.31 1.32 1.27 1.20 1.16 1.35 1.35 1.29 1.20 1.03 0.99
0.82 0.84 0.87 0.95 1.14 1.23 1.14 1.07 1.03 0.97 0.99 1.03 1.05 0.96 0.93 0.98 1.10 1.18 1.20 1.28 1.32 1.35 1.31 1.27 1.27 1.25 1.26 1.29 1.23 1.22 1.17 0.96
0.97 0.91 0.87 1.09 1.23 1.19 1.11 1.05 0.96 0.92 0.97 1.00 0.99 0.93 0.89 1.01 1.11 1.18 1.27 1.28 1.31 1.32 1.34 1.35 1.30 1.35 1.31 1.28 1.20 1.14 1.08 1.02
1.06 1.11 1.06 1.20 1.19 1.12 1.09 1.07 0.97 0.94 1.00 1.01 0.94 0.86 0.85 0.99 1.12 1.17 1.23 1.29 1.34 1.39 1.37 1.37 1.34 1.36 1.34 1.28 1.25 1.21 1.16 1.11
0.99 1.21 1.17 1.11 1.06 1.06 1.13 1.09 1.01 1.03 1.04 1.04 0.96 0.85 0.91 1.04 1.11 1.17 1.23 1.30 1.37 1.42 1.41 1.38 1.40 1.36 1.35 1.33 1.29 1.26 1.19 1.13

GFSFLT2_prec_pwat_096.txt.gz
Precipitable_Water
1.12 1.15 1.15 1.13 1.11 1.09 1.09 1.08 1.10 1.10 1.10 1.11 1.13 1.17 1.19 1.21 1.23 1.28 1.30 1.31 1.33 1.35 1.38 1.43 1.49 1.54 1.62 1.63 1.60 1.60 1.54 1.52
1.16 1.18 1.15 1.11 1.07 1.03 1.01 1.02 1.05 1.06 1.07 1.10 1.12 1.16 1.19 1.21 1.25 1.27 1.27 1.29 1.33 1.34 1.36 1.42 1.47 1.51 1.61 1.73 1.61 1.57 1.57 1.54
1.17 1.13 1.13 1.11 1.09 1.04 1.03 1.02 1.01 1.05 1.08 1.09 1.13 1.14 1.17 1.19 1.24 1.28 1.28 1.29 1.34 1.34 1.36 1.38 1.44 1.49 1.50 1.60 1.56 1.54 1.52 1.55
1.13 1.08 1.06 1.05 1.05 1.07 1.05 1.04 1.04 1.04 1.07 1.09 1.09 1.11 1.14 1.18 1.23 1.29 1.29 1.30 1.34 1.35 1.39 1.44 1.46 1.50 1.50 1.48 1.47 1.53 1.60 1.52
1.19 1.15 1.08 1.01 1.01 1.08 1.06 1.05 1.04 1.04 1.03 1.06 1.06 1.09 1.13 1.17 1.21 1.26 1.27 1.31 1.32 1.36 1.37 1.37 1.39 1.41 1.44 1.43 1.48 1.49 1.61 1.56
1.27 1.18 1.19 1.11 1.05 1.02 1.06 1.02 1.02 0.99 1.01 1.04 1.02 1.04 1.07 1.11 1.15 1.22 1.23 1.30 1.29 1.30 1.33 1.36 1.40 1.42 1.39 1.39 1.48 1.47 1.60 1.63
1.35 1.43 1.30 1.25 1.15 1.08 1.05 1.04 1.01 1.02 1.05 1.01 1.02 1.01 1.03 1.10 1.13 1.19 1.19 1.29 1.29 1.26 1.27 1.31 1.33 1.35 1.35 1.43 1.51 1.52 1.62 1.64
0.97 1.32 1.42 1.42 1.28 1.18 1.07 1.05 1.01 1.04 1.05 1.06 1.02 1.02 1.05 1.06 1.10 1.12 1.14 1.23 1.25 1.25 1.24 1.21 1.27 1.32 1.29 1.40 1.56 1.54 1.64 1.64
0.56 0.79 1.25 1.38 1.28 1.11 1.15 1.16 1.15 1.09 1.08 1.10 1.08 1.04 1.06 1.05 1.10 1.11 1.12 1.20 1.21 1.23 1.18 1.21 1.24 1.30 1.30 1.45 1.49 1.51 1.61 1.63
0.45 0.64 0.76 0.97 1.25 1.18 1.21 1.22 1.20 1.21 1.24 1.15 1.12 1.06 1.09 1.07 1.09 1.11 1.14 1.13 1.15 1.12 1.12 1.13 1.17 1.23 1.29 1.41 1.47 1.55 1.58 1.61
0.45 0.59 0.69 0.76 1.04 1.21 1.21 1.26 1.25 1.24 1.37 1.23 1.13 1.10 1.12 1.10 1.10 1.14 1.17 1.09 1.07 1.08 1.08 1.13 1.10 1.18 1.27 1.33 1.36 1.42 1.55 1.57
0.45 0.55 0.70 0.76 0.88 1.16 1.19 1.23 1.24 1.30 1.42 1.32 1.16 1.15 1.15 1.15 1.16 1.16 1.18 1.07 1.00 1.03 1.05 1.12 1.11 1.17 1.25 1.31 1.36 1.42 1.48 1.51
0.44 0.48 0.64 0.80 0.87 0.98 1.07 1.07 1.11 1.17 1.33 1.43 1.25 1.22 1.21 1.20 1.19 1.17 1.18 1.04 0.95 1.00 1.05 1.00 1.09 1.21 1.22 1.26 1.31 1.42 1.48 1.50
0.55 0.48 0.60 0.74 0.84 0.90 1.06 1.01 1.11 1.12 1.28 1.42 1.46 1.30 1.28 1.24 1.22 1.18 1.16 1.01 0.96 0.96 1.00 0.99 1.08 1.21 1.13 1.18 1.04 1.17 1.34 1.41
0.58 0.58 0.62 0.72 0.86 0.92 0.93 1.05 1.06 1.07 1.14 1.21 1.54 1.50 1.34 1.30 1.29 1.22 1.17 1.04 0.91 0.94 1.00 1.08 1.05 1.18 1.27 1.18 1.03 0.95 1.13 1.29
0.63 0.65 0.67 0.84 0.95 0.92 0.82 0.74 0.78 0.88 0.98 1.23 1.52 1.56 1.34 1.32 1.32 1.24 1.16 0.99 0.93 0.93 1.12 1.15 1.15 1.08 1.25 1.30 1.25 1.15 1.00 0.91
0.68 0.74 0.73 0.89 0.92 0.96 0.86 0.78 0.82 0.89 1.06 1.00 1.07 1.37 1.40 1.32 1.32 1.19 1.12 0.99 0.96 1.01 1.13 1.18 1.21 1.22 1.22 1.22 1.21 1.16 1.09 1.01
0.75 0.78 0.75 0.87 0.93 0.98 0.91 0.82 0.84 0.91 1.03 1.08 1.19 1.26 1.37 1.31 1.28 1.19 1.13 0.98 0.97 1.04 1.17 1.20 1.22 1.26 1.27 1.26 1.19 1.10 1.04 1.00
0.77 0.80 0.77 0.90 0.94 0.99 0.97 0.95 0.91 0.94 1.00 1.13 1.18 1.20 1.23 1.19 1.19 1.19 1.06 0.95 0.99 1.05 1.14 1.19 1.22 1.23 1.25 1.23 1.25 1.20 1.16 1.10
0.81 0.81 0.80 0.97 1.00 1.03 1.05 1.02 0.99 1.04 1.14 1.18 1.23 1.17 1.15 1.17 1.18 1.17 1.05 0.96 1.02 1.09 1.09 1.14 1.22 1.22 1.23 1.25 1.22 1.20 1.21 1.18

GFSFLT2_prec_pwat_099.txt.gz
Precipitable_Water
1.29 1.29 1.27 1.25 1.25 1.24 1.19 1.17 1.15 1.10 1.10 1.12 1.15 1.18 1.20 1.23 1.26 1.26 1.32 1.36 1.39 1.39 1.40 1.40 1.41 1.44 1.48 1.49 1.52 1.58 1.58 1.61
1.37 1.39 1.29 1.30 1.29 1.24 1.22 1.20 1.15 1.12 1.12 1.11 1.11 1.14 1.18 1.19 1.24 1.26 1.28 1.38 1.38 1.37 1.36 1.37 1.42 1.44 1.45 1.41 1.48 1.54 1.64 1.67
1.42 1.32 1.34 1.31 1.27 1.27 1.24 1.20 1.15 1.14 1.13 1.14 1.13 1.16 1.17 1.18 1.21 1.24 1.25 1.30 1.34 1.37 1.37 1.39 1.43 1.47 1.45 1.47 1.48 1.51 1.56 1.66
1.36 1.31 1.36 1.32 1.28 1.26 1.23 1.20 1.17 1.13 1.15 1.16 1.16 1.14 1.15 1.18 1.20 1.23 1.26 1.27 1.31 1.37 1.37 1.40 1.45 1.47 1.48 1.48 1.49 1.49 1.49 1.57
1.25 1.32 1.35 1.26 1.23 1.23 1.21 1.16 1.16 1.11 1.10 1.15 1.18 1.15 1.13 1.14 1.17 1.22 1.26 1.27 1.32 1.34 1.36 1.40 1.45 1.46 1.42 1.44 1.43 1.40 1.39 1.48
1.31 1.24 1.27 1.28 1.26 1.16 1.15 1.14 1.11 1.08 1.09 1.13 1.13 1.09 1.07 1.05 1.09 1.14 1.20 1.23 1.26 1.34 1.37 1.40 1.43 1.44 1.41 1.40 1.39 1.33 1.37 1.39
1.04 1.30 1.36 1.29 1.21 1.19 1.14 1.10 1.10 1.09 1.10 1.13 1.11 1.07 1.01 1.04 1.08 1.11 1.16 1.23 1.26 1.29 1.34 1.37 1.36 1.39 1.44 1.40 1.33 1.32 1.39 1.46
0.78 0.92 1.25 1.39 1.43 1.33 1.27 1.19 1.11 1.13 1.14 1.14 1.15 1.10 1.06 1.02 1.07 1.08 1.12 1.20 1.26 1.29 1.30 1.30 1.33 1.36 1.34 1.37 1.34 1.35 1.41 1.52
0.49 0.76 0.88 1.09 1.25 1.36 1.33 1.31 1.22 1.13 1.11 1.15 1.17 1.17 1.11 1.07 1.07 1.07 1.13 1.17 1.21 1.27 1.26 1.29 1.29 1.34 1.26 1.31 1.34 1.38 1.48 1.56
0.48 0.47 0.70 0.86 1.09 1.27 1.38 1.36 1.21 1.18 1.19 1.22 1.22 1.21 1.18 1.10 1.10 1.08 1.13 1.12 1.15 1.16 1.18 1.17 1.23 1.20 1.21 1.22 1.32 1.43 1.44 1.52
0.50 0.49 0.48 0.65 0.76 0.89 1.11 1.38 1.26 1.20 1.21 1.21 1.27 1.24 1.22 1.15 1.11 1.11 1.13 1.11 1.10 1.08 1.09 1.12 1.12 1.17 1.20 1.20 1.30 1.36 1.37 1.48
0.54 0.52 0.46 0.55 0.74 0.83 0.92 1.04 1.22 1.28 1.17 1.19 1.30 1.30 1.25 1.19 1.13 1.15 1.13 1.09 1.07 1.05 1.01 1.06 1.11 1.15 1.14 1.15 1.27 1.35 1.40 1.47
0.54 0.53 0.55 0.51 0.72 0.72 0.78 0.82 0.98 1.16 1.18 1.18 1.28 1.32 1.32 1.20 1.12 1.16 1.12 1.07 1.06 1.06 0.99 0.99 1.03 1.15 1.04 1.06 1.17 1.30 1.40 1.37
0.63 0.57 0.57 0.57 0.69 0.78 0.77 0.82 0.94 1.18 1.23 1.23 1.28 1.28 1.38 1.26 1.18 1.16 1.14 1.10 1.09 1.07 0.97 0.95 1.00 1.11 0.89 0.98 0.93 1.12 1.30 1.37
0.66 0.64 0.60 0.63 0.63 0.87 0.93 0.99 1.01 1.11 1.18 1.14 1.21 1.31 1.45 1.42 1.32 1.24 1.17 1.15 1.08 1.08 1.00 0.94 0.89 1.02 1.03 1.02 0.86 0.88 1.13 1.35
0.70 0.69 0.66 0.65 0.71 0.82 0.87 0.82 0.80 0.87 1.03 1.10 1.17 1.28 1.34 1.48 1.48 1.41 1.28 1.22 1.16 1.12 1.01 0.96 1.02 0.94 1.08 1.14 1.14 1.14 1.06 1.00
0.78 0.73 0.71 0.69 0.75 0.75 0.88 0.86 0.90 0.97 1.00 0.98 1.06 1.17 1.23 1.15 1.05 1.55 1.40 1.29 1.24 1.12 1.00 0.97 1.03 1.06 1.09 1.08 1.09 1.18 1.22 1.10
0.79 0.74 0.74 0.75 0.80 0.77 0.91 0.92 0.95 0.93 0.90 0.90 1.02 1.10 1.11 1.12 1.19 1.27 1.41 1.34 1.23 1.10 0.99 1.02 1.06 1.14 1.16 1.16 1.13 1.12 1.11 1.10
0.79 0.80 0.75 0.79 0.84 0.88 1.00 1.02 1.06 0.97 0.93 0.89 0.95 0.96 0.99 1.08 1.17 1.37 1.35 1.32 1.22 1.13 1.00 1.03 1.07 1.12 1.15 1.17 1.26 1.29 1.26 1.21
0.83 0.83 0.79 0.83 0.91 0.99 1.02 1.08 1.12 1.09 1.06 0.99 0.96 1.00 1.12 1.24 1.31 1.40 1.37 1.28 1.22 1.13 0.99 1.09 1.09 1.14 1.16 1.18 1.21 1.27 1.31 1.25

GFSFLT2_prec_pwat_105.txt.gz
Precipitable_Water
1.40 1.38 1.29 1.29 1.28 1.26 1.27 1.28 1.28 1.25 1.24 1.30 1.31 1.32 1.32 1.30 1.30 1.30 1.30 1.29 1.34 1.38 1.37 1.33 1.30 1.35 1.41 1.45 1.47 1.45 1.44 1.47
1.45 1.41 1.32 1.32 1.34 1.30 1.28 1.28 1.29 1.26 1.24 1.28 1.29 1.30 1.30 1.30 1.32 1.32 1.30 1.31 1.33 1.33 1.34 1.35 1.33 1.38 1.39 1.42 1.48 1.51 1.42 1.52
1.46 1.47 1.39 1.38 1.42 1.40 1.36 1.33 1.32 1.28 1.27 1.29 1.30 1.30 1.32 1.31 1.30 1.32 1.28 1.29 1.27 1.34 1.38 1.36 1.34 1.36 1.39 1.43 1.51 1.55 1.47 1.42
1.44 1.47 1.46 1.43 1.50 1.54 1.46 1.40 1.40 1.34 1.30 1.31 1.31 1.30 1.32 1.32 1.31 1.31 1.32 1.27 1.23 1.26 1.35 1.37 1.34 1.38 1.43 1.47 1.47 1.51 1.50 1.55
1.39 1.54 1.52 1.51 1.48 1.54 1.55 1.46 1.44 1.39 1.35 1.34 1.31 1.31 1.34 1.34 1.36 1.35 1.31 1.33 1.26 1.25 1.29 1.31 1.28 1.28 1.38 1.38 1.48 1.50 1.49 1.56
1.39 1.51 1.56 1.62 1.62 1.58 1.59 1.50 1.47 1.37 1.39 1.40 1.34 1.29 1.26 1.31 1.26 1.34 1.30 1.30 1.26 1.26 1.20 1.23 1.29 1.30 1.31 1.32 1.43 1.56 1.55 1.51
0.74 1.23 1.46 1.59 1.62 1.61 1.58 1.50 1.47 1.36 1.36 1.37 1.32 1.29 1.24 1.28 1.30 1.34 1.34 1.27 1.29 1.25 1.27 1.24 1.24 1.30 1.38 1.39 1.41 1.47 1.50 1.46
0.66 0.70 1.07 1.40 1.49 1.60 1.55 1.47 1.45 1.39 1.36 1.30 1.30 1.26 1.24 1.24 1.27 1.30 1.28 1.34 1.32 1.30 1.32 1.32 1.23 1.25 1.31 1.40 1.39 1.44 1.43 1.40
0.74 0.74 0.74 0.92 1.29 1.42 1.48 1.46 1.45 1.38 1.36 1.35 1.22 1.26 1.23 1.22 1.21 1.23 1.22 1.35 1.31 1.33 1.29 1.30 1.30 1.26 1.25 1.30 1.34 1.35 1.37 1.35
0.73 0.77 0.78 0.82 0.84 1.09 1.33 1.35 1.44 1.48 1.40 1.35 1.28 1.21 1.23 1.23 1.26 1.21 1.26 1.23 1.29 1.26 1.28 1.21 1.23 1.20 1.16 1.23 1.27 1.34 1.33 1.34
0.66 0.70 0.74 0.78 0.79 0.80 0.92 1.20 1.31 1.41 1.50 1.45 1.40 1.36 1.30 1.20 1.18 1.19 1.24 1.22 1.24 1.21 1.21 1.20 1.18 1.15 1.14 1.16 1.21 1.28 1.29 1.29
0.61 0.62 0.64 0.70 0.73 0.73 0.70 0.78 1.07 1.20 1.33 1.41 1.49 1.49 1.47 1.39 1.24 1.21 1.23 1.23 1.22 1.17 1.13 1.17 1.15 1.13 1.12 1.05 1.12 1.20 1.21 1.17
0.56 0.54 0.56 0.56 0.54 0.56 0.59 0.57 0.72 0.96 1.13 1.25 1.41 1.51 1.56 1.51 1.38 1.31 1.23 1.20 1.26 1.22 1.17 1.11 1.09 1.16 1.08 0.98 1.03 1.11 1.11 1.17
0.57 0.57 0.58 0.58 0.57 0.58 0.61 0.61 0.61 0.84 1.04 1.08 1.20 1.30 1.48 1.55 1.42 1.36 1.25 1.20 1.27 1.27 1.15 1.06 1.11 1.15 1.00 0.92 0.73 0.87 0.98 1.10
0.56 0.59 0.63 0.67 0.67 0.66 0.64 0.67 0.65 0.65 0.93 1.01 1.06 1.18 1.26 1.42 1.36 1.48 1.21 1.19 1.20 1.28 1.19 1.07 0.99 1.09 1.13 0.96 0.72 0.63 0.77 0.99
0.59 0.61 0.65 0.71 0.75 0.71 0.68 0.65 0.62 0.59 0.72 1.04 0.98 1.05 1.23 1.24 1.31 1.54 1.24 1.21 1.23 1.32 1.29 1.17 1.13 0.95 1.09 1.12 1.01 0.93 0.69 0.67
0.59 0.62 0.66 0.72 0.76 0.77 0.75 0.71 0.73 0.78 0.72 0.95 0.98 1.03 1.10 1.19 1.18 1.24 1.36 1.29 1.28 1.35 1.41 1.26 1.19 1.09 0.99 1.00 0.97 0.98 0.92 0.81
0.59 0.61 0.66 0.72 0.77 0.79 0.78 0.78 0.77 0.80 0.78 0.88 1.00 1.04 1.03 1.14 1.22 1.20 1.25 1.35 1.27 1.25 1.13 1.36 1.24 1.15 1.12 1.08 0.94 0.85 0.81 0.82
0.57 0.58 0.62 0.71 0.78 0.80 0.80 0.81 0.84 0.83 0.79 0.83 1.07 1.08 1.03 1.05 1.21 1.17 1.20 1.35 1.14 0.96 0.88 1.44 1.41 1.24 1.15 1.12 1.04 0.96 0.94 0.96
0.55 0.57 0.61 0.72 0.80 0.82 0.83 0.86 0.83 0.82 0.82 0.83 1.03 1.12 1.06 1.16 1.25 1.22 1.24 1.36 1.23 1.23 1.17 1.32 1.34 1.29 1.21 1.16 1.09 0.98 0.96 1.07

GFSFLT2_prec_pwat_108.txt.gz
Precipitable_Water
1.40 1.46 1.41 1.34 1.30 1.27 1.25 1.26 1.30 1.33 1.31 1.29 1.30 1.33 1.33 1.33 1.30 1.28 1.26 1.25 1.31 1.31 1.30 1.34 1.35 1.30 1.32 1.38 1.38 1.38 1.35 1.41
1.40 1.49 1.46 1.34 1.31 1.30 1.28 1.27 1.29 1.32 1.34 1.31 1.31 1.34 1.33 1.34 1.30 1.29 1.28 1.30 1.30 1.27 1.27 1.27 1.31 1.33 1.35 1.38 1.37 1.36 1.34 1.35
1.23 1.44 1.50 1.42 1.35 1.35 1.33 1.31 1.31 1.33 1.34 1.32 1.30 1.31 1.30 1.30 1.29 1.28 1.31 1.35 1.31 1.28 1.26 1.30 1.32 1.29 1.34 1.39 1.37 1.35 1.33 1.35
1.34 1.31 1.47 1.52 1.46 1.44 1.38 1.36 1.34 1.33 1.33 1.32 1.31 1.32 1.32 1.29 1.27 1.27 1.29 1.34 1.34 1.29 1.24 1.24 1.29 1.31 1.26 1.34 1.39 1.38 1.37 1.40
1.38 1.36 1.42 1.49 1.53 1.59 1.51 1.44 1.39 1.39 1.36 1.37 1.30 1.30 1.33 1.30 1.30 1.28 1.31 1.34 1.34 1.30 1.23 1.23 1.22 1.24 1.25 1.25 1.35 1.37 1.40 1.41
1.43 1.45 1.46 1.54 1.56 1.56 1.60 1.57 1.52 1.47 1.43 1.43 1.36 1.30 1.29 1.31 1.23 1.30 1.31 1.30 1.27 1.26 1.24 1.25 1.23 1.21 1.25 1.25 1.28 1.35 1.42 1.50
0.73 1.17 1.51 1.53 1.59 1.69 1.64 1.61 1.63 1.62 1.62 1.56 1.41 1.34 1.28 1.27 1.31 1.27 1.33 1.31 1.24 1.22 1.25 1.25 1.24 1.20 1.18 1.21 1.29 1.34 1.42 1.52
0.70 0.82 1.03 1.22 1.45 1.54 1.62 1.69 1.70 1.72 1.67 1.60 1.54 1.44 1.36 1.26 1.24 1.27 1.32 1.34 1.29 1.26 1.20 1.29 1.26 1.28 1.24 1.26 1.26 1.34 1.39 1.44
0.83 0.80 0.79 0.97 1.12 1.31 1.55 1.61 1.66 1.69 1.71 1.53 1.48 1.43 1.39 1.35 1.26 1.27 1.24 1.35 1.27 1.24 1.24 1.31 1.29 1.31 1.24 1.26 1.25 1.29 1.31 1.35
0.83 0.85 0.82 0.79 0.82 1.00 1.12 1.30 1.49 1.55 1.62 1.57 1.49 1.42 1.34 1.31 1.25 1.21 1.29 1.32 1.32 1.26 1.20 1.24 1.21 1.22 1.21 1.23 1.23 1.26 1.28 1.28
0.77 0.77 0.75 0.77 0.77 0.76 0.78 1.02 1.12 1.42 1.48 1.54 1.55 1.47 1.43 1.32 1.24 1.22 1.18 1.24 1.28 1.25 1.22 1.16 1.14 1.16 1.17 1.22 1.23 1.22 1.25 1.25
0.70 0.70 0.71 0.72 0.72 0.73 0.74 0.73 0.73 0.96 1.22 1.42 1.44 1.53 1.50 1.46 1.35 1.31 1.24 1.15 1.16 1.25 1.18 1.17 1.14 1.13 1.19 1.18 1.22 1.26 1.22 1.16
0.63 0.60 0.61 0.62 0.59 0.59 0.61 0.62 0.70 0.71 0.81 1.02 1.25 1.37 1.38 1.52 1.50 1.46 1.44 1.26 1.17 1.20 1.19 1.12 1.09 1.18 1.11 1.10 1.16 1.17 1.15 1.11
0.58 0.58 0.57 0.59 0.61 0.60 0.58 0.56 0.58 0.64 0.69 0.86 1.07 1.05 1.25 1.42 1.47 1.50 1.57 1.50 1.32 1.22 1.16 1.10 1.13 1.13 1.01 1.00 0.85 0.96 1.00 1.08
0.57 0.57 0.58 0.59 0.62 0.63 0.63 0.64 0.62 0.57 0.54 0.59 0.78 1.05 1.05 1.17 1.24 1.37 1.50 1.46 1.51 1.45 1.36 1.13 1.02 1.16 1.13 0.97 0.79 0.72 0.83 0.95
0.60 0.59 0.58 0.58 0.62 0.62 0.62 0.60 0.58 0.66 0.69 0.69 0.69 1.02 1.11 1.01 1.00 1.09 1.23 1.29 1.43 1.37 1.53 1.31 1.17 1.06 1.15 1.14 1.02 0.99 0.78 0.70
0.57 0.58 0.58 0.58 0.61 0.64 0.63 0.64 0.69 0.72 0.75 0.75 0.77 0.83 1.18 1.06 1.03 1.01 1.06 1.18 1.17 1.20 1.31 1.34 1.30 1.13 1.14 1.13 1.04 1.06 1.07 0.87
0.55 0.54 0.56 0.60 0.63 0.67 0.67 0.68 0.69 0.68 0.72 0.75 0.75 0.80 0.94 1.34 1.19 1.07 1.06 1.13 1.14 1.16 1.09 1.24 1.33 1.18 1.13 1.15 1.04 0.96 0.96 0.94
0.48 0.51 0.53 0.61 0.63 0.67 0.71 0.72 0.72 0.70 0.70 0.74 0.78 0.75 0.95 1.16 1.30 1.16 1.14 1.12 1.16 1.15 1.16 1.58 1.37 1.21 1.03 0.96 1.08 1.14 1.16 1.06
0.45 0.43 0.52 0.58 0.61 0.64 0.72 0.75 0.76 0.75 0.80 0.83 0.82 0.81 0.92 1.03 1.29 1.23 1.14 1.15 1.20 1.31 1.19 1.46 1.26 1.14 0.98 1.05 1.18 1.17 1.27 1.18

GFSFLT2_prec_pwat_114.txt.gz
Precipitable_Water
1.04 1.13 1.21 1.32 1.31 1.32 1.31 1.29 1.24 1.21 1.21 1.22 1.21 1.17 1.18 1.20 1.22 1.20 1.17 1.16 1.20 1.23 1.26 1.24 1.24 1.25 1.26 1.25 1.30 1.37 1.35 1.28
1.07 1.13 1.19 1.23 1.37 1.36 1.36 1.36 1.32 1.28 1.26 1.27 1.26 1.21 1.20 1.21 1.22 1.22 1.20 1.17 1.21 1.24 1.26 1.25 1.22 1.20 1.22 1.26 1.30 1.38 1.38 1.32
1.20 1.16 1.24 1.27 1.30 1.41 1.38 1.38 1.37 1.35 1.33 1.32 1.33 1.29 1.26 1.26 1.26 1.24 1.22 1.20 1.19 1.20 1.23 1.24 1.22 1.22 1.19 1.22 1.26 1.33 1.40 1.36
1.20 1.22 1.27 1.30 1.31 1.38 1.41 1.40 1.40 1.38 1.39 1.38 1.38 1.35 1.31 1.31 1.31 1.28 1.23 1.20 1.18 1.19 1.23 1.25 1.24 1.19 1.18 1.18 1.20 1.26 1.33 1.37
1.19 1.36 1.42 1.35 1.34 1.32 1.41 1.42 1.41 1.41 1.42 1.41 1.39 1.39 1.36 1.33 1.32 1.32 1.27 1.24 1.20 1.20 1.21 1.23 1.21 1.18 1.13 1.13 1.15 1.16 1.22 1.31
1.09 1.38 1.54 1.46 1.43 1.44 1.44 1.44 1.44 1.39 1.40 1.41 1.38 1.36 1.34 1.31 1.26 1.29 1.26 1.23 1.15 1.16 1.17 1.19 1.19 1.18 1.15 1.11 1.11 1.13 1.19 1.27
1.24 1.30 1.45 1.52 1.44 1.55 1.59 1.52 1.50 1.49 1.45 1.44 1.42 1.37 1.33 1.38 1.33 1.31 1.30 1.26 1.19 1.14 1.14 1.15 1.16 1.17 1.18 1.17 1.17 1.12 1.18 1.25
1.03 1.08 1.09 1.22 1.34 1.45 1.55 1.64 1.72 1.66 1.61 1.55 1.54 1.47 1.42 1.41 1.44 1.41 1.38 1.34 1.25 1.17 1.12 1.12 1.13 1.18 1.16 1.16 1.16 1.22 1.20 1.22
0.80 0.86 0.93 0.98 1.09 1.14 1.26 1.49 1.56 1.59 1.68 1.77 1.73 1.68 1.62 1.55 1.50 1.46 1.47 1.45 1.34 1.26 1.21 1.24 1.19 1.19 1.12 1.17 1.21 1.24 1.27 1.25
0.79 0.83 0.85 0.87 0.91 1.00 1.08 1.14 1.29 1.40 1.49 1.56 1.67 1.74 1.75 1.74 1.70 1.67 1.64 1.54 1.42 1.36 1.26 1.20 1.21 1.18 1.13 1.17 1.23 1.27 1.26 1.26
0.74 0.78 0.79 0.78 0.81 0.83 0.84 1.01 1.08 1.08 1.19 1.30 1.41 1.55 1.70 1.69 1.72 1.73 1.73 1.60 1.56 1.42 1.34 1.29 1.18 1.16 1.13 1.20 1.27 1.29 1.27 1.28
0.71 0.72 0.72 0.73 0.71 0.68 0.68 0.72 0.81 0.96 0.98 1.01 1.08 1.20 1.30 1.54 1.60 1.60 1.66 1.67 1.63 1.65 1.48 1.40 1.28 1.18 1.15 1.17 1.29 1.32 1.36 1.29
0.68 0.66 0.68 0.68 0.61 0.57 0.55 0.54 0.60 0.63 0.71 0.80 0.92 0.98 1.06 1.11 1.27 1.47 1.50 1.46 1.48 1.53 1.51 1.50 1.49 1.42 1.27 1.24 1.28 1.33 1.34 1.28
0.65 0.65 0.68 0.67 0.59 0.60 0.61 0.59 0.59 0.60 0.63 0.64 0.66 0.73 0.86 0.93 0.94 0.97 1.17 1.32 1.36 1.42 1.46 1.43 1.41 1.51 1.40 1.32 1.11 1.22 1.27 1.25
0.67 0.65 0.66 0.66 0.60 0.59 0.59 0.59 0.58 0.55 0.57 0.58 0.61 0.63 0.62 0.66 0.76 0.83 0.84 1.03 1.12 1.22 1.25 1.26 1.25 1.36 1.46 1.38 1.21 1.08 1.19 1.28
0.67 0.65 0.65 0.62 0.57 0.55 0.54 0.52 0.48 0.52 0.55 0.57 0.59 0.64 0.64 0.62 0.60 0.63 0.69 0.74 0.85 0.98 1.14 1.13 1.12 1.09 1.25 1.26 1.31 1.30 1.06 1.00
0.60 0.58 0.56 0.54 0.50 0.47 0.49 0.51 0.52 0.54 0.55 0.56 0.60 0.63 0.67 0.69 0.69 0.67 0.67 0.72 0.78 0.92 0.95 1.02 1.07 1.07 1.07 1.14 1.19 1.21 1.18 1.03
0.59 0.60 0.58 0.53 0.52 0.50 0.47 0.48 0.50 0.51 0.51 0.54 0.59 0.64 0.68 0.73 0.74 0.74 0.74 0.75 0.82 0.93 1.01 0.98 1.02 1.02 1.02 1.06 1.04 1.01 0.97 0.94
0.60 0.65 0.57 0.53 0.47 0.46 0.48 0.49 0.52 0.51 0.51 0.52 0.56 0.63 0.70 0.73 0.76 0.76 0.75 0.79 0.79 0.91 1.05 1.06 1.01 1.04 1.09 1.04 1.07 1.08 1.06 0.98
0.55 0.51 0.46 0.45 0.45 0.44 0.46 0.49 0.51 0.53 0.55 0.56 0.58 0.64 0.68 0.73 0.75 0.79 0.81 0.82 0.81 0.87 1.03 1.11 1.09 1.15 1.17 1.24 1.16 1.16 1.18 1.13

GFSFLT2_prec_pwat_120.txt.gz
Precipitable_Water
1.08 1.14 1.18 1.24 1.26 1.27 1.37 1.43 1.39 1.35 1.30 1.25 1.20 1.20 1.20 1.21 1.24 1.25 1.21 1.16 1.15 1.15 1.15 1.21 1.24 1.24 1.22 1.18 1.16 1.17 1.16 1.20
1.04 1.08 1.13 1.17 1.22 1.26 1.27 1.39 1.48 1.47 1.43 1.38 1.32 1.28 1.28 1.26 1.27 1.27 1.25 1.23 1.23 1.21 1.22 1.23 1.24 1.24 1.24 1.21 1.18 1.19 1.18 1.16
1.05 1.09 1.18 1.20 1.21 1.25 1.31 1.32 1.40 1.51 1.52 1.49 1.46 1.42 1.36 1.34 1.33 1.32 1.31 1.30 1.29 1.27 1.27 1.25 1.24 1.26 1.27 1.24 1.21 1.16 1.14 1.14
1.00 1.09 1.16 1.25 1.28 1.31 1.29 1.34 1.39 1.45 1.55 1.55 1.52 1.49 1.46 1.42 1.37 1.36 1.36 1.36 1.35 1.34 1.33 1.32 1.30 1.28 1.28 1.27 1.21 1.17 1.13 1.10
0.87 1.01 1.18 1.26 1.34 1.37 1.34 1.36 1.38 1.46 1.50 1.57 1.60 1.56 1.54 1.50 1.45 1.41 1.39 1.39 1.37 1.38 1.36 1.35 1.31 1.30 1.26 1.25 1.22 1.18 1.14 1.12
0.85 0.98 1.02 1.15 1.31 1.38 1.39 1.36 1.39 1.35 1.48 1.57 1.59 1.58 1.54 1.53 1.51 1.47 1.44 1.43 1.36 1.38 1.36 1.35 1.32 1.33 1.32 1.27 1.26 1.21 1.14 1.11
0.78 0.98 1.09 1.18 1.14 1.25 1.34 1.39 1.46 1.48 1.46 1.57 1.62 1.60 1.56 1.59 1.58 1.60 1.56 1.53 1.48 1.42 1.39 1.35 1.32 1.31 1.34 1.32 1.28 1.25 1.21 1.18
0.71 0.82 1.05 1.11 1.09 1.11 1.19 1.26 1.31 1.50 1.54 1.57 1.60 1.62 1.60 1.58 1.57 1.59 1.59 1.62 1.62 1.54 1.43 1.40 1.37 1.37 1.34 1.36 1.32 1.30 1.27 1.25
0.78 0.88 0.98 0.99 1.02 1.02 1.07 1.12 1.20 1.27 1.34 1.43 1.59 1.61 1.60 1.60 1.60 1.58 1.60 1.64 1.62 1.58 1.54 1.54 1.45 1.44 1.40 1.41 1.38 1.39 1.34 1.28
0.82 0.88 0.90 0.93 0.95 0.94 0.96 1.03 1.08 1.11 1.14 1.21 1.31 1.44 1.57 1.57 1.57 1.59 1.70 1.69 1.66 1.57 1.56 1.54 1.52 1.43 1.45 1.46 1.41 1.39 1.37 1.34
0.81 0.87 0.86 0.87 0.87 0.88 0.89 0.92 0.95 0.98 0.98 0.96 0.97 1.05 1.18 1.36 1.46 1.57 1.65 1.70 1.73 1.67 1.67 1.65 1.60 1.44 1.38 1.47 1.49 1.41 1.43 1.41
0.76 0.82 0.84 0.82 0.82 0.78 0.73 0.73 0.74 0.75 0.75 0.77 0.84 0.87 0.91 1.00 1.17 1.28 1.35 1.44 1.56 1.66 1.66 1.66 1.65 1.63 1.42 1.34 1.48 1.46 1.48 1.50
0.71 0.75 0.81 0.78 0.73 0.67 0.65 0.61 0.63 0.64 0.65 0.68 0.69 0.70 0.75 0.80 0.90 1.02 1.12 1.16 1.26 1.43 1.55 1.56 1.58 1.63 1.52 1.37 1.43 1.43 1.36 1.42
0.69 0.72 0.75 0.74 0.72 0.71 0.67 0.64 0.63 0.65 0.65 0.65 0.65 0.65 0.66 0.68 0.69 0.71 0.78 0.85 0.97 1.06 1.21 1.32 1.39 1.46 1.30 1.37 1.13 1.14 1.19 1.31
0.65 0.69 0.75 0.76 0.74 0.71 0.67 0.66 0.64 0.60 0.61 0.63 0.61 0.64 0.66 0.66 0.67 0.69 0.69 0.69 0.68 0.73 0.87 0.97 1.02 1.13 1.27 1.22 1.05 0.97 1.19 1.36
0.70 0.69 0.70 0.76 0.73 0.69 0.63 0.57 0.52 0.55 0.56 0.55 0.52 0.58 0.61 0.65 0.67 0.68 0.68 0.68 0.66 0.67 0.71 0.71 0.83 0.90 1.02 1.06 1.13 1.09 0.94 0.90
0.71 0.75 0.77 0.73 0.70 0.70 0.65 0.58 0.58 0.60 0.60 0.57 0.51 0.52 0.54 0.61 0.64 0.65 0.67 0.69 0.70 0.67 0.65 0.65 0.65 0.67 0.80 0.87 0.84 0.89 0.97 0.86
0.74 0.71 0.74 0.77 0.75 0.68 0.64 0.63 0.62 0.60 0.59 0.57 0.50 0.53 0.52 0.53 0.61 0.62 0.65 0.68 0.70 0.71 0.71 0.68 0.68 0.67 0.69 0.79 0.76 0.69 0.64 0.69
0.69 0.70 0.69 0.71 0.69 0.63 0.64 0.62 0.60 0.56 0.52 0.53 0.50 0.48 0.54 0.49 0.52 0.56 0.59 0.64 0.69 0.71 0.70 0.70 0.72 0.72 0.71 0.75 0.82 0.83 0.88 0.78
0.66 0.64 0.67 0.70 0.68 0.66 0.65 0.63 0.58 0.52 0.49 0.48 0.48 0.51 0.53 0.57 0.52 0.53 0.55 0.58 0.62 0.69 0.71 0.72 0.76 0.77 0.75 0.75 0.84 0.86 0.93 0.93

GFSFLT2_prec_pwat_123.txt.gz
Precipitable_Water
1.15 1.20 1.21 1.24 1.26 1.27 1.28 1.32 1.40 1.47 1.44 1.38 1.32 1.30 1.30 1.31 1.32 1.33 1.30 1.24 1.19 1.18 1.17 1.13 1.12 1.14 1.13 1.13 1.15 1.15 1.17 1.20
1.09 1.17 1.22 1.22 1.25 1.26 1.30 1.35 1.37 1.39 1.49 1.49 1.43 1.36 1.33 1.33 1.34 1.37 1.38 1.35 1.28 1.26 1.24 1.21 1.22 1.22 1.19 1.18 1.18 1.17 1.16 1.18
1.05 1.10 1.16 1.24 1.30 1.30 1.31 1.32 1.36 1.41 1.46 1.52 1.54 1.50 1.44 1.42 1.39 1.39 1.41 1.40 1.37 1.38 1.34 1.33 1.34 1.29 1.24 1.22 1.22 1.19 1.18 1.16
0.89 1.04 1.14 1.25 1.31 1.34 1.36 1.39 1.39 1.40 1.46 1.52 1.58 1.59 1.54 1.49 1.46 1.44 1.44 1.45 1.45 1.47 1.47 1.46 1.42 1.36 1.29 1.26 1.23 1.23 1.20 1.17
0.58 0.82 1.01 1.11 1.24 1.32 1.34 1.38 1.37 1.42 1.48 1.52 1.57 1.60 1.61 1.56 1.52 1.49 1.49 1.50 1.48 1.49 1.48 1.48 1.47 1.40 1.32 1.26 1.23 1.24 1.21 1.21
0.51 0.70 0.94 1.06 1.16 1.24 1.33 1.31 1.32 1.32 1.39 1.52 1.59 1.57 1.58 1.59 1.59 1.57 1.53 1.52 1.48 1.49 1.46 1.46 1.46 1.46 1.40 1.31 1.27 1.24 1.24 1.23
0.60 0.76 0.86 1.07 1.11 1.27 1.32 1.37 1.38 1.37 1.38 1.45 1.54 1.59 1.60 1.63 1.62 1.65 1.67 1.63 1.55 1.51 1.50 1.46 1.44 1.46 1.45 1.38 1.31 1.29 1.26 1.26
0.67 0.74 0.93 1.17 1.15 1.16 1.24 1.28 1.41 1.37 1.36 1.38 1.43 1.56 1.62 1.68 1.65 1.63 1.63 1.68 1.67 1.62 1.55 1.53 1.48 1.48 1.45 1.44 1.37 1.36 1.36 1.32
0.66 0.76 0.82 0.92 0.99 1.07 1.16 1.15 1.21 1.27 1.29 1.35 1.34 1.41 1.44 1.60 1.67 1.67 1.67 1.68 1.68 1.66 1.62 1.63 1.57 1.54 1.46 1.48 1.48 1.39 1.37 1.36
0.68 0.74 0.82 0.89 0.93 0.97 1.03 1.08 1.14 1.12 1.16 1.16 1.19 1.22 1.25 1.27 1.36 1.54 1.71 1.75 1.75 1.67 1.61 1.54 1.52 1.54 1.48 1.50 1.51 1.50 1.44 1.34
0.62 0.66 0.73 0.83 0.91 0.93 0.96 0.97 0.98 1.04 1.06 1.03 1.04 1.04 1.03 1.05 1.10 1.25 1.35 1.53 1.65 1.72 1.71 1.64 1.56 1.56 1.57 1.61 1.63 1.60 1.55 1.56
0.64 0.68 0.71 0.75 0.82 0.89 0.88 0.89 0.90 0.89 0.87 0.85 0.81 0.82 0.84 0.86 0.90 0.93 1.04 1.16 1.37 1.57 1.63 1.69 1.64 1.67 1.65 1.63 1.71 1.66 1.64 1.49
0.60 0.63 0.69 0.74 0.76 0.76 0.78 0.77 0.80 0.76 0.75 0.73 0.70 0.69 0.71 0.72 0.70 0.72 0.78 0.86 1.04 1.19 1.30 1.44 1.52 1.63 1.55 1.47 1.37 1.51 1.47 1.45
0.60 0.62 0.65 0.69 0.73 0.77 0.79 0.79 0.79 0.74 0.70 0.69 0.69 0.70 0.70 0.70 0.69 0.67 0.67 0.67 0.70 0.76 0.90 1.05 1.29 1.46 1.35 1.30 1.22 1.32 1.41 1.34
0.60 0.63 0.65 0.67 0.71 0.71 0.73 0.77 0.73 0.69 0.68 0.66 0.67 0.69 0.70 0.69 0.67 0.67 0.68 0.67 0.65 0.68 0.71 0.72 0.77 1.08 1.21 1.04 0.91 0.86 1.00 1.14
0.61 0.63 0.65 0.69 0.70 0.68 0.63 0.62 0.61 0.66 0.64 0.64 0.63 0.66 0.68 0.66 0.63 0.61 0.64 0.67 0.67 0.69 0.73 0.71 0.70 0.66 0.94 1.14 1.07 1.00 0.83 0.79
0.64 0.69 0.67 0.70 0.74 0.73 0.70 0.64 0.63 0.65 0.64 0.63 0.63 0.69 0.70 0.69 0.61 0.58 0.58 0.63 0.66 0.67 0.70 0.72 0.73 0.68 0.67 0.80 0.93 0.94 0.92 0.84
0.69 0.73 0.74 0.72 0.75 0.79 0.79 0.77 0.74 0.61 0.62 0.60 0.64 0.65 0.62 0.66 0.66 0.58 0.60 0.59 0.62 0.67 0.67 0.70 0.72 0.74 0.71 0.68 0.68 0.70 0.67 0.66
0.65 0.71 0.75 0.75 0.73 0.70 0.71 0.73 0.72 0.70 0.67 0.66 0.57 0.56 0.52 0.54 0.57 0.55 0.58 0.60 0.58 0.62 0.66 0.65 0.68 0.70 0.72 0.71 0.71 0.68 0.79 0.72
0.60 0.62 0.64 0.66 0.67 0.71 0.76 0.75 0.73 0.72 0.67 0.61 0.57 0.52 0.50 0.52 0.53 0.55 0.57 0.62 0.61 0.58 0.59 0.65 0.66 0.70 0.71 0.74 0.75 0.75 0.77 0.82

GFSFLT2_prec_pwat_129.txt.gz
Precipitable_Water
1.41 1.49 1.41 1.34 1.34 1.37 1.40 1.42 1.42 1.43 1.45 1.47 1.49 1.52 1.54 1.53 1.50 1.44 1.40 1.37 1.32 1.29 1.26 1.23 1.23 1.24 1.19 1.17 1.14 1.11 1.17 1.28
1.15 1.32 1.40 1.44 1.41 1.31 1.27 1.28 1.33 1.37 1.40 1.43 1.47 1.50 1.53 1.55 1.56 1.54 1.50 1.47 1.44 1.39 1.32 1.28 1.27 1.27 1.23 1.19 1.18 1.16 1.15 1.30
0.77 0.90 1.13 1.31 1.41 1.44 1.37 1.28 1.32 1.36 1.38 1.39 1.40 1.41 1.48 1.54 1.55 1.55 1.55 1.51 1.50 1.49 1.46 1.41 1.35 1.33 1.26 1.23 1.22 1.19 1.21 1.21
0.74 0.82 0.82 1.12 1.28 1.40 1.43 1.39 1.33 1.32 1.34 1.40 1.44 1.47 1.48 1.51 1.56 1.56 1.54 1.56 1.55 1.54 1.52 1.48 1.44 1.35 1.30 1.29 1.27 1.23 1.25 1.27
0.91 0.95 1.02 0.95 1.14 1.24 1.32 1.38 1.43 1.42 1.37 1.42 1.44 1.49 1.51 1.58 1.66 1.65 1.63 1.62 1.61 1.59 1.54 1.51 1.45 1.42 1.38 1.48 1.46 1.32 1.28 1.30
0.83 0.85 0.87 1.03 1.14 1.21 1.29 1.32 1.37 1.36 1.45 1.37 1.39 1.43 1.41 1.47 1.55 1.60 1.66 1.68 1.62 1.62 1.66 1.68 1.64 1.62 1.54 1.53 1.56 1.45 1.36 1.33
0.67 0.71 0.75 0.85 1.00 1.12 1.28 1.46 1.51 1.46 1.54 1.54 1.56 1.47 1.45 1.52 1.52 1.58 1.62 1.64 1.66 1.67 1.66 1.64 1.68 1.72 1.73 1.65 1.62 1.53 1.47 1.45
0.58 0.60 0.66 0.75 0.81 0.98 1.12 1.25 1.33 1.41 1.46 1.49 1.47 1.45 1.43 1.43 1.45 1.46 1.54 1.66 1.70 1.69 1.69 1.70 1.70 1.70 1.66 1.69 1.64 1.66 1.66 1.54
0.59 0.62 0.69 0.73 0.80 0.88 1.00 1.12 1.26 1.27 1.32 1.32 1.26 1.26 1.22 1.24 1.30 1.42 1.52 1.62 1.71 1.78 1.78 1.76 1.72 1.70 1.64 1.67 1.69 1.68 1.66 1.63
0.59 0.63 0.65 0.69 0.74 0.83 0.96 1.03 1.13 1.15 1.16 1.13 1.10 1.13 1.13 1.12 1.14 1.22 1.33 1.36 1.36 1.40 1.49 1.55 1.70 1.73 1.64 1.64 1.61 1.68 1.70 1.67
0.59 0.61 0.62 0.67 0.71 0.79 0.86 0.89 1.03 1.06 1.07 1.06 1.06 1.07 1.09 1.09 1.07 1.10 1.14 1.14 1.20 1.20 1.24 1.30 1.29 1.40 1.45 1.76 1.70 1.63 1.71 1.72
0.60 0.61 0.62 0.63 0.68 0.72 0.78 0.84 0.95 0.94 0.97 1.01 1.02 1.02 1.06 1.08 1.04 1.02 1.00 0.96 0.93 0.98 1.02 1.08 1.13 1.18 1.25 1.31 1.53 1.72 1.76 1.72
0.57 0.58 0.60 0.59 0.60 0.61 0.66 0.70 0.79 0.88 0.93 0.96 0.97 0.99 1.02 1.00 0.98 0.95 0.87 0.76 0.75 0.80 0.83 0.81 0.82 0.99 1.04 1.16 1.23 1.46 1.54 1.75
0.56 0.56 0.57 0.60 0.61 0.63 0.65 0.67 0.73 0.75 0.82 0.88 0.88 0.89 0.91 0.88 0.85 0.79 0.74 0.70 0.69 0.71 0.71 0.66 0.66 0.76 0.78 0.84 0.86 1.00 1.22 1.38
0.57 0.58 0.60 0.61 0.63 0.62 0.63 0.66 0.65 0.67 0.68 0.68 0.78 0.84 0.82 0.80 0.79 0.76 0.72 0.70 0.65 0.67 0.70 0.68 0.58 0.62 0.71 0.76 0.66 0.70 0.95 1.16
0.57 0.58 0.59 0.61 0.63 0.61 0.60 0.59 0.58 0.65 0.67 0.67 0.70 0.71 0.76 0.76 0.73 0.71 0.69 0.66 0.63 0.65 0.71 0.70 0.66 0.52 0.61 0.69 0.78 0.79 0.74 0.78
0.56 0.57 0.56 0.58 0.60 0.61 0.61 0.62 0.65 0.66 0.69 0.72 0.74 0.73 0.70 0.69 0.70 0.69 0.65 0.65 0.66 0.67 0.68 0.68 0.68 0.63 0.58 0.58 0.64 0.67 0.73 0.74
0.51 0.50 0.50 0.53 0.56 0.58 0.59 0.60 0.65 0.68 0.69 0.70 0.73 0.77 0.78 0.73 0.72 0.71 0.71 0.71 0.67 0.69 0.69 0.66 0.65 0.65 0.62 0.63 0.61 0.60 0.59 0.65
0.42 0.42 0.41 0.45 0.48 0.52 0.55 0.54 0.55 0.58 0.64 0.70 0.71 0.73 0.74 0.76 0.81 0.80 0.76 0.75 0.75 0.74 0.68 0.60 0.61 0.63 0.63 0.62 0.64 0.63 0.69 0.70
0.41 0.41 0.39 0.41 0.41 0.41 0.48 0.52 0.56 0.56 0.57 0.59 0.61 0.63 0.65 0.71 0.77 0.82 0.82 0.81 0.76 0.69 0.60 0.59 0.60 0.59 0.61 0.64 0.64 0.64 0.64 0.67

GFSFLT2_prec_pwat_132.txt.gz
Precipitable_Water
1.39 1.43 1.39 1.40 1.30 1.28 1.31 1.34 1.34 1.36 1.40 1.45 1.49 1.51 1.52 1.52 1.52 1.50 1.46 1.43 1.38 1.33 1.28 1.27 1.28 1.26 1.24 1.20 1.17 1.12 1.05 1.16
0.81 1.07 1.30 1.45 1.43 1.39 1.31 1.31 1.35 1.36 1.36 1.39 1.43 1.48 1.53 1.57 1.57 1.57 1.56 1.52 1.49 1.46 1.41 1.37 1.32 1.28 1.25 1.23 1.18 1.16 1.09 1.05
0.95 0.95 1.05 1.15 1.33 1.42 1.44 1.41 1.36 1.34 1.34 1.35 1.38 1.40 1.42 1.47 1.51 1.54 1.58 1.58 1.56 1.53 1.48 1.43 1.40 1.36 1.30 1.27 1.22 1.15 1.14 1.11
0.93 0.96 0.98 1.04 1.18 1.44 1.49 1.47 1.34 1.27 1.26 1.29 1.33 1.35 1.35 1.39 1.47 1.55 1.59 1.58 1.59 1.59 1.57 1.52 1.48 1.43 1.38 1.30 1.21 1.17 1.16 1.15
0.83 0.85 0.88 0.98 1.06 1.26 1.37 1.61 1.54 1.47 1.38 1.28 1.27 1.38 1.43 1.49 1.53 1.57 1.66 1.78 1.77 1.66 1.61 1.56 1.50 1.45 1.36 1.38 1.30 1.24 1.25 1.18
0.72 0.72 0.73 0.81 0.93 1.06 1.18 1.25 1.35 1.53 1.53 1.72 1.56 1.41 1.39 1.45 1.49 1.49 1.57 1.68 1.68 1.79 1.77 1.65 1.58 1.50 1.45 1.41 1.47 1.50 1.48 1.31
0.56 0.61 0.65 0.73 0.79 0.92 1.06 1.22 1.30 1.36 1.47 1.69 1.62 1.47 1.50 1.59 1.59 1.61 1.62 1.66 1.68 1.70 1.74 1.69 1.70 1.63 1.61 1.57 1.53 1.62 1.64 1.55
0.57 0.59 0.64 0.67 0.70 0.77 0.91 1.02 1.13 1.27 1.25 1.26 1.32 1.29 1.31 1.31 1.34 1.42 1.44 1.45 1.53 1.60 1.64 1.73 1.75 1.76 1.69 1.62 1.56 1.56 1.58 1.61
0.58 0.60 0.65 0.67 0.70 0.76 0.82 0.92 1.03 1.07 1.16 1.15 1.21 1.26 1.32 1.29 1.26 1.23 1.20 1.26 1.30 1.38 1.57 1.69 1.70 1.72 1.70 1.81 1.80 1.70 1.64 1.60
0.59 0.62 0.62 0.67 0.69 0.74 0.77 0.80 0.88 0.97 1.05 1.09 1.15 1.21 1.24 1.22 1.15 1.10 1.15 1.15 1.14 1.20 1.25 1.26 1.38 1.50 1.53 1.51 1.80 1.86 1.87 1.80
0.56 0.59 0.58 0.59 0.65 0.71 0.74 0.77 0.80 0.85 0.92 0.97 1.18 1.13 1.14 1.16 1.10 1.06 1.06 1.03 1.03 1.07 1.08 1.11 1.07 1.09 1.19 1.34 1.43 1.47 1.31 1.69
0.56 0.57 0.58 0.58 0.59 0.62 0.67 0.71 0.75 0.78 0.83 0.90 0.95 1.02 1.09 1.08 1.08 1.05 1.05 1.01 0.97 0.96 0.93 0.93 0.87 0.84 0.86 0.90 1.02 1.10 1.23 1.31
0.55 0.55 0.57 0.57 0.55 0.55 0.56 0.58 0.65 0.68 0.72 0.76 0.86 0.89 0.89 0.92 0.92 0.93 0.95 0.95 0.94 0.90 0.79 0.68 0.66 0.74 0.71 0.71 0.74 0.84 0.90 1.15
0.54 0.55 0.57 0.58 0.57 0.59 0.60 0.59 0.62 0.63 0.67 0.68 0.72 0.75 0.80 0.79 0.77 0.81 0.81 0.81 0.81 0.79 0.72 0.64 0.63 0.69 0.62 0.64 0.52 0.57 0.76 0.93
0.53 0.55 0.56 0.58 0.59 0.61 0.59 0.60 0.62 0.60 0.61 0.63 0.67 0.70 0.70 0.71 0.72 0.72 0.74 0.75 0.71 0.72 0.67 0.61 0.53 0.60 0.67 0.66 0.56 0.50 0.54 0.64
0.54 0.53 0.52 0.53 0.57 0.55 0.54 0.53 0.53 0.57 0.60 0.63 0.65 0.67 0.67 0.67 0.66 0.70 0.71 0.72 0.70 0.68 0.67 0.62 0.60 0.57 0.63 0.70 0.73 0.70 0.56 0.45
0.51 0.50 0.48 0.49 0.50 0.50 0.51 0.52 0.55 0.58 0.61 0.64 0.66 0.67 0.69 0.70 0.73 0.71 0.68 0.69 0.69 0.67 0.65 0.62 0.63 0.61 0.61 0.63 0.65 0.64 0.65 0.61
0.44 0.42 0.41 0.42 0.42 0.42 0.41 0.43 0.47 0.49 0.49 0.51 0.57 0.64 0.70 0.72 0.74 0.75 0.78 0.76 0.74 0.74 0.71 0.66 0.65 0.66 0.67 0.68 0.63 0.58 0.57 0.57
0.40 0.41 0.39 0.41 0.40 0.40 0.39 0.39 0.40 0.41 0.44 0.48 0.50 0.53 0.56 0.60 0.66 0.67 0.72 0.77 0.78 0.78 0.75 0.74 0.72 0.68 0.71 0.69 0.65 0.62 0.66 0.64
0.40 0.40 0.39 0.40 0.41 0.40 0.41 0.41 0.41 0.41 0.41 0.43 0.45 0.48 0.53 0.61 0.62 0.63 0.63 0.67 0.71 0.76 0.77 0.75 0.75 0.71 0.71 0.65 0.59 0.60 0.61 0.63

GFSFLT2_prec_pwat_138.txt.gz
Precipitable_Water
1.11 1.15 1.29 1.38 1.44 1.41 1.42 1.39 1.37 1.36 1.35 1.35 1.37 1.40 1.42 1.41 1.39 1.38 1.38 1.41 1.42 1.40 1.36 1.31 1.27 1.23 1.20 1.21 1.21 1.20 1.19 1.18
0.96 1.01 1.11 1.23 1.30 1.40 1.47 1.46 1.44 1.44 1.38 1.33 1.32 1.35 1.39 1.41 1.41 1.41 1.42 1.43 1.45 1.48 1.49 1.48 1.45 1.40 1.33 1.27 1.26 1.24 1.19 1.19
0.86 0.88 0.96 1.10 1.17 1.26 1.35 1.41 1.44 1.47 1.40 1.40 1.40 1.39 1.39 1.40 1.39 1.38 1.39 1.38 1.40 1.44 1.50 1.54 1.55 1.57 1.56 1.48 1.43 1.31 1.22 1.15
0.75 0.80 0.82 0.86 0.94 1.12 1.22 1.30 1.31 1.34 1.36 1.42 1.45 1.45 1.42 1.39 1.36 1.36 1.35 1.35 1.33 1.36 1.45 1.53 1.58 1.61 1.63 1.65 1.58 1.47 1.36 1.24
0.69 0.71 0.75 0.78 0.79 0.89 1.04 1.18 1.22 1.24 1.29 1.35 1.44 1.50 1.55 1.56 1.52 1.52 1.54 1.52 1.45 1.50 1.55 1.58 1.62 1.68 1.66 1.65 1.65 1.57 1.48 1.42
0.54 0.56 0.59 0.66 0.73 0.78 0.86 1.00 1.13 1.15 1.18 1.23 1.28 1.32 1.41 1.44 1.54 1.58 1.55 1.62 1.49 1.52 1.55 1.61 1.64 1.72 1.75 1.73 1.78 1.74 1.67 1.57
0.51 0.53 0.55 0.59 0.61 0.61 0.68 0.75 0.87 1.04 1.17 1.21 1.26 1.26 1.29 1.35 1.36 1.40 1.44 1.45 1.39 1.33 1.41 1.44 1.48 1.57 1.64 1.68 1.71 1.72 1.71 1.71
0.52 0.52 0.56 0.61 0.63 0.65 0.64 0.67 0.71 0.77 0.90 1.06 1.16 1.18 1.21 1.24 1.30 1.32 1.31 1.32 1.26 1.22 1.21 1.24 1.27 1.33 1.37 1.48 1.59 1.67 1.69 1.72
0.51 0.54 0.58 0.60 0.65 0.66 0.68 0.70 0.71 0.71 0.74 0.79 0.90 1.04 1.08 1.12 1.11 1.11 1.14 1.15 1.11 1.10 1.10 1.10 1.11 1.15 1.17 1.24 1.28 1.36 1.46 1.62
0.53 0.55 0.56 0.58 0.60 0.65 0.64 0.64 0.66 0.67 0.70 0.72 0.72 0.75 0.83 0.93 0.98 1.01 1.02 0.99 0.95 1.03 1.05 1.01 0.98 0.98 0.97 1.00 1.06 1.14 1.14 1.23
0.50 0.53 0.53 0.55 0.59 0.61 0.64 0.61 0.59 0.60 0.62 0.64 0.65 0.68 0.70 0.73 0.79 0.86 0.92 0.90 0.85 0.90 0.97 0.96 0.92 0.93 0.89 0.89 0.92 0.93 0.88 0.91
0.50 0.51 0.52 0.54 0.56 0.58 0.59 0.59 0.58 0.60 0.59 0.60 0.60 0.61 0.62 0.62 0.64 0.65 0.69 0.78 0.80 0.86 0.82 0.90 0.87 0.86 0.83 0.79 0.79 0.74 0.71 0.74
0.48 0.49 0.51 0.52 0.53 0.53 0.55 0.54 0.56 0.56 0.58 0.58 0.57 0.55 0.55 0.55 0.55 0.58 0.60 0.63 0.62 0.65 0.69 0.65 0.65 0.73 0.72 0.70 0.67 0.75 0.73 0.75
0.48 0.50 0.50 0.51 0.53 0.54 0.56 0.56 0.55 0.54 0.54 0.54 0.55 0.55 0.55 0.54 0.53 0.53 0.55 0.55 0.55 0.57 0.58 0.57 0.59 0.61 0.58 0.60 0.56 0.62 0.70 0.71
0.48 0.47 0.46 0.47 0.48 0.49 0.50 0.50 0.49 0.47 0.46 0.46 0.48 0.50 0.50 0.52 0.54 0.56 0.56 0.58 0.56 0.57 0.57 0.55 0.52 0.58 0.63 0.57 0.51 0.48 0.57 0.68
0.47 0.45 0.42 0.40 0.41 0.38 0.37 0.35 0.34 0.36 0.37 0.39 0.40 0.42 0.43 0.44 0.46 0.48 0.51 0.56 0.58 0.60 0.62 0.62 0.59 0.54 0.61 0.67 0.64 0.63 0.50 0.44
0.47 0.44 0.41 0.39 0.39 0.38 0.36 0.34 0.36 0.36 0.36 0.35 0.36 0.37 0.38 0.39 0.42 0.44 0.45 0.47 0.49 0.52 0.58 0.62 0.65 0.64 0.61 0.62 0.63 0.60 0.62 0.54
0.46 0.42 0.40 0.41 0.40 0.39 0.38 0.36 0.35 0.34 0.35 0.35 0.36 0.37 0.37 0.39 0.40 0.41 0.42 0.44 0.46 0.49 0.50 0.51 0.57 0.62 0.64 0.66 0.64 0.60 0.58 0.55
0.45 0.42 0.40 0.42 0.41 0.41 0.41 0.40 0.39 0.38 0.38 0.38 0.37 0.37 0.38 0.39 0.42 0.41 0.42 0.43 0.45 0.47 0.50 0.50 0.50 0.51 0.55 0.59 0.66 0.67 0.70 0.65
0.47 0.44 0.42 0.43 0.43 0.43 0.44 0.43 0.42 0.41 0.42 0.41 0.41 0.41 0.41 0.43 0.43 0.44 0.45 0.46 0.47 0.47 0.49 0.53 0.55 0.55 0.56 0.61 0.62 0.66 0.69 0.71

GFSFLT2_prec_pwat_141.txt.gz
Precipitable_Water
1.13 1.24 1.32 1.36 1.42 1.40 1.41 1.40 1.40 1.39 1.41 1.43 1.44 1.43 1.44 1.47 1.47 1.46 1.45 1.45 1.45 1.45 1.43 1.39 1.35 1.28 1.23 1.19 1.17 1.20 1.20 1.18
0.99 1.04 1.14 1.22 1.32 1.40 1.42 1.41 1.39 1.40 1.40 1.39 1.39 1.40 1.44 1.46 1.48 1.49 1.51 1.51 1.52 1.53 1.54 1.55 1.52 1.49 1.47 1.42 1.31 1.23 1.18 1.14
0.87 0.92 0.96 1.04 1.17 1.27 1.34 1.35 1.39 1.37 1.36 1.35 1.33 1.31 1.34 1.41 1.45 1.46 1.46 1.46 1.48 1.49 1.50 1.53 1.56 1.60 1.62 1.64 1.63 1.55 1.43 1.30
0.73 0.76 0.78 0.81 0.87 1.03 1.19 1.24 1.24 1.27 1.29 1.33 1.35 1.35 1.35 1.34 1.36 1.40 1.41 1.43 1.46 1.48 1.50 1.53 1.55 1.56 1.58 1.62 1.65 1.69 1.63 1.54
0.67 0.70 0.74 0.74 0.77 0.85 0.95 1.07 1.12 1.17 1.20 1.25 1.33 1.32 1.33 1.36 1.38 1.40 1.42 1.43 1.41 1.46 1.47 1.55 1.57 1.56 1.59 1.66 1.70 1.69 1.69 1.67
0.55 0.56 0.58 0.58 0.62 0.68 0.77 0.84 0.94 1.03 1.10 1.12 1.19 1.23 1.26 1.27 1.29 1.34 1.33 1.40 1.41 1.46 1.47 1.46 1.45 1.49 1.53 1.56 1.65 1.71 1.73 1.75
0.54 0.56 0.56 0.58 0.59 0.60 0.62 0.65 0.72 0.82 0.93 1.02 1.07 1.10 1.13 1.18 1.24 1.24 1.25 1.32 1.27 1.27 1.35 1.38 1.37 1.36 1.39 1.43 1.49 1.60 1.68 1.75
0.56 0.54 0.57 0.59 0.60 0.61 0.61 0.63 0.66 0.70 0.73 0.79 0.91 1.02 1.04 1.09 1.13 1.11 1.13 1.17 1.20 1.19 1.17 1.18 1.16 1.11 1.09 1.17 1.22 1.28 1.37 1.46
0.54 0.53 0.56 0.59 0.60 0.61 0.62 0.63 0.64 0.65 0.65 0.68 0.71 0.77 0.86 0.97 1.00 0.95 1.04 1.10 1.07 1.06 1.08 1.06 1.02 1.02 0.98 0.99 1.01 1.06 1.13 1.21
0.52 0.51 0.53 0.57 0.61 0.59 0.58 0.58 0.59 0.60 0.61 0.62 0.63 0.64 0.67 0.69 0.75 0.80 0.87 0.93 0.89 0.87 0.88 0.84 0.80 0.81 0.90 0.95 0.97 0.96 0.98 1.02
0.51 0.51 0.50 0.53 0.57 0.58 0.57 0.57 0.57 0.57 0.58 0.57 0.57 0.58 0.60 0.60 0.60 0.62 0.66 0.68 0.69 0.71 0.71 0.71 0.67 0.68 0.71 0.81 0.87 0.92 0.94 0.98
0.52 0.49 0.49 0.52 0.55 0.56 0.56 0.56 0.56 0.58 0.57 0.55 0.54 0.54 0.54 0.53 0.53 0.54 0.56 0.55 0.54 0.55 0.53 0.58 0.56 0.57 0.57 0.63 0.69 0.80 0.84 0.79
0.52 0.46 0.47 0.49 0.50 0.50 0.51 0.49 0.52 0.53 0.54 0.54 0.53 0.53 0.52 0.51 0.51 0.51 0.51 0.49 0.49 0.51 0.52 0.51 0.51 0.54 0.48 0.44 0.49 0.63 0.78 0.83
0.52 0.46 0.47 0.49 0.51 0.52 0.52 0.50 0.48 0.47 0.47 0.47 0.46 0.46 0.47 0.47 0.48 0.49 0.50 0.49 0.49 0.49 0.48 0.46 0.48 0.53 0.47 0.48 0.40 0.47 0.65 0.79
0.51 0.47 0.46 0.46 0.47 0.48 0.46 0.46 0.44 0.41 0.40 0.39 0.40 0.40 0.40 0.41 0.41 0.42 0.42 0.45 0.46 0.49 0.50 0.49 0.46 0.52 0.55 0.51 0.43 0.39 0.48 0.61
0.53 0.48 0.44 0.42 0.41 0.40 0.40 0.37 0.33 0.35 0.36 0.37 0.38 0.39 0.38 0.39 0.39 0.39 0.39 0.40 0.41 0.42 0.45 0.46 0.48 0.47 0.57 0.61 0.61 0.57 0.47 0.43
0.54 0.50 0.44 0.41 0.40 0.39 0.37 0.35 0.36 0.37 0.38 0.38 0.39 0.40 0.40 0.40 0.40 0.40 0.40 0.40 0.40 0.41 0.42 0.43 0.43 0.42 0.45 0.53 0.58 0.60 0.60 0.52
0.55 0.49 0.44 0.44 0.43 0.42 0.39 0.37 0.37 0.38 0.38 0.37 0.38 0.39 0.41 0.42 0.42 0.43 0.43 0.43 0.42 0.42 0.42 0.43 0.43 0.44 0.45 0.46 0.48 0.50 0.54 0.56
0.54 0.49 0.45 0.47 0.46 0.44 0.43 0.42 0.42 0.40 0.40 0.39 0.39 0.39 0.40 0.40 0.43 0.43 0.44 0.45 0.45 0.45 0.45 0.44 0.44 0.43 0.46 0.47 0.50 0.50 0.51 0.52
0.54 0.48 0.47 0.48 0.48 0.47 0.48 0.47 0.45 0.45 0.44 0.44 0.43 0.43 0.43 0.42 0.44 0.45 0.46 0.48 0.48 0.48 0.49 0.49 0.48 0.46 0.46 0.48 0.51 0.53 0.55 0.55

GFSFLT2_prec_pwat_144.txt.gz
Precipitable_Water
1.22 1.28 1.31 1.38 1.39 1.39 1.40 1.39 1.38 1.40 1.40 1.42 1.46 1.49 1.51 1.51 1.51 1.50 1.49 1.49 1.50 1.50 1.50 1.51 1.53 1.51 1.43 1.32 1.25 1.21 1.17 1.14
1.03 1.08 1.19 1.27 1.37 1.42 1.43 1.41 1.39 1.40 1.40 1.41 1.41 1.43 1.45 1.47 1.48 1.49 1.50 1.52 1.52 1.52 1.54 1.56 1.56 1.59 1.61 1.63 1.59 1.50 1.36 1.28
0.90 0.91 0.95 1.04 1.16 1.25 1.32 1.34 1.34 1.34 1.34 1.34 1.35 1.38 1.36 1.35 1.38 1.41 1.44 1.46 1.46 1.45 1.46 1.47 1.48 1.51 1.54 1.58 1.61 1.61 1.62 1.55
0.74 0.72 0.74 0.79 0.85 0.94 1.06 1.15 1.17 1.17 1.22 1.25 1.25 1.28 1.30 1.34 1.35 1.37 1.37 1.40 1.47 1.48 1.48 1.48 1.46 1.46 1.51 1.56 1.58 1.61 1.62 1.63
0.69 0.69 0.68 0.66 0.68 0.77 0.87 0.97 1.04 1.07 1.08 1.16 1.21 1.26 1.28 1.30 1.31 1.29 1.27 1.30 1.33 1.33 1.37 1.39 1.44 1.44 1.52 1.55 1.55 1.54 1.60 1.67
0.62 0.59 0.58 0.59 0.61 0.61 0.64 0.72 0.85 0.92 0.99 1.04 1.07 1.14 1.20 1.24 1.22 1.22 1.24 1.27 1.25 1.27 1.27 1.30 1.38 1.41 1.43 1.41 1.43 1.52 1.59 1.63
0.57 0.63 0.62 0.61 0.58 0.59 0.60 0.62 0.66 0.70 0.76 0.86 0.97 1.03 1.05 1.12 1.14 1.14 1.15 1.18 1.19 1.19 1.19 1.23 1.22 1.22 1.24 1.26 1.26 1.25 1.29 1.41
0.60 0.63 0.62 0.62 0.58 0.58 0.58 0.61 0.62 0.63 0.64 0.67 0.73 0.79 0.86 0.94 0.94 0.94 1.00 1.06 1.04 1.08 1.10 1.12 1.14 1.13 1.12 1.12 1.07 1.01 1.01 1.07
0.60 0.63 0.63 0.59 0.57 0.57 0.58 0.60 0.61 0.61 0.61 0.62 0.64 0.67 0.70 0.72 0.74 0.80 0.80 0.92 0.90 0.86 0.87 0.97 0.90 0.82 0.86 0.91 0.86 0.90 0.93 0.94
0.61 0.63 0.61 0.58 0.56 0.55 0.55 0.56 0.56 0.55 0.55 0.56 0.57 0.58 0.60 0.60 0.60 0.62 0.67 0.73 0.75 0.76 0.75 0.74 0.74 0.76 0.73 0.73 0.71 0.73 0.79 0.88
0.60 0.61 0.60 0.57 0.56 0.56 0.55 0.54 0.54 0.54 0.53 0.52 0.52 0.52 0.52 0.51 0.51 0.52 0.55 0.54 0.54 0.54 0.54 0.54 0.52 0.53 0.54 0.58 0.58 0.60 0.69 0.79
0.62 0.60 0.59 0.57 0.55 0.54 0.53 0.52 0.52 0.53 0.52 0.52 0.51 0.51 0.51 0.50 0.49 0.49 0.50 0.48 0.47 0.48 0.47 0.49 0.49 0.47 0.47 0.46 0.49 0.53 0.56 0.62
0.61 0.59 0.59 0.54 0.52 0.50 0.48 0.47 0.48 0.48 0.48 0.47 0.46 0.46 0.46 0.45 0.45 0.46 0.47 0.45 0.45 0.46 0.46 0.44 0.45 0.48 0.44 0.42 0.46 0.54 0.60 0.63
0.62 0.60 0.58 0.56 0.56 0.53 0.50 0.46 0.44 0.43 0.43 0.42 0.40 0.40 0.40 0.38 0.38 0.37 0.38 0.37 0.37 0.39 0.40 0.40 0.44 0.49 0.43 0.43 0.35 0.40 0.56 0.65
0.60 0.59 0.57 0.57 0.56 0.54 0.48 0.46 0.43 0.39 0.38 0.38 0.38 0.39 0.39 0.39 0.39 0.38 0.37 0.37 0.35 0.36 0.37 0.37 0.34 0.41 0.48 0.46 0.38 0.34 0.42 0.52
0.61 0.58 0.54 0.54 0.53 0.48 0.44 0.40 0.35 0.37 0.37 0.39 0.40 0.41 0.41 0.41 0.40 0.39 0.38 0.38 0.36 0.36 0.38 0.37 0.37 0.35 0.41 0.47 0.49 0.50 0.41 0.39
0.60 0.54 0.50 0.49 0.48 0.46 0.43 0.39 0.39 0.40 0.41 0.40 0.41 0.41 0.42 0.42 0.41 0.41 0.40 0.41 0.41 0.40 0.40 0.39 0.40 0.38 0.38 0.39 0.42 0.44 0.49 0.45
0.59 0.53 0.49 0.49 0.49 0.47 0.45 0.43 0.42 0.42 0.42 0.41 0.41 0.41 0.41 0.42 0.43 0.43 0.43 0.44 0.44 0.44 0.45 0.44 0.43 0.42 0.41 0.41 0.40 0.40 0.40 0.41
0.58 0.53 0.48 0.50 0.49 0.48 0.48 0.48 0.47 0.45 0.45 0.44 0.43 0.42 0.41 0.43 0.44 0.44 0.45 0.46 0.45 0.46 0.46 0.44 0.45 0.44 0.45 0.45 0.46 0.45 0.47 0.47
0.60 0.54 0.50 0.50 0.50 0.50 0.51 0.52 0.50 0.49 0.47 0.46 0.46 0.43 0.41 0.44 0.44 0.45 0.45 0.46 0.44 0.44 0.45 0.44 0.44 0.44 0.44 0.46 0.48 0.50 0.51 0.50